[[{"header":{"parameterUnit":"m.s-1","parameterCategory":1,"la1":30.6,"la2":28.766,"lo1":-90.7593,"lo2":-88.6598,"dy":0.0162,"dx":0.0183,"nx":116,"ny":114,"refTime":"2023-05-21T00:00:00:Z","depth":0,"parameterNumber":2,"parameterNumberName":"U-component_of_WINDS"},"data":[0.0,0.0,0.0,0.0,0.0,0.0,0.0,0.0,0.0,0.0,0.0,0.0,0.0,0.0,0.0,0.0,0.0,0.0,0.0,0.0,0.0,0.0,0.0,0.0,0.0,0.0,0.0,0.0,0.0,0.0,0.0,0.0,0.0,0.0,0.0,0.0,0.0,0.0,0.0,0.0,0.0,0.0,0.0,0.0,0.0,0.0,0.0,0.0,0.0,0.0,0.0,0.0,0.0,0.0,0.0,0.0,0.0,0.0,0.0,0.0,0.0,0.0,0.0,0.0,0.0,0.0,0.0,0.0,0.0,0.0,0.0,0.0,0.0,0.0,0.0,0.0,0.0,0.0,0.0,0.0,0.0,0.0,0.0,0.0,0.0,0.0,0.0,0.0,0.0,0.0,0.0,0.0,0.0,0.0,0.0,0.0,0.0,0.0,0.0,0.0,0.0,0.0,0.0,0.0,0.0,0.0,0.0,0.0,0.0,0.0,0.0,0.0,0.0,0.0,0.0,0.0,0.0,0.0,0.0,0.0,0.0,0.0,0.0,0.0,0.0,0.0,0.0,0.0,0.0,0.0,0.0,0.0,0.0,0.0,0.0,0.0,0.0,0.0,0.0,0.0,0.0,0.0,0.0,0.0,0.0,0.0,0.0,0.0,0.0,0.0,0.0,0.0,0.0,0.0,0.0,0.0,0.0,0.0,0.0,0.0,0.0,0.0,0.0,0.0,0.0,0.0,0.0,0.0,0.0,0.0,0.0,0.0,0.0,0.0,0.0,0.0,0.0,0.0,0.0,0.0,0.0,0.0,0.0,0.0,0.0,0.0,0.0,0.0,0.0,0.0,0.0,0.0,0.0,0.0,0.0,0.0,0.0,0.0,0.0,0.0,0.0,0.0,0.0,0.0,0.0,0.0,0.0,0.0,0.0,0.0,0.0,0.0,0.0,0.0,0.0,0.0,0.0,0.0,0.0,0.0,0.0,0.0,0.0,0.0,0.0,0.0,0.0,0.0,0.0,0.0,0.0,0.0,0.0,0.0,0.0,0.0,0.0,0.0,0.0,0.0,0.0,0.0,0.0,0.0,0.0,0.0,0.0,0.0,0.0,0.0,0.0,0.0,0.0,0.0,0.0,0.0,0.0,0.0,0.0,0.0,0.0,0.0,0.0,0.0,0.0,0.0,0.0,0.0,0.0,0.0,0.0,0.0,0.0,0.0,0.0,0.0,0.0,0.0,0.0,0.0,0.0,0.0,0.0,0.0,0.0,0.0,0.0,0.0,0.0,0.0,0.0,0.0,0.0,0.0,0.0,0.0,0.0,0.0,0.0,0.0,0.0,0.0,0.0,0.0,0.0,0.0,0.0,0.0,0.0,0.0,0.0,0.0,0.0,0.0,0.0,0.0,0.0,0.0,0.0,0.0,0.0,0.0,0.0,0.0,0.0,0.0,0.0,0.0,0.0,0.0,0.0,0.0,0.0,0.0,0.0,0.0,0.0,0.0,0.0,0.0,0.0,0.0,0.0,0.0,0.0,0.0,0.0,0.0,0.0,0.0,0.0,0.0,0.0,0.0,0.0,0.0,0.0,0.0,0.0,0.0,0.0,0.0,0.0,0.0,0.0,0.0,0.0,0.0,0.0,0.0,0.0,0.0,0.0,0.0,0.0,0.0,0.0,0.0,0.0,0.0,0.0,0.0,0.0,0.0,0.0,0.0,0.0,0.0,0.0,0.0,0.0,0.0,0.0,0.0,0.0,0.0,0.0,0.0,0.0,0.0,0.0,0.0,0.0,0.0,0.0,0.0,0.0,0.0,0.0,0.0,0.0,0.0,0.0,0.0,0.0,0.0,0.0,0.0,0.0,0.0,0.0,0.0,0.0,0.0,0.0,0.0,0.0,0.0,0.0,0.0,0.0,0.0,0.0,0.0,0.0,0.0,0.0,0.0,0.0,0.0,0.0,0.0,0.0,0.0,0.0,0.0,0.0,0.0,0.0,0.0,0.0,0.0,0.0,0.0,0.0,0.0,0.0,0.0,0.0,0.0,0.0,0.0,0.0,0.0,0.0,0.0,0.0,0.0,0.0,0.0,0.0,0.0,0.0,0.0,0.0,0.0,0.0,0.0,0.0,0.0,0.0,0.0,0.0,0.0,0.0,0.0,0.0,0.0,0.0,0.0,0.0,0.0,0.0,0.0,0.0,0.0,0.0,0.0,0.0,0.0,0.0,0.0,0.0,0.0,0.0,0.0,0.0,0.0,0.0,0.0,0.0,0.0,0.0,0.0,0.0,0.0,0.0,0.0,0.0,0.0,0.0,0.0,0.0,0.0,0.0,0.0,0.0,0.0,0.0,0.0,0.0,0.0,0.0,0.0,0.0,0.0,0.0,0.0,0.0,0.0,0.0,0.0,0.0,0.0,0.0,0.0,0.0,0.0,0.0,0.0,0.0,0.0,0.0,0.0,0.0,0.0,0.0,0.0,0.0,0.0,0.0,0.0,0.0,0.0,0.0,0.0,0.0,0.0,0.0,0.0,0.0,0.0,0.0,0.0,0.0,0.0,0.0,0.0,0.0,0.0,0.0,0.0,0.0,0.0,0.0,0.0,0.0,0.0,0.0,0.0,0.0,0.0,0.0,0.0,0.0,0.0,0.0,0.0,0.0,0.0,0.0,0.0,0.0,0.0,0.0,0.0,0.0,0.0,0.0,0.0,0.0,0.0,0.0,0.0,0.0,0.0,0.0,0.0,0.0,0.0,0.0,0.0,0.0,0.0,0.0,0.0,0.0,0.0,0.0,0.0,0.0,0.0,0.0,0.0,0.0,0.0,0.0,0.0,0.0,0.0,0.0,0.0,0.0,0.0,0.0,0.0,0.0,0.0,0.0,0.0,0.0,0.0,0.0,0.0,0.0,0.0,0.0,0.0,0.0,0.0,0.0,0.0,0.0,0.0,0.0,0.0,0.0,0.0,0.0,0.0,0.0,0.0,0.0,0.0,0.0,0.0,0.0,0.0,0.0,0.0,0.0,0.0,0.0,0.0,0.0,0.0,0.0,0.0,0.0,0.0,0.0,0.0,0.0,0.0,0.0,0.0,0.0,0.0,0.0,0.0,0.0,0.0,0.0,0.0,0.0,0.0,0.0,0.0,0.0,0.0,0.0,0.0,0.0,0.0,0.0,0.0,0.0,0.0,0.0,0.0,0.0,0.0,0.0,0.0,0.0,0.0,0.0,0.0,0.0,0.0,0.0,0.0,0.0,0.0,0.0,0.0,0.0,0.0,0.0,0.0,0.0,0.0,0.0,0.0,0.0,0.0,0.0,0.0,0.0,0.0,0.0,0.0,0.0,0.0,0.0,0.0,0.0,0.0,0.0,0.0,0.0,0.0,0.0,0.0,0.0,0.0,0.0,0.0,0.0,0.0,0.0,0.0,0.0,0.0,0.0,0.0,0.0,0.0,0.0,0.0,0.0,0.0,0.0,0.0,0.0,0.0,0.0,0.0,0.0,0.0,0.0,0.0,0.0,0.0,0.0,0.0,0.0,0.0,0.0,0.0,0.0,0.0,0.0,0.0,0.0,0.0,0.0,0.0,0.0,0.0,0.0,0.0,0.0,0.0,0.0,0.0,0.0,0.0,0.0,0.0,0.0,0.0,0.0,0.0,0.0,0.0,0.0,0.0,0.0,0.0,0.0,0.0,0.0,0.0,0.0,0.0,0.0,0.0,0.0,0.0,0.0,0.0,0.0,0.0,0.0,0.0,0.0,0.0,0.0,0.0,0.0,0.0,0.0,0.0,0.0,0.0,0.0,0.0,0.0,0.0,0.0,0.0,0.0,0.0,0.0,0.0,0.0,0.0,0.0,0.0,0.0,0.0,0.0,0.0,0.0,0.0,0.0,0.0,0.0,0.0,0.0,0.0,0.0,0.0,0.0,0.0,0.0,0.0,0.0,0.0,0.0,0.0,0.0,0.0,0.0,0.0,0.0,0.0,0.0,0.0,0.0,0.0,0.0,0.0,0.0,0.0,0.0,0.0,0.0,0.0,0.0,0.0,0.0,0.0,0.0,0.0,0.0,0.0,0.0,0.0,0.0,0.0,0.0,0.0,0.0,0.0,0.0,0.0,0.0,0.0,0.0,0.0,0.0,0.0,0.0,0.0,0.0,0.0,0.0,0.0,0.0,0.0,0.0,0.0,0.0,0.0,0.0,0.0,0.0,0.0,0.0,0.0,0.0,0.0,0.0,0.0,0.0,0.0,0.0,0.0,0.0,0.0,0.0,0.0,0.0,0.0,0.0,0.0,0.0,0.0,0.0,0.0,0.0,0.0,0.0,0.0,0.0,0.0,0.0,0.0,0.0,0.0,0.0,0.0,0.0,0.0,0.0,0.0,0.0,0.0,0.0,0.0,0.0,0.0,0.0,0.0,0.0,0.0,0.0,0.0,0.0,0.0,0.0,0.0,0.0,0.0,0.0,0.0,0.0,0.0,0.0,0.0,0.0,0.0,0.0,0.0,0.0,0.0,0.0,0.0,0.0,0.0,0.0,0.0,0.0,0.0,0.0,0.0,0.0,0.0,0.0,0.0,0.0,0.0,0.0,0.0,0.0,0.0,0.0,0.0,0.0,0.0,0.0,0.0,0.0,0.0,0.0,0.0,0.0,0.0,0.0,0.0,0.0,0.0,0.0,0.0,0.0,0.0,0.0,0.0,0.0,0.0,0.0,0.0,0.0,0.0,0.0,0.0,0.0,0.0,0.0,0.0,0.0,0.0,0.0,0.0,0.0,0.0,0.0,0.0,0.0,0.0,0.0,0.0,0.0,0.0,0.0,0.0,0.0,0.0,0.0,0.0,0.0,0.0,0.0,0.0,0.0,0.0,0.0,0.0,0.0,0.0,0.0,0.0,0.0,0.0,0.0,0.0,0.0,0.0,0.0,0.0,0.0,0.0,0.0,0.0,0.0,0.0,0.0,0.0,0.0,0.0,0.0,0.0,0.0,0.0,0.0,0.0,0.0,0.0,0.0,0.0,0.0,0.0,0.0,0.0,0.0,0.0,0.0,0.0,0.0,0.0,0.0,0.0,0.0,0.0,0.0,0.0,0.0,0.0,0.0,0.0,0.0,0.0,0.0,0.0,0.0,0.0,0.0,0.0,0.0,0.0,0.0,0.0,0.0,0.0,0.0,0.0,0.0,0.0,0.0,0.0,0.0,0.0,0.0,0.0,0.0,0.0,0.0,0.0,0.0,0.0,0.0,0.0,0.0,0.0,0.0,0.0,0.0,0.0,0.0,0.0,0.0,0.0,0.0,0.0,0.0,0.0,0.0,0.0,0.0,0.0,0.0,0.0,0.0,0.0,0.0,0.0,0.0,0.0,0.0,0.0,0.0,0.0,0.0,0.0,0.0,0.0,0.0,0.0,0.0,0.0,0.0,0.0,0.0,0.0,0.0,0.0,0.0,0.0,0.0,0.0,0.0,0.0,0.0,0.0,0.0,0.0,0.0,0.0,0.0,0.0,0.0,0.0,0.0,0.0,0.0,0.0,0.0,0.0,0.0,0.0,0.0,0.0,0.0,0.0,0.0,0.0,0.0,0.0,0.0,0.0,0.0,0.0,0.0,0.0,0.0,0.0,0.0,0.0,0.0,0.0,0.0,0.0,0.0,0.0,0.0,0.0,0.0,0.0,0.0,0.0,0.0,0.0,0.0,0.0,0.0,0.0,0.0,0.0,0.0,0.0,0.0,0.0,0.0,0.0,0.0,0.0,0.0,0.0,0.0,0.0,0.0,0.0,0.0,0.0,0.0,0.0,0.0,0.0,0.0,0.0,0.0,0.0,0.0,0.0,0.0,0.0,0.0,0.0,0.0,0.0,0.0,0.0,0.0,0.0,0.0,0.0,0.0,0.0,0.0,0.0,0.0,0.0,0.0,0.0,0.0,0.0,0.0,0.0,0.0,0.0,0.0,0.0,0.0,0.0,0.0,0.0,0.0,0.0,0.0,0.0,0.0,0.0,0.0,0.0,0.0,0.0,0.0,0.0,0.0,0.0,0.0,0.0,0.0,0.0,0.0,0.0,0.0,0.0,0.0,0.0,0.0,0.0,0.0,0.0,0.0,0.0,0.0,0.0,2.1232,0.0,0.0,0.0,0.0,0.0,0.0,0.0,0.0,0.0,0.0,0.0,0.0,0.0,0.0,0.0,0.0,0.0,0.0,0.0,0.0,0.0,0.0,0.0,0.0,0.0,0.0,0.0,0.0,0.0,0.0,0.0,0.0,0.0,0.0,0.0,0.0,0.0,0.0,0.0,2.4547,2.4822,2.5489,2.5318,2.5246,2.5258,0.0,0.0,0.0,0.0,0.0,0.0,0.0,0.0,0.0,0.0,0.0,0.0,0.0,0.0,0.0,0.0,0.0,0.0,0.0,0.0,0.0,0.0,0.0,0.0,0.0,0.0,0.0,0.0,0.0,0.0,0.0,0.0,0.0,0.0,0.0,0.0,0.0,0.0,0.0,0.0,0.0,0.0,0.0,0.0,0.0,0.0,0.0,0.0,0.0,0.0,0.0,0.0,0.0,0.0,0.0,0.0,0.0,0.0,0.0,0.0,0.0,0.0,0.0,0.0,0.0,0.0,0.0,0.0,0.0,0.0,0.0,2.1589,0.0,0.0,0.0,0.0,0.0,0.0,0.0,0.0,0.0,0.0,0.0,0.0,0.0,0.0,0.0,0.0,0.0,0.0,0.0,0.0,0.0,0.0,0.0,0.0,0.0,0.0,0.0,0.0,0.0,0.0,0.0,0.0,0.0,0.0,0.0,0.0,0.0,0.0,2.5533,2.58,2.6276,2.6935,2.7028,2.658,2.5409,0.0,0.0,0.0,0.0,0.0,0.0,0.0,0.0,0.0,0.0,0.0,0.0,0.0,0.0,0.0,0.0,0.0,0.0,0.0,0.0,0.0,0.0,0.0,0.0,0.0,0.0,0.0,0.0,0.0,0.0,0.0,0.0,0.0,0.0,0.0,0.0,0.0,0.0,0.0,0.0,0.0,0.0,0.0,0.0,0.0,0.0,0.0,0.0,0.0,0.0,0.0,0.0,0.0,0.0,0.0,0.0,0.0,0.0,0.0,0.0,0.0,0.0,0.0,2.71,2.6986,2.6108,2.6827,2.6763,2.5949,2.3584,2.2296,2.1918,0.0,0.0,0.0,0.0,0.0,0.0,0.0,0.0,0.0,0.0,0.0,0.0,0.0,0.0,0.0,0.0,0.0,0.0,0.0,0.0,0.0,0.0,0.0,2.5129,2.5129,2.5143,2.5031,0.0,0.0,0.0,0.0,0.0,0.0,0.0,2.525,2.5528,2.6181,2.7248,2.7774,2.775,2.8353,2.8962,2.9444,2.7345,2.6403,2.6316,0.0,0.0,0.0,0.0,0.0,0.0,0.0,0.0,0.0,0.0,0.0,0.0,0.0,0.0,0.0,0.0,0.0,0.0,0.0,0.0,0.0,0.0,0.0,0.0,0.0,0.0,0.0,0.0,0.0,0.0,0.0,0.0,0.0,0.0,0.0,0.0,0.0,0.0,0.0,0.0,0.0,2.1053,2.1629,0.0,0.0,0.0,0.0,0.0,0.0,0.0,0.0,0.0,0.0,0.0,0.0,0.0,0.0,2.7705,2.8146,2.8177,2.7751,2.8252,2.8037,2.72,2.7903,2.8103,2.792,2.7615,0.0,2.3956,2.3376,0.0,0.0,0.0,0.0,0.0,0.0,0.0,0.0,0.0,0.0,0.0,0.0,0.0,0.0,0.0,0.0,0.0,0.0,0.0,0.0,0.0,2.4811,2.5378,2.581,2.6187,2.6205,2.5754,0.0,0.0,0.0,0.0,0.0,0.0,2.5588,2.6261,2.7296,2.905,2.9821,2.971,3.0232,3.064,3.0882,2.9386,2.8316,2.7573,2.6721,0.0,0.0,0.0,0.0,0.0,0.0,0.0,0.0,0.0,0.0,0.0,0.0,0.0,0.0,0.0,0.0,0.0,0.0,0.0,0.0,0.0,0.0,0.0,0.0,0.0,0.0,0.0,0.0,0.0,0.0,0.0,0.0,0.0,0.0,0.0,0.0,0.0,0.0,0.0,2.1926,2.25,2.2282,2.274,2.2628,0.0,0.0,0.0,0.0,0.0,0.0,0.0,0.0,0.0,2.7263,2.7743,2.8341,2.9147,2.9642,2.9998,3.0221,3.0751,3.0577,2.9764,3.0504,3.0535,2.9999,2.9642,2.8577,2.6978,2.5562,2.4083,2.2822,0.0,0.0,0.0,0.0,0.0,2.4878,0.0,0.0,0.0,0.0,0.0,0.0,0.0,0.0,0.0,0.0,0.0,0.0,2.5098,2.5504,2.5977,2.6769,2.7335,2.738,2.6775,0.0,0.0,0.0,0.0,2.5291,2.5442,2.6475,2.7508,2.8595,3.068,3.171,3.1766,3.2237,3.2467,3.2403,3.1508,3.0315,2.8874,2.7815,2.6713,2.5619,0.0,0.0,0.0,0.0,0.0,0.0,0.0,0.0,0.0,0.0,0.0,0.0,0.0,0.0,0.0,0.0,0.0,0.0,0.0,0.0,0.0,0.0,0.0,0.0,0.0,0.0,0.0,0.0,0.0,0.0,0.0,0.0,0.0,0.0,0.0,0.0,0.0,2.3293,2.3858,2.2914,2.3912,2.3994,0.0,0.0,0.0,0.0,0.0,0.0,2.703,2.7494,2.8142,2.9018,2.9505,3.0091,3.0872,3.1177,3.1691,3.2357,3.2754,3.2633,3.2037,3.2753,3.2747,3.2106,3.1584,3.0976,3.0091,2.77,2.5698,2.4261,2.5551,2.542,2.4711,2.6079,2.6675,2.6819,0.0,0.0,0.0,0.0,0.0,0.0,0.0,0.0,0.0,0.0,0.0,2.4244,2.5011,2.6346,2.7487,2.8234,2.8331,2.8315,2.8204,2.7419,2.665,2.5976,2.5888,2.5916,2.6038,2.8072,2.9388,2.9911,3.1988,3.3257,3.3766,3.4288,3.4605,3.4695,3.3759,3.2122,3.0021,2.8499,2.7826,2.7632,2.6154,0.0,0.0,0.0,0.0,0.0,0.0,0.0,0.0,0.0,0.0,0.0,0.0,0.0,0.0,0.0,0.0,0.0,0.0,0.0,0.0,0.0,0.0,0.0,0.0,0.0,0.0,0.0,0.0,0.0,0.0,0.0,0.0,0.0,0.0,0.0,0.0,0.0,0.0,2.3478,2.5369,0.0,0.0,0.0,0.0,2.5757,2.6517,2.7568,2.8973,2.9431,3.0328,3.1864,3.2303,3.2887,3.3778,3.3631,3.3545,3.3598,3.3393,3.3212,3.3117,3.3876,3.4152,3.4097,3.4216,3.388,3.2933,2.9589,2.7665,2.694,2.7322,2.7442,2.7449,2.7773,2.8013,2.8218,0.0,0.0,0.0,0.0,0.0,0.0,0.0,0.0,0.0,2.3715,2.4704,2.5735,2.6365,2.7883,2.9064,2.9632,2.9683,2.9439,2.886,2.8001,2.7227,2.6599,2.6562,2.7028,2.8071,2.9699,3.1009,3.2007,3.397,3.4978,3.5134,3.506,3.5044,3.5066,3.4164,3.2921,3.1485,3.0332,2.8963,2.7517,2.6929,2.574,0.0,0.0,0.0,0.0,0.0,0.0,0.0,0.0,0.0,0.0,0.0,0.0,0.0,0.0,0.0,0.0,0.0,0.0,0.0,0.0,0.0,0.0,0.0,0.0,0.0,0.0,0.0,0.0,0.0,0.0,0.0,0.0,0.0,0.0,0.0,0.0,0.0,2.5447,2.6957,0.0,0.0,2.7263,2.8164,2.8699,2.9268,3.0252,3.1771,3.1634,3.207,3.3214,3.3388,3.3743,3.4329,3.4236,3.4593,3.5368,3.4638,3.4647,3.5224,3.5048,3.493,3.4885,3.4492,3.4146,3.3784,3.2025,3.0258,2.8579,2.8579,2.842,2.8265,2.8858,2.9598,3.0261,0.0,0.0,0.0,0.0,0.0,0.0,0.0,0.0,0.0,2.4858,2.5881,2.6982,2.7876,2.9383,3.0639,3.1457,3.1262,3.0851,3.0281,2.9177,2.8136,2.7241,2.7444,2.8178,2.9416,3.1031,3.2412,3.3633,3.5292,3.6046,3.5941,3.5877,3.565,3.5292,3.4514,3.3675,3.2791,3.1684,3.0089,2.8185,2.7637,2.6478,2.5101,0.0,0.0,0.0,0.0,0.0,0.0,0.0,0.0,0.0,0.0,0.0,0.0,0.0,0.0,0.0,0.0,0.0,0.0,0.0,0.0,0.0,0.0,0.0,0.0,0.0,0.0,0.0,0.0,0.0,0.0,0.0,0.0,0.0,0.0,0.0,2.7689,2.728,2.8923,2.9742,2.8778,2.9405,3.0239,3.1056,3.1377,3.2169,3.3675,3.3247,3.3474,3.4635,3.453,3.4662,3.5182,3.5168,3.5498,3.6236,3.556,3.5512,3.5966,3.5479,3.5195,3.5065,3.4645,3.4466,3.4442,3.3712,3.2446,3.0938,3.0408,3.0162,3.0158,3.0283,3.1202,3.2298,0.0,0.0,0.0,0.0,0.0,0.0,0.0,0.0,2.5477,2.6293,2.6935,2.7907,2.9401,3.0754,3.2182,3.3707,3.2967,3.2438,3.2464,3.0907,2.9338,2.7926,2.864,2.9381,2.9981,3.2065,3.3669,3.4725,3.5906,3.6402,3.6208,3.6857,3.6565,3.5577,3.5016,3.4425,3.3822,3.2493,3.1173,2.9827,2.8283,2.7297,2.6673,0.0,0.0,0.0,0.0,0.0,0.0,0.0,0.0,0.0,0.0,0.0,0.0,0.0,0.0,0.0,0.0,0.0,0.0,0.0,0.0,0.0,0.0,0.0,0.0,0.0,0.0,0.0,0.0,0.0,0.0,0.0,0.0,0.0,2.6195,2.8422,2.9796,2.8856,3.1216,3.2369,3.0939,3.1345,3.2004,3.274,3.2673,3.3274,3.4703,3.4253,3.4659,3.6056,3.5695,3.5826,3.6456,3.6375,3.6256,3.6124,3.5976,3.5645,3.5131,3.5146,3.5013,3.4736,3.4883,3.4965,3.503,3.4435,3.4175,3.3991,3.2807,3.2739,3.3237,3.2081,3.2766,3.4248,0.0,0.0,0.0,0.0,0.0,0.0,0.0,2.5037,2.5378,2.6089,2.7248,2.8745,3.066,3.2249,3.346,3.4177,3.3424,3.2444,3.1335,3.0206,2.9431,2.9112,3.0342,3.1358,3.2062,3.3501,3.4624,3.5344,3.6521,3.6833,3.6369,3.7026,3.6776,3.5821,3.5621,3.4797,3.3508,3.3159,3.2377,3.1258,2.9575,2.7877,2.6333,0.0,0.0,0.0,0.0,0.0,0.0,0.0,0.0,0.0,0.0,0.0,0.0,0.0,0.0,0.0,0.0,0.0,0.0,0.0,0.0,0.0,0.0,0.0,0.0,0.0,0.0,0.0,0.0,0.0,0.0,0.0,0.0,2.8415,2.8276,3.0024,3.1426,3.1681,3.2676,3.3185,3.2753,3.3335,3.3999,3.4745,3.5155,3.5744,3.6449,3.6191,3.6075,3.6241,3.5752,3.563,3.5911,3.549,3.5689,3.6434,3.606,3.5991,3.6355,3.6224,3.5771,3.5036,3.5283,3.5135,3.4628,3.4478,3.4442,3.4435,3.3272,3.2907,3.3067,3.2974,3.3402,3.4172,0.0,0.0,0.0,0.0,0.0,0.0,0.0,2.4935,2.5412,2.6435,2.7809,2.9381,3.1189,3.2648,3.3712,3.4281,3.3172,3.2041,3.1148,2.9976,2.9647,3.0395,3.1553,3.2656,3.3661,3.455,3.5353,3.6093,3.6999,3.7148,3.6653,3.7366,3.7149,3.6089,3.5943,3.5202,3.4055,3.3486,3.2885,3.216,3.0868,2.9295,2.7756,2.7259,2.6317,2.5244,2.5,2.4629,2.4213,2.381,0.0,0.0,0.0,0.0,0.0,0.0,0.0,0.0,0.0,0.0,0.0,0.0,0.0,0.0,0.0,0.0,0.0,0.0,0.0,0.0,0.0,0.0,0.0,0.0,2.9213,3.0918,3.1532,3.2206,3.3051,3.4071,3.4593,3.4939,3.526,3.5583,3.5883,3.6223,3.6477,3.6716,3.692,3.6593,3.6397,3.6401,3.5979,3.5943,3.6211,3.5935,3.6103,3.6616,3.6337,3.6283,3.641,3.6355,3.5943,0.0,3.5613,3.5377,3.4751,3.4905,3.4775,0.0,0.0,0.0,0.0,0.0,3.4389,3.4472,0.0,0.0,0.0,0.0,0.0,0.0,0.0,2.4484,2.5413,2.6965,2.8277,2.9673,3.1297,3.2379,3.3252,3.3981,3.2559,3.1547,3.1473,3.0194,3.01,3.1604,3.2426,3.3475,3.4815,3.5227,3.5796,3.6661,3.7204,3.7295,3.6915,3.7758,3.7524,3.6421,3.6084,3.5638,3.5009,3.3838,3.319,3.2958,3.2205,3.1164,2.9957,2.878,2.8048,2.7545,2.6751,2.6066,2.552,2.5278,0.0,0.0,0.0,0.0,0.0,0.0,0.0,0.0,0.0,0.0,0.0,0.0,0.0,0.0,0.0,0.0,0.0,0.0,0.0,0.0,0.0,0.0,0.0,0.0,3.1585,3.3804,3.4995,3.4607,3.4711,3.6007,3.6514,3.6969,3.7627,3.7533,3.7369,3.7236,3.702,3.6837,3.677,0.0,0.0,0.0,0.0,3.6466,3.697,3.6908,3.6847,3.6662,3.6708,3.6451,3.5969,3.6043,3.5891,3.5569,3.5911,3.575,3.5193,3.5519,3.5232,3.4513,3.4082,3.4446,3.5337,3.5639,3.5409,3.5002,0.0,0.0,0.0,0.0,0.0,0.0,0.0,2.398,2.4709,2.6846,2.7734,2.9127,3.1692,3.2025,3.2304,3.2935,3.2539,3.1947,3.1298,3.0997,3.1225,3.2124,3.3296,3.4314,3.5183,3.5326,3.5476,3.5672,3.6555,3.6751,3.638,3.7664,3.7726,3.6788,3.6733,3.6319,3.5626,3.5353,3.5144,3.4988,3.4234,3.2506,3.0378,3.0348,2.9384,2.8136,2.8928,2.8527,2.7569,2.7256,2.7139,2.6821,2.505,0.0,0.0,0.0,0.0,0.0,0.0,0.0,0.0,0.0,0.0,0.0,0.0,0.0,0.0,0.0,0.0,0.0,0.0,0.0,0.0,3.1133,3.3183,3.4854,3.5399,3.619,3.6872,3.727,3.7084,3.6937,3.7019,3.6884,3.6979,3.7576,3.7477,3.7449,3.7621,3.7447,0.0,3.6669,3.6627,3.6569,3.6585,3.6631,3.6569,3.6522,0.0,0.0,3.6383,3.6909,3.663,3.5845,3.6413,3.6293,3.5716,3.6039,3.6206,3.6135,3.4857,3.4736,3.5291,3.5383,3.5419,3.5447,0.0,0.0,0.0,0.0,0.0,0.0,0.0,2.3564,2.4217,2.5668,2.6927,2.8354,3.0062,3.0724,3.1155,3.1391,3.1179,3.0869,3.0418,3.1081,3.202,3.3149,3.3968,3.4751,3.5429,3.5206,3.5205,3.5331,3.5776,3.6194,3.6582,3.7263,3.7454,3.7277,3.7033,3.6635,3.6174,3.5816,3.5657,3.5538,3.4698,3.3641,3.2408,3.187,3.0817,2.9748,3.0102,2.9719,2.9006,2.8337,2.828,2.8198,2.6407,2.5175,2.4275,0.0,0.0,0.0,0.0,0.0,0.0,0.0,0.0,0.0,0.0,0.0,0.0,0.0,0.0,2.9031,0.0,0.0,3.232,3.2724,3.4506,3.5983,3.6434,3.7136,3.7719,3.792,3.7668,3.7524,3.7781,3.7695,3.7649,3.779,3.7686,3.7576,3.753,3.7445,3.7121,3.6708,3.6646,3.6523,3.6352,3.6289,3.6258,3.6337,3.6507,3.6522,3.6492,3.6816,3.6693,3.624,3.6731,3.6469,3.5853,3.5966,3.6254,3.6473,3.5873,3.5679,3.5749,3.5813,3.5702,3.5458,0.0,0.0,0.0,0.0,0.0,0.0,0.0,0.0,2.384,2.4745,2.6185,2.7385,2.809,2.9055,2.9677,2.9776,2.9584,2.9539,2.9748,3.0988,3.2359,3.3888,3.4253,3.4739,3.5419,3.4927,3.4775,3.5013,3.5013,3.5602,3.6654,3.6773,3.711,3.7685,3.7207,3.6947,3.6723,3.6194,3.5959,3.5895,3.4999,3.4636,3.4546,3.3171,3.2143,3.1328,3.0968,3.0442,2.9816,2.9111,2.891,2.8736,2.7553,2.6331,2.5171,2.4418,2.3321,0.0,0.0,0.0,0.0,0.0,0.0,0.0,0.0,0.0,2.74,2.8112,2.9644,3.1022,3.1575,3.3294,3.4539,3.45,3.5938,3.7143,3.7436,3.7777,3.8064,3.8259,3.8064,3.8095,3.8574,3.8525,3.8286,3.7902,3.7722,3.7456,3.7207,3.6969,3.6801,3.6599,3.646,3.6352,3.6148,3.6022,3.6054,3.6151,3.6151,3.6275,3.6429,3.6429,3.6429,3.6429,3.6738,3.6654,3.6197,3.6165,3.6426,3.6841,3.7032,3.6865,3.6571,3.6584,3.6198,3.5726,0.0,0.0,0.0,0.0,0.0,0.0,0.0,0.0,0.0,2.5586,2.5762,2.6133,2.7229,2.7308,2.767,2.8598,2.8605,2.9041,3.0223,3.0963,3.1953,3.3313,3.3673,3.4134,3.4847,3.4317,3.4032,3.4062,3.4292,3.487,3.576,3.6245,3.6875,3.771,3.7524,3.7417,3.7401,3.7291,3.7302,3.718,3.6146,3.5618,3.534,3.4093,3.2835,3.1819,3.2196,3.1182,2.9711,3.0054,2.9832,2.9264,2.8501,2.7914,2.725,2.5746,0.0,2.4403,2.3014,2.343,2.4407,2.5013,2.6377,2.7999,0.0,0.0,3.0342,3.1426,3.2299,3.3227,3.4329,3.5283,3.6219,3.7178,3.7898,3.822,3.7892,3.809,3.8213,3.8141,3.8101,3.8035,3.8033,3.786,3.7775,3.7694,3.7436,3.7167,3.7049,3.6707,3.6442,3.6257,3.6115,3.6037,3.6037,3.6037,3.6037,3.6022,3.6022,3.6022,3.6037,3.6037,3.6037,3.61,3.6414,3.6784,3.7231,3.7419,3.7751,3.8205,3.8449,3.8257,3.7725,3.7336,3.7252,3.7234,0.0,0.0,0.0,0.0,0.0,0.0,0.0,0.0,0.0,0.0,2.4346,2.4996,2.5832,2.5913,2.6219,2.6919,2.7244,2.7964,2.9259,3.0746,3.1968,3.2861,3.3634,3.4121,3.4267,3.3899,3.3607,3.345,3.3756,3.4263,3.4919,3.5466,3.624,3.7125,3.721,3.7244,3.7183,3.706,3.6907,3.6646,3.5707,3.5014,3.4523,3.3423,3.2332,3.1324,3.1599,3.078,0.0,2.9768,2.9695,2.9368,2.8708,2.8122,2.7467,2.6451,2.5814,0.0,2.4914,2.6056,0.0,0.0,2.892,3.0593,3.1056,3.1625,3.2299,3.314,3.4112,3.5057,3.587,3.6599,3.7131,0.0,3.7802,3.7972,3.7454,3.7778,3.8001,3.7801,3.7669,3.761,3.7759,3.7626,3.7464,3.7288,3.7062,3.6816,3.6537,3.6381,3.6224,3.6115,3.5894,3.5831,3.5831,3.5733,3.5733,3.5831,3.5831,3.5894,3.5973,3.5973,3.5973,3.6037,3.6226,3.6523,3.6892,3.7373,3.7727,3.8132,3.8544,3.8586,3.8405,3.7961,3.7585,3.727,0.0,0.0,0.0,0.0,0.0,0.0,0.0,0.0,0.0,0.0,0.0,2.3842,2.4548,2.4792,2.5108,2.5618,2.6077,2.6875,2.8172,2.9962,3.1444,3.2406,3.3275,3.374,3.3745,3.3382,3.3118,3.292,3.3073,3.351,3.4296,3.4647,3.5471,3.6565,3.6677,3.6755,3.6816,3.6616,3.6383,3.615,3.5152,3.4364,3.3589,3.2701,3.1517,3.0333,3.072,3.0136,2.9215,2.9289,2.9283,2.916,2.8704,2.8262,2.7757,2.6898,2.6083,2.5582,2.6108,0.0,0.0,2.9318,3.0856,3.2325,3.2433,3.3104,3.3925,3.4735,3.5562,3.6379,3.7032,3.7536,0.0,3.7477,3.7711,3.7731,3.7263,3.7467,3.7567,3.7421,3.721,3.721,3.7405,3.7254,3.7074,3.6877,3.6615,3.6413,3.6148,3.6085,3.6022,3.5894,3.5703,3.5638,3.5638,3.5474,3.5474,3.5638,3.5494,3.5574,3.5782,3.5782,3.5782,3.5782,3.5958,3.6211,3.6476,3.7058,3.7535,3.7902,3.8375,3.8616,3.8645,3.8463,3.8058,3.7595,0.0,0.0,0.0,0.0,0.0,0.0,0.0,0.0,0.0,0.0,0.0,0.0,0.0,0.0,2.4408,2.5086,2.5329,2.5983,2.7238,2.8378,2.9908,3.1915,3.2171,3.2566,3.3277,3.2742,3.2453,3.2398,3.212,3.2634,3.3924,3.3939,3.4775,3.6196,3.6054,3.6133,3.6492,3.607,3.6054,3.6072,3.4979,3.3924,3.295,3.2322,3.0735,2.8889,2.9814,2.9379,2.8515,2.8958,2.8853,2.8516,2.8533,2.869,0.0,2.7225,2.5922,2.5095,0.0,0.0,2.7972,3.0583,3.1751,3.2774,3.4639,3.5029,3.5292,3.6542,3.6717,3.6989,3.8053,3.8131,3.8187,3.8515,3.8181,3.787,3.7727,3.7285,3.6999,3.7015,3.6999,3.6938,0.0,3.66,3.6492,3.6492,3.6226,3.6037,3.6037,3.5831,3.5688,3.5688,3.5604,3.5504,3.5504,3.5294,3.5294,3.5504,3.5133,3.5001,3.5213,3.5213,3.5213,3.5213,3.5574,3.5879,3.6258,3.6937,3.7373,3.7759,3.8391,3.8504,3.8448,3.8678,3.8756,3.8739,0.0,0.0,0.0,0.0,0.0,0.0,0.0,0.0,0.0,0.0,0.0,0.0,0.0,0.0,0.0,0.0,2.4088,2.4726,2.6204,2.7506,2.8806,3.0172,3.0891,3.1534,3.2042,3.1666,3.1607,3.1951,3.2045,3.2303,3.263,3.2968,3.3538,3.4267,3.4299,3.4361,3.45,3.4361,3.443,3.4426,3.3232,3.2476,3.202,3.1016,2.9781,2.8529,0.0,2.8367,2.783,2.8045,2.8039,2.7967,2.8014,2.8176,2.8273,2.7951,2.7982,2.8113,2.8192,0.0,3.1415,3.2537,3.3688,3.4801,3.5728,3.6105,3.6174,3.5874,3.6525,3.6802,3.5861,3.6741,3.7302,3.6581,3.7488,3.8014,3.7304,3.7451,3.7514,3.7062,3.6862,0.0,0.0,0.0,0.0,3.6274,3.61,3.5973,3.5831,3.5752,3.5638,3.5539,3.5489,3.5504,3.5504,3.5439,3.5439,3.5504,3.5359,3.5359,3.5424,3.5424,3.5474,3.5574,3.5767,3.5958,3.6085,3.68,3.7225,3.7433,3.796,3.8262,3.8391,3.8246,3.823,3.823,0.0,0.0,0.0,0.0,0.0,0.0,0.0,0.0,0.0,0.0,0.0,0.0,0.0,0.0,0.0,0.0,0.0,2.3978,2.5086,2.6379,2.7551,2.8582,2.9313,2.9897,3.0341,2.9992,2.9885,3.0088,3.0184,3.0469,3.0807,3.1187,3.1748,3.2404,3.245,3.251,3.2631,3.251,3.2579,3.2639,3.1509,3.0807,3.0353,2.9576,2.8511,0.0,2.7793,2.7671,2.7436,2.7542,2.7689,2.7847,2.7904,2.8045,2.8192,2.8388,2.8809,2.9368,2.9951,3.1242,3.2816,3.4231,3.5231,3.6024,3.6724,3.6842,3.6603,3.5992,3.6164,3.5992,3.4661,3.548,3.6043,3.5047,3.6283,3.7214,3.6627,3.7095,3.7297,3.6862,3.6662,0.0,0.0,0.0,0.0,3.6006,3.6137,3.6144,3.5999,3.621,3.628,3.6193,3.6193,3.6193,3.6193,3.5821,3.5651,3.5585,3.5636,3.5636,3.5636,3.5717,3.5833,3.5984,3.6194,3.6474,3.6865,3.7063,3.7219,3.7418,3.763,3.7844,3.7976,3.7844,3.777,3.777,0.0,0.0,0.0,0.0,0.0,0.0,0.0,0.0,0.0,0.0,0.0,0.0,0.0,0.0,0.0,0.0,0.0,0.0,2.3948,2.4895,2.6015,2.7182,2.7501,2.7844,2.8275,2.7799,2.7464,2.7225,2.6959,2.7457,2.8635,2.8635,2.9375,3.0631,3.0543,3.0602,3.0895,3.0602,3.0646,3.0866,2.9972,2.8975,2.806,2.8111,2.7133,2.5904,2.7073,2.7419,2.7303,2.7478,0.0,0.0,2.8245,2.8434,2.8665,2.8683,2.8675,2.9134,3.1212,3.1668,3.2353,3.5642,3.6345,3.6524,3.7682,3.7293,3.6629,3.6678,3.5706,3.4688,0.0,0.0,3.4558,3.3944,3.4934,3.5763,3.5763,3.6199,3.6584,0.0,0.0,0.0,0.0,0.0,0.0,3.5793,0.0,3.6492,3.6537,3.709,3.7419,3.7404,3.7404,3.7404,3.7336,3.6452,3.5898,3.5776,3.5884,3.5952,3.6005,3.6156,3.6358,3.6558,3.6661,3.7288,3.8152,3.7563,3.7463,3.7622,3.7429,3.7298,3.7238,3.7508,3.7508,3.7358,0.0,0.0,0.0,0.0,0.0,0.0,0.0,0.0,0.0,0.0,0.0,0.0,0.0,0.0,0.0,0.0,0.0,0.0,2.3425,2.3599,2.4095,2.5067,2.5948,2.6557,2.6841,2.7101,2.7397,2.7715,2.758,2.7724,2.8053,2.8053,2.8218,2.8532,2.8547,2.8547,2.8651,2.8525,2.8702,2.899,2.7758,2.749,2.7745,2.7054,2.6548,2.6326,2.7184,2.7369,0.0,0.0,0.0,0.0,0.0,2.9804,3.0749,3.0908,3.166,3.2634,3.3652,3.4546,3.5575,3.6809,3.755,3.7885,3.7535,3.7212,3.6418,3.4459,3.4108,3.3479,0.0,0.0,0.0,3.3154,3.4911,0.0,3.6075,3.7024,0.0,0.0,0.0,3.693,3.7231,3.6743,0.0,0.0,3.6708,3.6686,3.715,3.733,3.7351,3.7144,3.7336,3.7267,3.6921,3.6689,3.6615,3.6768,3.6768,3.6891,3.7029,3.7097,3.7165,3.7353,3.6872,3.6884,3.7056,3.6569,3.6471,3.6566,3.6662,3.6815,3.6966,3.6846,3.6846,3.6831,0.0,0.0,0.0,0.0,0.0,0.0,0.0,0.0,0.0,0.0,0.0,0.0,0.0,0.0,0.0,0.0,0.0,0.0,0.0,2.2295,2.265,2.2969,2.41,2.4697,2.4668,2.4956,2.517,2.5288,2.5213,2.5485,2.6105,2.6105,2.6408,2.6983,2.6983,2.6983,2.6919,2.6756,2.6867,0.0,0.0,2.6102,2.6453,2.6193,2.6145,2.6249,2.6971,0.0,0.0,0.0,0.0,2.9667,3.0125,3.1053,3.2036,3.2567,0.0,3.4447,3.5392,3.6334,3.723,3.8119,3.8373,3.8294,3.7746,3.6802,3.5436,3.3347,3.2757,0.0,0.0,0.0,0.0,0.0,0.0,0.0,3.5294,3.6226,3.6804,0.0,3.6485,0.0,3.6773,3.6691,3.6828,0.0,3.7336,3.7464,3.7823,3.8053,3.8076,3.8005,3.8091,3.789,3.7258,3.7168,3.7222,3.7449,3.7449,3.759,3.7838,3.7922,3.7841,3.7692,0.0,3.7216,3.7237,3.6507,3.6284,3.6417,3.6333,3.6399,3.6492,3.6399,3.6414,3.6461,0.0,0.0,0.0,0.0,0.0,0.0,0.0,0.0,0.0,0.0,0.0,0.0,0.0,0.0,0.0,0.0,0.0,0.0,0.0,0.0,2.1532,2.1227,2.2388,2.2901,2.2561,2.2582,2.2443,2.2164,2.2079,2.265,2.3777,2.3777,2.4447,2.5651,2.5651,2.5697,2.5743,2.5423,2.5345,2.5438,2.5129,2.4956,2.4917,0.0,0.0,0.0,0.0,0.0,0.0,0.0,3.0088,3.0445,3.1423,3.2274,3.3037,3.3916,3.4641,3.5443,3.6786,3.7485,3.8121,3.937,3.8939,3.8162,3.7836,3.5987,3.3955,3.2552,0.0,3.0477,2.9686,0.0,3.1021,3.1342,0.0,3.3294,3.4309,3.4956,3.5539,3.6146,3.594,3.5876,3.5963,3.6345,3.6806,3.7392,3.7963,3.8302,3.8392,3.8803,3.9015,3.9104,3.9046,3.8649,3.8031,3.7784,3.7842,3.8073,3.8001,3.8201,3.8597,3.8752,3.8476,3.7843,0.0,0.0,3.7713,3.6812,3.6445,3.6501,3.6073,3.591,3.5973,3.6085,3.6148,3.6148,0.0,0.0,0.0,0.0,0.0,0.0,0.0,0.0,0.0,0.0,2.0098,1.9982,0.0,0.0,0.0,0.0,0.0,0.0,0.0,0.0,0.0,2.0722,2.2033,2.2621,2.2353,2.2897,2.3135,2.3064,0.0,2.2954,2.3228,2.3228,2.367,2.4398,2.446,2.4737,2.5111,2.4797,2.4671,2.4671,2.4331,2.4368,2.472,2.5132,0.0,0.0,0.0,0.0,0.0,0.0,3.0143,3.0959,3.2546,3.3925,3.4961,3.5352,3.6252,3.7297,3.8285,3.8866,3.9387,4.0268,3.9397,3.8042,3.673,3.4692,0.0,0.0,0.0,2.9039,2.8296,2.9364,0.0,3.1641,0.0,0.0,0.0,0.0,3.618,0.0,0.0,0.0,0.0,0.0,0.0,0.0,0.0,0.0,3.8362,3.8497,3.8668,3.909,3.859,3.8486,3.8649,3.8295,3.834,3.8868,3.8708,3.8926,3.9516,3.9516,3.9239,3.8728,0.0,0.0,3.6833,3.6155,3.5769,3.5719,3.5614,3.5569,3.5554,3.5619,3.5653,3.5816,0.0,0.0,0.0,0.0,0.0,0.0,0.0,2.0183,2.0892,2.0823,2.0718,2.047,2.0057,2.0205,0.0,0.0,0.0,0.0,0.0,0.0,0.0,0.0,0.0,0.0,0.0,0.0,0.0,0.0,0.0,0.0,0.0,0.0,0.0,0.0,0.0,0.0,2.4374,2.4035,2.4076,2.4359,0.0,0.0,0.0,0.0,0.0,0.0,0.0,0.0,0.0,0.0,3.0058,3.1025,3.3147,3.4554,3.5543,3.6147,3.7271,3.8391,3.8799,3.9558,4.0208,4.0096,3.8963,3.7332,3.5452,0.0,0.0,0.0,0.0,2.8596,2.8203,0.0,0.0,0.0,0.0,0.0,0.0,0.0,0.0,0.0,0.0,0.0,0.0,0.0,0.0,0.0,0.0,0.0,3.7853,3.7744,3.7949,3.8429,3.8062,3.812,3.8648,3.8381,3.8266,3.844,3.8708,3.8911,3.9028,3.9602,3.9294,3.8326,3.8061,0.0,3.63,3.5903,3.5638,3.5589,3.5589,3.5554,3.5504,3.5504,3.5554,3.5653,0.0,0.0,0.0,0.0,0.0,0.0,0.0,2.0532,2.1423,2.1531,2.1491,2.1138,2.0421,2.0039,1.9811,0.0,0.0,0.0,0.0,0.0,0.0,0.0,0.0,0.0,0.0,0.0,0.0,0.0,0.0,0.0,0.0,0.0,0.0,0.0,0.0,0.0,0.0,0.0,2.363,0.0,0.0,0.0,0.0,0.0,0.0,0.0,0.0,0.0,0.0,0.0,2.961,3.0506,3.2758,3.4354,3.5503,3.6138,3.7422,3.8712,3.8868,3.961,4.0238,3.9679,3.8053,3.6122,3.4266,3.2031,0.0,0.0,2.8334,2.8239,2.8194,0.0,0.0,0.0,0.0,0.0,0.0,0.0,0.0,0.0,0.0,0.0,0.0,0.0,0.0,0.0,0.0,0.0,3.718,3.702,3.7146,3.7666,3.7478,3.7623,3.8223,3.8119,3.796,3.7689,3.8486,3.8748,3.8562,3.9385,3.9061,3.7842,3.7825,0.0,0.0,3.5752,3.5688,3.5638,3.5638,3.5589,3.5504,3.5504,3.5504,3.5619,0.0,0.0,0.0,0.0,0.0,0.0,0.0,2.0839,2.1579,2.2293,2.2287,2.1916,2.1191,2.0429,1.9952,0.0,0.0,0.0,0.0,0.0,0.0,0.0,0.0,0.0,0.0,0.0,0.0,0.0,0.0,0.0,0.0,0.0,0.0,0.0,0.0,0.0,0.0,0.0,0.0,0.0,0.0,0.0,0.0,0.0,0.0,0.0,0.0,0.0,0.0,0.0,0.0,2.9049,3.0612,3.309,3.5312,3.4787,0.0,0.0,3.8599,3.8715,3.882,3.9514,3.6965,3.4128,3.3422,0.0,0.0,2.7836,2.7459,2.727,2.7448,0.0,0.0,0.0,0.0,3.3039,0.0,0.0,0.0,0.0,0.0,0.0,0.0,0.0,0.0,0.0,0.0,0.0,0.0,3.6417,3.6526,3.7153,3.6969,3.6984,3.7212,3.7617,3.7715,3.744,3.8567,3.9035,3.8963,3.8832,3.8607,3.8228,0.0,0.0,0.0,3.5688,3.5653,3.5504,3.5504,3.5504,3.5504,3.5504,3.5604,3.5688,0.0,0.0,0.0,0.0,0.0,0.0,2.0134,2.1117,2.1871,2.2168,2.2051,2.186,2.1643,2.0539,1.9835,0.0,0.0,0.0,0.0,0.0,0.0,0.0,0.0,0.0,0.0,0.0,0.0,0.0,0.0,0.0,0.0,0.0,0.0,0.0,0.0,0.0,0.0,0.0,0.0,0.0,0.0,0.0,0.0,0.0,0.0,0.0,0.0,0.0,0.0,0.0,0.0,0.0,2.8771,3.056,0.0,0.0,3.4923,3.644,3.7297,3.8053,3.8622,3.8581,3.6364,3.396,3.2894,0.0,2.7984,2.7865,2.7291,2.6951,2.7409,0.0,0.0,0.0,0.0,0.0,0.0,0.0,0.0,0.0,0.0,0.0,0.0,0.0,0.0,0.0,0.0,0.0,0.0,3.6273,3.6081,3.655,3.6497,3.6606,3.6936,3.75,3.7641,3.7419,3.8552,3.8841,3.8402,3.8743,3.8349,3.7532,0.0,0.0,0.0,3.5752,3.5703,3.5653,3.5733,3.5683,3.5504,3.5604,3.5638,3.5752,0.0,0.0,0.0,0.0,0.0,1.9425,2.0069,2.1077,2.1816,2.1953,2.1799,2.162,2.1498,2.0581,1.9856,1.9484,1.9513,0.0,0.0,0.0,0.0,0.0,0.0,0.0,0.0,0.0,0.0,0.0,0.0,0.0,0.0,0.0,0.0,0.0,0.0,0.0,0.0,0.0,0.0,0.0,0.0,0.0,0.0,0.0,0.0,0.0,0.0,0.0,0.0,0.0,0.0,0.0,0.0,0.0,0.0,0.0,3.3393,3.4975,3.5977,3.7012,3.7741,3.7471,3.5588,3.3469,0.0,0.0,2.7508,2.784,2.6996,2.6433,2.7225,2.7875,2.8483,2.9064,0.0,3.1116,0.0,0.0,0.0,0.0,0.0,0.0,0.0,0.0,0.0,0.0,0.0,0.0,0.0,3.6662,3.6219,3.628,3.6163,3.6239,3.6482,3.7134,3.7377,3.715,3.8132,3.8332,3.794,3.816,3.7767,3.6925,0.0,0.0,0.0,3.5718,3.5703,3.5767,3.5861,3.5733,3.5539,3.5638,3.5752,3.5816,0.0,0.0,0.0,0.0,0.0,0.0,2.001,2.063,2.1229,2.1816,2.1729,2.1331,2.059,2.0615,2.0078,1.8553,1.9207,0.0,0.0,0.0,0.0,0.0,0.0,0.0,0.0,0.0,0.0,1.879,0.0,0.0,0.0,0.0,0.0,0.0,0.0,0.0,0.0,0.0,0.0,0.0,0.0,0.0,0.0,0.0,0.0,0.0,0.0,0.0,0.0,0.0,0.0,0.0,0.0,0.0,0.0,0.0,3.1359,3.3515,3.4864,3.5376,3.5687,3.637,3.4408,3.2143,0.0,0.0,2.697,2.756,2.6387,2.553,2.661,2.6718,2.695,2.7935,2.9293,0.0,0.0,0.0,0.0,0.0,0.0,0.0,0.0,0.0,0.0,0.0,0.0,0.0,0.0,3.7653,3.7134,3.6507,3.6178,3.591,3.5703,3.6396,3.661,3.6507,3.7135,3.7503,3.7692,3.6858,3.661,0.0,0.0,0.0,0.0,3.5554,3.5683,3.5973,3.5619,3.5604,3.5688,3.5688,3.5831,3.6037,0.0,0.0,0.0,0.0,0.0,0.0,0.0,1.9717,2.0313,2.1061,2.0884,2.0657,2.0567,2.0148,1.9685,1.9266,1.9479,0.0,0.0,0.0,0.0,0.0,0.0,0.0,0.0,0.0,1.8736,1.9069,1.9858,2.036,0.0,0.0,0.0,0.0,0.0,0.0,0.0,0.0,0.0,0.0,0.0,0.0,0.0,0.0,0.0,0.0,0.0,0.0,0.0,0.0,0.0,0.0,0.0,0.0,0.0,2.8375,2.972,0.0,3.2267,3.3002,3.353,3.3829,3.2453,3.0889,3.0162,0.0,2.6987,2.7174,2.6216,2.5712,2.6937,2.6759,2.6776,2.7786,2.869,0.0,0.0,0.0,0.0,0.0,0.0,0.0,0.0,0.0,0.0,0.0,0.0,0.0,0.0,3.827,3.7695,3.6906,3.6523,3.6289,3.6226,3.6656,3.6925,3.6975,3.751,3.7585,3.7329,3.7031,0.0,0.0,0.0,0.0,0.0,3.5638,3.5703,3.5752,3.5703,3.5638,3.5688,3.5688,3.5752,3.5755,0.0,0.0,0.0,0.0,0.0,0.0,0.0,1.9135,1.956,2.0298,2.0163,2.0055,2.0166,1.9785,1.9397,1.9167,1.9175,0.0,0.0,0.0,0.0,0.0,0.0,0.0,0.0,1.8448,1.8627,1.919,1.9704,2.0161,2.0579,2.172,2.1905,0.0,0.0,0.0,0.0,0.0,0.0,0.0,0.0,0.0,2.3117,0.0,0.0,0.0,0.0,0.0,0.0,0.0,0.0,0.0,0.0,0.0,0.0,0.0,2.783,2.877,0.0,3.1497,3.206,3.1794,3.092,0.0,0.0,0.0,2.6668,2.6889,2.6056,2.5575,2.6509,2.6214,2.6173,0.0,0.0,0.0,0.0,0.0,0.0,0.0,0.0,0.0,0.0,0.0,0.0,0.0,0.0,0.0,0.0,0.0,3.8327,3.7838,3.7282,3.7013,3.6937,3.708,3.7278,3.7558,3.7551,3.7422,3.7254,3.6975,0.0,0.0,0.0,0.0,0.0,3.5831,3.5831,3.5831,3.5831,3.5752,3.5688,3.5767,3.5752,3.5691,0.0,0.0,0.0,0.0,0.0,0.0,0.0,1.8869,1.903,1.9647,1.96,1.9513,1.9453,1.949,1.9202,1.8392,0.0,0.0,0.0,0.0,0.0,0.0,0.0,0.0,0.0,1.8506,1.8648,1.9292,1.9721,1.9941,2.0013,2.1568,2.144,1.9944,0.0,0.0,0.0,0.0,0.0,0.0,0.0,0.0,0.0,0.0,0.0,0.0,0.0,0.0,0.0,0.0,0.0,0.0,0.0,0.0,0.0,0.0,0.0,0.0,0.0,3.0508,0.0,0.0,0.0,0.0,0.0,0.0,0.0,2.6568,2.5806,2.5131,2.5485,2.5162,2.5227,0.0,0.0,0.0,0.0,0.0,0.0,0.0,0.0,0.0,0.0,0.0,0.0,0.0,0.0,0.0,0.0,0.0,3.9023,3.9023,3.8343,3.787,3.7648,3.7519,3.7657,3.8073,3.7324,3.711,3.7417,3.6816,0.0,0.0,0.0,0.0,0.0,3.6037,3.6037,3.6037,3.5973,3.5894,3.5752,3.5958,3.5864,3.5691,0.0,0.0,0.0,0.0,0.0,0.0,0.0,0.0,0.0,0.0,1.9895,1.9582,1.8949,1.9404,1.9131,0.0,0.0,0.0,0.0,0.0,0.0,0.0,0.0,0.0,0.0,1.8788,1.9175,2.02,2.0244,2.0739,2.1664,2.2141,2.2107,2.1597,2.1542,0.0,0.0,0.0,0.0,0.0,0.0,0.0,0.0,0.0,0.0,0.0,2.4393,2.4744,0.0,0.0,0.0,0.0,0.0,0.0,0.0,0.0,2.6181,2.6338,2.7031,0.0,2.7261,2.714,2.7065,2.679,0.0,0.0,0.0,0.0,0.0,2.4681,2.5063,2.4709,2.4753,0.0,0.0,0.0,0.0,0.0,0.0,0.0,0.0,0.0,0.0,0.0,0.0,0.0,0.0,0.0,0.0,0.0,3.9218,3.9218,3.904,3.8678,3.8141,3.787,3.7849,3.7934,3.7775,3.7658,3.7531,3.7389,0.0,0.0,0.0,0.0,3.6538,3.6538,3.6399,3.6148,3.6037,3.6022,3.607,3.6037,3.5655,3.5199,0.0,0.0,0.0,0.0,0.0,0.0,0.0,0.0,0.0,0.0,0.0,0.0,0.0,0.0,0.0,0.0,0.0,0.0,0.0,0.0,0.0,0.0,0.0,0.0,1.9104,1.8931,1.9345,2.0407,2.0257,2.0788,2.1978,2.2049,2.1836,2.1399,2.1302,0.0,0.0,0.0,0.0,0.0,0.0,0.0,0.0,0.0,0.0,0.0,2.5045,2.5004,0.0,2.603,2.6222,2.6056,0.0,0.0,0.0,0.0,2.5226,2.5226,2.5226,2.566,2.602,2.571,2.5732,2.56,2.4874,0.0,0.0,0.0,0.0,2.5046,2.524,0.0,0.0,0.0,0.0,0.0,0.0,0.0,0.0,0.0,0.0,0.0,0.0,0.0,0.0,0.0,0.0,0.0,0.0,0.0,3.9325,3.9395,3.9379,3.9202,3.8733,3.8623,3.8511,3.8399,3.8399,3.8214,3.7895,3.7895,3.7796,0.0,0.0,0.0,3.7103,3.7134,3.6937,3.66,3.6616,3.6322,3.5861,3.5922,3.5401,3.4653,0.0,0.0,0.0,0.0,0.0,0.0,0.0,0.0,0.0,0.0,0.0,0.0,0.0,0.0,0.0,0.0,0.0,0.0,0.0,0.0,0.0,0.0,0.0,1.8687,1.9119,1.9074,1.9471,2.0312,2.0264,2.0816,2.1829,2.1859,2.1427,2.0636,2.1225,2.1567,0.0,0.0,0.0,0.0,2.3878,0.0,0.0,0.0,0.0,0.0,0.0,0.0,0.0,2.5844,2.5753,2.5009,2.4968,0.0,0.0,0.0,0.0,0.0,2.4036,2.4938,2.5746,2.5034,2.4962,2.4864,2.4223,0.0,0.0,0.0,0.0,0.0,0.0,0.0,0.0,0.0,0.0,0.0,0.0,0.0,0.0,0.0,0.0,0.0,0.0,0.0,0.0,0.0,0.0,0.0,0.0,0.0,0.0,3.9501,3.9537,3.9484,3.9379,3.9379,3.9272,3.9131,3.9077,3.886,3.8495,3.8495,3.8343,0.0,0.0,0.0,3.778,3.7844,3.7594,3.7235,3.735,3.6644,3.5639,3.5798,3.5171,3.4248,0.0,0.0,0.0,0.0,0.0,0.0,0.0,0.0,0.0,0.0,0.0,0.0,0.0,0.0,0.0,0.0,0.0,0.0,0.0,0.0,0.0,0.0,1.8631,1.9302,1.9266,1.9524,1.9914,2.0384,2.1411,2.2103,2.2458,2.2648,2.2115,2.1036,2.1966,2.222,2.1936,0.0,0.0,0.0,0.0,0.0,0.0,0.0,0.0,0.0,0.0,0.0,0.0,2.5254,2.5351,2.5096,2.5218,0.0,0.0,0.0,0.0,0.0,2.4173,2.4337,2.4483,2.4353,2.4337,2.4339,2.434,0.0,0.0,0.0,0.0,0.0,0.0,0.0,0.0,0.0,0.0,0.0,0.0,0.0,0.0,0.0,0.0,0.0,0.0,0.0,0.0,0.0,0.0,0.0,0.0,0.0,0.0,3.952,3.9625,3.9677,3.9625,3.9625,3.9625,3.9573,3.9484,3.9379,3.9325,3.9325,3.9218,0.0,0.0,3.9023,3.8623,3.8639,3.8343,3.7863,3.7254,3.6853,3.6508,3.5935,3.5134,3.425,0.0,0.0,0.0,0.0,0.0,0.0,0.0,0.0,0.0,0.0,0.0,0.0,0.0,0.0,0.0,0.0,0.0,0.0,0.0,0.0,0.0,1.7202,1.8994,1.9884,1.9685,1.9773,2.0342,2.1317,2.1776,2.2314,2.296,2.2769,2.2096,2.1053,2.2112,2.2332,2.196,2.3119,0.0,0.0,0.0,0.0,0.0,0.0,0.0,0.0,0.0,0.0,0.0,0.0,2.513,2.4722,2.4622,0.0,0.0,0.0,0.0,0.0,2.4266,2.4303,2.4375,2.4376,2.4321,2.4321,0.0,0.0,0.0,0.0,0.0,0.0,0.0,0.0,0.0,0.0,0.0,0.0,0.0,0.0,0.0,0.0,0.0,0.0,0.0,0.0,0.0,0.0,0.0,0.0,0.0,0.0,0.0,0.0,3.9798,3.9833,3.9935,3.9935,3.9833,3.9677,3.9694,3.9694,3.959,3.959,3.9573,3.9537,0.0,3.9468,3.9292,3.9202,3.8776,3.815,3.7768,3.695,3.5905,3.5069,3.4206,3.3511,0.0,0.0,0.0,0.0,0.0,0.0,0.0,0.0,0.0,0.0,0.0,0.0,0.0,0.0,0.0,0.0,0.0,0.0,0.0,0.0,1.8336,1.7232,1.9254,2.0261,2.0009,2.0312,2.0993,2.2056,2.2261,2.2704,2.3358,2.298,2.2139,2.1026,2.2148,2.2408,2.2037,2.3261,2.3876,2.3978,0.0,0.0,0.0,0.0,0.0,0.0,0.0,0.0,0.0,0.0,0.0,0.0,0.0,0.0,0.0,2.4155,2.4229,2.4266,2.4321,2.4411,2.4498,2.4534,2.45,0.0,0.0,0.0,0.0,0.0,0.0,0.0,0.0,0.0,0.0,0.0,0.0,0.0,0.0,0.0,0.0,0.0,0.0,0.0,0.0,0.0,0.0,0.0,0.0,0.0,0.0,0.0,0.0,0.0,3.9446,3.948,3.9563,3.9563,3.9564,3.9529,3.9765,3.9664,3.9226,3.9578,3.9596,3.9261,3.9496,3.948,3.9362,3.921,3.8807,3.8204,3.7936,3.682,3.5251,3.4429,3.368,3.3097,0.0,0.0,0.0,0.0,0.0,0.0,0.0,0.0,0.0,0.0,0.0,0.0,0.0,0.0,0.0,0.0,0.0,0.0,0.0,0.0,1.8354,1.715,1.9217,2.0279,2.0007,2.1468,2.2122,2.1907,2.3588,2.4086,2.3499,2.3636,2.2803,2.1249,2.2297,2.2516,2.2144,2.3304,2.3917,2.4113,2.4392,0.0,0.0,0.0,0.0,0.0,0.0,0.0,0.0,0.0,0.0,0.0,0.0,0.0,2.3325,2.4063,2.4339,2.4394,2.4394,2.4464,2.4512,2.4582,2.4634,0.0,2.5551,2.5719,0.0,2.6656,0.0,0.0,0.0,0.0,0.0,0.0,0.0,0.0,0.0,0.0,0.0,0.0,0.0,0.0,0.0,0.0,0.0,0.0,0.0,0.0,0.0,0.0,0.0,0.0,0.0,3.8075,3.8075,3.8075,3.8396,3.9089,3.9615,3.9177,3.7898,3.9278,3.9177,3.7993,3.8865,3.886,3.8338,3.8291,3.821,3.795,3.7254,3.6337,3.5337,3.5055,3.4339,3.3557,0.0,0.0,0.0,0.0,0.0,0.0,0.0,0.0,0.0,0.0,0.0,0.0,0.0,0.0,0.0,0.0,0.0,0.0,0.0,0.0,1.8466,1.7227,1.9634,2.0807,2.0318,2.155,2.2694,2.3622,2.4075,2.4015,2.343,2.3161,2.2656,2.1919,2.2583,2.2853,2.2893,2.3666,2.4018,2.4135,2.4373,2.4258,0.0,0.0,0.0,0.0,0.0,0.0,0.0,0.0,2.2316,2.2244,2.3349,2.3078,2.2528,2.3359,2.3563,2.3435,2.3006,2.3683,2.44,2.3964,2.4304,0.0,0.0,2.5899,2.5923,0.0,0.0,0.0,0.0,0.0,0.0,0.0,0.0,0.0,0.0,0.0,0.0,0.0,0.0,0.0,0.0,0.0,0.0,0.0,0.0,0.0,0.0,0.0,0.0,0.0,0.0,3.8044,3.7933,3.7933,3.7628,3.7017,3.8111,3.8381,3.7919,3.8461,3.8458,3.8091,3.8427,3.844,3.8179,3.7718,3.7229,3.6689,3.5888,3.5368,3.505,3.543,3.4678,3.356,0.0,0.0,0.0,0.0,0.0,0.0,0.0,0.0,0.0,0.0,0.0,0.0,0.0,0.0,0.0,0.0,0.0,0.0,0.0,1.7704,1.8556,1.7312,1.9764,2.0952,2.0555,2.154,2.2815,2.43,2.4163,2.361,2.2699,2.2606,2.2184,2.1566,2.2453,2.2895,2.3033,2.3744,2.4057,2.4154,2.4374,2.4077,0.0,0.0,0.0,0.0,0.0,0.0,0.0,0.0,2.1553,2.1531,2.2576,2.246,2.2043,2.2634,2.2916,2.2973,2.2488,2.3236,2.4081,2.3833,0.0,0.0,2.6099,2.631,2.6316,0.0,0.0,0.0,0.0,0.0,0.0,0.0,0.0,0.0,0.0,0.0,0.0,0.0,0.0,0.0,0.0,0.0,0.0,0.0,0.0,0.0,0.0,0.0,0.0,0.0,3.7296,3.7257,3.6973,3.6973,3.6344,3.5163,3.6112,3.6724,3.6973,3.7495,3.7553,3.7278,3.7501,3.7511,3.7308,3.6543,3.5967,3.5469,3.5184,3.4868,3.4741,3.5503,3.4709,3.3308,0.0,0.0,0.0,0.0,0.0,0.0,0.0,0.0,0.0,0.0,0.0,0.0,0.0,0.0,0.0,0.0,0.0,0.0,1.5589,1.7723,1.8581,1.7453,1.9444,2.0629,2.0686,2.1541,2.2443,2.3377,2.3797,2.3012,2.123,2.2102,2.1532,1.9916,2.1902,2.2639,2.2386,2.3449,2.4018,2.421,2.4339,2.3362,2.1896,0.0,0.0,0.0,0.0,0.0,0.0,0.0,2.0371,1.9976,2.16,2.2046,2.198,2.1916,2.2508,2.3172,2.3101,2.3236,2.3587,0.0,0.0,0.0,2.6723,2.7099,2.727,0.0,0.0,0.0,0.0,0.0,0.0,0.0,0.0,0.0,0.0,0.0,0.0,0.0,0.0,0.0,0.0,0.0,0.0,0.0,0.0,0.0,0.0,0.0,0.0,0.0,3.5622,3.5328,3.4703,3.4686,3.438,3.3704,3.3704,3.4072,3.4772,3.6358,3.637,3.5225,3.5949,3.597,3.5449,3.4735,3.446,3.4571,3.5325,3.5074,3.4401,3.5266,3.4453,3.2942,0.0,0.0,0.0,0.0,0.0,0.0,0.0,0.0,0.0,0.0,0.0,0.0,0.0,0.0,0.0,0.0,0.0,0.0,1.6438,1.7533,1.8062,1.7639,1.9075,1.9991,2.0209,2.0696,2.1687,2.3202,2.2789,2.2431,2.2118,2.1794,2.1568,2.1457,2.234,2.2835,2.3056,2.3684,2.4056,2.4209,2.4303,2.3934,2.325,0.0,0.0,0.0,0.0,0.0,0.0,0.0,0.0,0.0,2.1648,2.1693,2.1254,2.181,2.2115,2.2157,2.1628,2.2378,0.0,0.0,0.0,0.0,0.0,2.667,0.0,0.0,0.0,0.0,0.0,0.0,0.0,0.0,0.0,0.0,0.0,0.0,0.0,0.0,0.0,0.0,0.0,0.0,0.0,0.0,0.0,0.0,0.0,0.0,0.0,0.0,3.58,3.5742,3.5494,3.5581,3.4959,3.3704,3.3848,3.4026,3.4209,3.4648,3.4794,3.4697,3.4849,3.5188,3.5679,3.5583,3.5273,3.487,3.5118,3.5029,3.4763,3.51,3.4499,3.3459,0.0,0.0,0.0,0.0,0.0,0.0,0.0,0.0,0.0,0.0,0.0,0.0,0.0,0.0,0.0,0.0,0.0,0.0,0.0,0.0,1.7888,1.7772,1.877,1.9522,1.9956,2.0033,2.0622,2.1746,2.1277,2.107,2.1098,2.0891,2.0874,2.1072,2.2192,2.2883,2.3218,2.3685,2.3935,2.4036,2.4095,2.3633,2.2856,0.0,0.0,0.0,0.0,0.0,0.0,0.0,0.0,0.0,2.0894,2.1031,2.0871,2.1005,2.1254,2.1476,2.1351,0.0,0.0,0.0,0.0,0.0,0.0,0.0,0.0,0.0,0.0,0.0,0.0,0.0,0.0,0.0,0.0,0.0,0.0,0.0,0.0,0.0,0.0,0.0,0.0,0.0,0.0,0.0,0.0,0.0,0.0,0.0,0.0,0.0,3.4959,3.5062,3.5062,3.4797,3.4223,3.3357,3.2913,3.2697,3.2752,3.3394,3.3824,3.4104,3.4142,3.4339,3.4694,3.5438,3.5154,3.4264,3.4989,3.4813,3.4211,3.4617,3.4387,3.3839,0.0,0.0,0.0,0.0,0.0,0.0,0.0,0.0,0.0,0.0,0.0,0.0,0.0,0.0,0.0,0.0,0.0,0.0,0.0,0.0,1.793,1.779,1.8483,1.9191,1.9847,1.9507,1.9452,1.9655,1.9621,1.9432,1.9158,1.9739,1.9884,1.9718,2.1778,2.2798,2.3038,2.3486,2.3725,2.3774,2.3795,2.288,2.1568,2.2249,0.0,0.0,0.0,0.0,0.0,0.0,0.0,0.0,1.9812,2.0321,2.0742,1.9959,2.0285,2.1069,2.1886,0.0,0.0,0.0,0.0,0.0,0.0,0.0,0.0,0.0,0.0,0.0,0.0,0.0,0.0,0.0,0.0,0.0,0.0,0.0,0.0,0.0,0.0,0.0,0.0,0.0,0.0,0.0,0.0,0.0,0.0,0.0,0.0,0.0,3.3656,3.368,3.3757,3.306,3.2689,0.0,3.1384,3.0784,3.0768,3.237,3.3211,3.3459,3.3791,3.3586,3.313,3.4766,3.4566,3.34,3.486,3.4487,3.3239,3.3962,3.4195,3.4056,0.0,0.0,0.0,0.0,0.0,0.0,0.0,0.0,0.0,0.0,0.0,0.0,0.0,0.0,0.0,0.0,0.0,0.0,0.0,0.0,1.7694,1.7,1.8101,1.9001,1.9578,1.9155,1.91,1.9458,1.9465,1.9679,2.0105,2.0146,2.0554,2.1317,2.2112,2.2669,2.301,2.3407,2.3589,2.366,2.371,2.3448,2.2994,2.2677,2.1788,0.0,0.0,0.0,0.0,0.0,0.0,0.0,2.0448,2.0732,2.0788,2.0667,2.0709,2.1022,0.0,2.2229,0.0,0.0,0.0,0.0,0.0,0.0,0.0,0.0,0.0,0.0,0.0,0.0,0.0,0.0,0.0,0.0,0.0,0.0,0.0,0.0,0.0,0.0,0.0,0.0,0.0,0.0,0.0,0.0,0.0,0.0,0.0,3.3704,3.3796,3.3481,3.2821,3.3379,3.275,0.0,3.1528,3.1185,3.0121,3.0993,3.1916,3.2855,3.3761,3.4071,3.406,3.5191,3.5485,3.524,3.5042,3.4715,3.4262,3.3839,3.3687,3.368,0.0,0.0,0.0,0.0,0.0,0.0,0.0,0.0,0.0,0.0,0.0,0.0,0.0,0.0,0.0,0.0,0.0,0.0,0.0,0.0,0.0,1.7898,1.8513,1.9112,1.9692,1.9332,1.9286,1.9603,1.9522,1.9689,2.0012,1.9495,1.9943,2.1238,2.1739,2.2306,2.2893,2.3217,2.3383,2.3412,2.344,2.3204,2.2838,2.294,2.2246,2.1167,2.088,0.0,0.0,0.0,0.0,0.0,0.0,0.0,2.0238,2.0271,2.0569,2.1017,0.0,0.0,0.0,0.0,0.0,0.0,0.0,0.0,0.0,0.0,0.0,0.0,0.0,0.0,0.0,0.0,0.0,0.0,0.0,0.0,0.0,0.0,0.0,0.0,0.0,0.0,0.0,0.0,0.0,0.0,0.0,3.2042,3.2049,3.2314,3.2376,3.2204,3.174,3.2231,3.1834,3.066,3.0543,3.0167,2.9616,3.0762,3.165,3.2367,3.3391,3.3857,3.4003,3.4921,3.5072,3.4768,3.4447,3.4073,3.3651,3.3313,3.3466,3.377,0.0,0.0,0.0,0.0,0.0,0.0,0.0,0.0,0.0,0.0,0.0,0.0,0.0,0.0,0.0,0.0,0.0,0.0,0.0,0.0,0.0,1.9161,1.894,1.9162,1.9926,1.968,1.969,1.9956,1.9615,0.0,0.0,0.0,1.9443,2.087,2.1436,2.2014,2.26,2.3017,2.3034,2.2811,2.2952,2.2635,2.2187,2.2949,2.2375,2.1225,2.137,2.0926,2.0195,1.9601,0.0,0.0,0.0,0.0,1.9629,1.9629,2.0252,2.0982,0.0,0.0,0.0,0.0,0.0,0.0,0.0,0.0,0.0,0.0,0.0,0.0,0.0,0.0,0.0,0.0,0.0,0.0,0.0,0.0,0.0,0.0,0.0,0.0,0.0,0.0,0.0,0.0,0.0,0.0,3.0455,3.0063,3.0055,3.0646,3.0664,3.0595,3.049,3.0612,3.056,3.0332,2.9187,2.88,2.9155,3.0707,3.1547,3.1863,3.2676,3.3063,3.3184,3.3943,3.3872,3.3304,3.3419,3.3084,3.2488,3.2678,3.3133,3.3709,0.0,0.0,0.0,0.0,0.0,0.0,0.0,0.0,0.0,0.0,0.0,0.0,0.0,0.0,0.0,0.0,0.0,0.0,1.7843,0.0,0.0,1.9136,1.8398,1.8649,2.0134,1.9895,2.0026,2.0585,0.0,0.0,0.0,0.0,0.0,2.1916,0.0,2.2229,2.2059,2.2797,2.2377,2.1269,2.197,2.22,2.2134,2.2428,2.2016,2.1285,2.1442,2.062,1.9452,1.9416,1.9523,0.0,0.0,0.0,0.0,1.9692,2.0229,2.0834,0.0,0.0,0.0,0.0,0.0,0.0,0.0,0.0,0.0,0.0,0.0,0.0,0.0,0.0,0.0,0.0,0.0,0.0,0.0,0.0,0.0,0.0,0.0,0.0,0.0,0.0,0.0,0.0,0.0,0.0,3.0099,2.9967,2.9932,3.0009,3.0079,2.9717,2.8923,2.9715,2.9446,2.8127,2.8284,2.847,2.8724,2.9759,3.0522,3.1062,3.1347,3.1571,3.1701,3.1875,3.1985,3.2034,3.2125,3.2091,3.1998,3.2002,3.2166,3.2364,0.0,0.0,0.0,0.0,0.0,0.0,0.0,0.0,0.0,0.0,0.0,0.0,0.0,0.0,0.0,1.9668,1.9265,1.8866,1.8556,1.7355,1.7621,1.9823,1.9028,1.9076,2.0237,2.0075,2.0445,2.1425,0.0,0.0,0.0,2.2117,2.2004,0.0,0.0,0.0,0.0,2.278,2.2601,2.2066,2.2042,2.2094,2.2131,2.1882,2.163,2.1349,2.0916,0.0,0.0,0.0,0.0,1.9587,1.9582,0.0,0.0,0.0,0.0,0.0,0.0,0.0,0.0,0.0,0.0,0.0,0.0,0.0,0.0,0.0,0.0,0.0,0.0,0.0,0.0,0.0,0.0,0.0,0.0,0.0,0.0,0.0,0.0,0.0,0.0,0.0,0.0,0.0,0.0,2.9151,2.9509,2.9148,2.9124,2.9559,2.9609,2.9266,2.8441,2.9284,2.9205,2.8219,2.8489,2.8688,2.885,2.9406,2.994,3.043,3.1137,3.1439,3.147,3.1649,3.179,3.1824,3.1542,3.1469,3.1469,3.1614,3.1682,3.1792,0.0,0.0,0.0,0.0,0.0,0.0,0.0,0.0,0.0,0.0,0.0,0.0,0.0,0.0,0.0,0.0,1.9542,1.9259,1.9118,1.7959,1.8123,2.0085,1.9507,1.9494,2.0305,2.0188,2.0774,0.0,0.0,0.0,2.3264,2.2807,2.2435,0.0,2.1856,2.2022,0.0,0.0,0.0,0.0,2.1914,2.1776,2.1839,2.1223,2.1183,2.1351,2.0536,0.0,0.0,0.0,0.0,0.0,0.0,0.0,0.0,0.0,0.0,0.0,0.0,0.0,0.0,0.0,0.0,0.0,0.0,0.0,0.0,0.0,0.0,0.0,0.0,0.0,0.0,0.0,0.0,0.0,0.0,0.0,0.0,0.0,0.0,0.0,0.0,0.0,0.0,0.0,0.0,2.8613,2.9098,2.8611,2.8576,2.914,2.9206,2.8963,2.8407,2.9043,2.9145,2.8755,2.8952,2.9107,2.9191,2.9418,2.9675,2.9982,3.0783,3.1129,3.1114,3.1327,3.1448,3.1412,3.1037,3.0906,3.0921,3.1125,3.1161,3.1238,0.0,0.0,0.0,0.0,0.0,0.0,0.0,0.0,0.0,0.0,0.0,0.0,2.0118,2.02,1.9908,1.9141,1.9783,1.9913,1.9156,1.909,1.9124,1.9251,1.9216,0.0,2.0385,2.0257,0.0,0.0,0.0,0.0,2.3746,2.2576,2.2244,2.2659,2.2651,2.2366,2.1978,0.0,0.0,0.0,0.0,2.1,2.0997,0.0,0.0,0.0,0.0,0.0,0.0,0.0,0.0,0.0,0.0,0.0,0.0,0.0,0.0,0.0,0.0,0.0,0.0,0.0,0.0,0.0,0.0,0.0,0.0,0.0,0.0,0.0,0.0,0.0,0.0,0.0,0.0,0.0,0.0,0.0,0.0,0.0,0.0,0.0,0.0,0.0,0.0,0.0,0.0,2.9013,2.8919,2.8766,2.868,2.8737,2.8737,2.8728,2.8665,2.89,2.9079,2.9166,2.9378,2.9551,2.9662,2.9727,2.9794,2.9817,2.9808,2.988,2.9978,3.0079,3.017,3.0303,3.0343,3.0337,3.0337,3.0369,3.0412,3.0463,0.0,0.0,0.0,0.0,0.0,0.0,0.0,0.0,0.0,0.0,0.0,0.0,0.0,2.0208,2.0134,1.9853,1.9643,1.9426,1.9181,1.9148,1.9394,2.0016,2.0038,2.0163,2.046,2.0371,0.0,0.0,0.0,2.1999,2.3886,2.2733,2.2418,2.2816,2.2605,2.2468,2.2367,2.2695,0.0,0.0,0.0,0.0,0.0,0.0,0.0,0.0,0.0,0.0,0.0,0.0,0.0,0.0,0.0,0.0,0.0,0.0,0.0,0.0,0.0,0.0,0.0,0.0,0.0,0.0,0.0,0.0,0.0,0.0,0.0,0.0,0.0,0.0,0.0,0.0,0.0,0.0,0.0,0.0,0.0,0.0,0.0,0.0,0.0,0.0,0.0,0.0,0.0,0.0,2.9287,2.8706,2.8376,2.8375,2.7889,2.7635,2.7664,2.8895,2.9268,2.8813,2.9596,2.9969,3.0018,3.0131,3.0196,3.0183,3.0209,3.0117,2.9977,3.0122,3.0216,3.0278,3.0378,3.0441,3.0481,3.0501,3.0521,3.052,0.0,0.0,0.0,0.0,0.0,0.0,0.0,0.0,0.0,0.0,0.0,0.0,0.0,0.0,2.0254,2.0327,1.9851,1.9558,1.9633,1.9594,1.9858,2.0477,2.05,2.0507,2.0492,0.0,0.0,0.0,0.0,0.0,0.0,2.2777,2.2607,2.302,2.2605,2.2515,0.0,0.0,0.0,2.295,0.0,0.0,2.2275,0.0,0.0,0.0,0.0,0.0,0.0,0.0,0.0,0.0,0.0,0.0,0.0,0.0,0.0,0.0,0.0,0.0,0.0,0.0,0.0,0.0,0.0,0.0,0.0,0.0,0.0,0.0,0.0,0.0,0.0,0.0,0.0,0.0,0.0,0.0,0.0,0.0,0.0,0.0,0.0,0.0,0.0,0.0,0.0,0.0,2.8876,2.8291,2.8087,2.8371,2.7843,2.7605,2.7674,2.8605,2.8831,2.8341,2.9378,2.9871,2.9879,3.0307,3.0492,3.051,3.0557,3.0423,3.0209,3.0344,3.0411,3.0443,3.0539,3.0593,3.0629,3.0629,3.0637,3.0684,0.0,0.0,0.0,0.0,0.0,0.0,0.0,0.0,0.0,0.0,0.0,0.0,0.0,0.0,0.0,2.0369,2.039,2.043,2.0467,2.0484,2.0499,2.05,2.0492,2.0508,2.0501,0.0,0.0,0.0,0.0,0.0,0.0,0.0,2.2718,2.3218,2.2712,2.2544,2.2677,0.0,2.2944,2.295,0.0,2.2189,2.2167,0.0,0.0,0.0,2.182,2.2058,0.0,0.0,0.0,0.0,0.0,0.0,0.0,0.0,0.0,0.0,0.0,0.0,0.0,0.0,0.0,0.0,0.0,0.0,0.0,0.0,0.0,0.0,0.0,0.0,0.0,0.0,0.0,0.0,0.0,0.0,0.0,0.0,0.0,0.0,0.0,0.0,0.0,0.0,0.0,2.8681,2.7697,2.7555,2.7823,2.8585,2.8634,2.8652,2.8698,2.7972,2.7661,2.7777,2.8724,2.9184,2.9235,3.0222,3.0691,3.0697,3.071,3.0665,3.061,3.0593,3.0645,3.0697,3.0695,3.0703,3.0697,3.0707,3.0695,3.0814,0.0,0.0,0.0,0.0,0.0,0.0,0.0,0.0,0.0,0.0,0.0,0.0,0.0,2.0684,2.0134,1.9513,2.0075,2.0212,1.9604,2.0156,2.0522,2.0566,2.0573,2.0561,2.0566,0.0,0.0,0.0,0.0,0.0,0.0,0.0,0.0,0.0,2.1949,2.2098,2.2157,2.2625,0.0,0.0,2.3111,2.3155,0.0,0.0,0.0,0.0,0.0,2.2962,0.0,0.0,2.2081,2.1585,0.0,0.0,0.0,0.0,0.0,0.0,2.1261,0.0,0.0,0.0,0.0,0.0,0.0,0.0,0.0,0.0,0.0,0.0,0.0,0.0,0.0,0.0,0.0,0.0,0.0,0.0,0.0,0.0,0.0,0.0,0.0,0.0,0.0,0.0,2.9562,2.9117,2.8849,2.7613,2.6725,2.6327,2.6929,2.6972,2.6351,2.743,2.7686,2.7152,2.8048,2.8807,2.9424,2.9708,3.0169,3.0761,3.0767,3.0753,3.0742,3.0691,3.0671,3.0701,3.075,3.0763,3.0774,3.0771,3.0771,3.0813,0.0,0.0,0.0,0.0,0.0,0.0,0.0,0.0,0.0,0.0,0.0,0.0,0.0,0.0,2.0598,1.9769,2.0177,2.0302,1.9812,2.0258,2.0555,2.0593,2.0599,2.0602,2.0604,0.0,0.0,0.0,0.0,0.0,0.0,0.0,0.0,0.0,0.0,0.0,0.0,0.0,0.0,0.0,2.3471,0.0,0.0,2.3826,2.3988,0.0,0.0,0.0,2.3161,2.3146,2.2756,0.0,0.0,0.0,0.0,0.0,0.0,0.0,0.0,0.0,0.0,0.0,0.0,0.0,0.0,2.3859,0.0,0.0,0.0,0.0,0.0,0.0,0.0,0.0,0.0,0.0,0.0,0.0,0.0,0.0,0.0,0.0,0.0,0.0,0.0,3.0146,2.9666,2.9069,2.8349,2.7682,2.6934,2.6042,2.6517,2.6544,2.6036,2.6712,2.685,2.6413,2.7641,2.8513,2.9026,2.9741,3.0353,3.0808,3.0825,3.084,3.0833,3.0768,3.0732,3.0743,3.0784,3.081,3.0795,3.0796,3.0796,3.0855,0.0,0.0,0.0,2.1558,2.1662,2.192,2.2767,0.0,0.0,0.0,2.297,2.2655,0.0,0.0,0.0,2.0711,2.0567,2.0543,2.0596,2.059,2.059,2.0596,2.0585,2.0586,2.0585,0.0,0.0,0.0,0.0,0.0,0.0,0.0,0.0,0.0,0.0,0.0,0.0,0.0,0.0,2.3412,2.3562,2.4123,0.0,0.0,2.436,0.0,2.4172,2.3862,2.3795,2.3795,2.3488,0.0,0.0,0.0,0.0,0.0,2.1152,0.0,0.0,0.0,0.0,0.0,0.0,0.0,2.1743,2.281,2.3725,0.0,0.0,0.0,0.0,0.0,0.0,0.0,0.0,0.0,0.0,0.0,0.0,0.0,0.0,0.0,0.0,3.0793,3.0456,2.9656,2.9344,2.8504,2.6854,2.75,2.7573,2.6786,2.6768,2.6758,2.6778,2.5991,2.5633,2.5711,2.7265,2.8065,2.8211,2.9867,3.0623,3.0671,3.0831,3.0898,3.0879,3.0816,3.0797,3.0801,3.0801,3.0801,3.08,3.0797,3.0798,3.0916,0.0,0.0,0.0,2.1557,2.174,2.2017,2.2792,0.0,0.0,0.0,0.0,0.0,0.0,0.0,0.0,2.1555,2.095,2.0596,2.0605,2.0546,2.0546,2.0605,2.0546,2.0516,2.0516,2.1083,0.0,0.0,0.0,0.0,0.0,0.0,0.0,0.0,0.0,0.0,0.0,0.0,0.0,2.4018,2.3828,0.0,2.5012,2.4735,2.4775,2.4976,2.4694,2.4244,2.3807,0.0,2.3411,2.2959,0.0,0.0,0.0,0.0,0.0,0.0,0.0,0.0,0.0,0.0,0.0,0.0,2.1538,2.2265,2.3101,0.0,0.0,0.0,0.0,0.0,0.0,0.0,0.0,0.0,0.0,0.0,0.0,0.0,0.0,0.0,0.0,3.0792,3.0448,2.9587,2.8201,2.697,2.5993,2.6093,2.6109,2.5932,2.5937,2.5924,2.5938,2.5775,2.5683,2.5703,2.6035,2.6562,2.7285,2.8336,2.9176,2.9861,3.0586,3.0878,3.0825,3.0817,3.0807,3.0793,3.0796,3.0791,3.0794,3.0791,3.0791,3.081,0.0,0.0,0.0,0.0,2.2372,2.2819,2.407,0.0,0.0,0.0,0.0,0.0,0.0,0.0,0.0,0.0,2.2078,2.1679,0.0,0.0,2.1024,2.0612,2.0551,2.0492,2.0504,2.1198,2.1652,0.0,0.0,0.0,0.0,0.0,0.0,0.0,0.0,0.0,0.0,0.0,2.3122,2.4358,2.4454,0.0,2.5627,2.5502,2.5721,2.6025,2.553,2.489,2.4257,2.3898,2.3644,0.0,0.0,2.2998,2.2077,0.0,2.1136,2.0516,0.0,0.0,0.0,2.0199,0.0,0.0,0.0,2.1147,2.2171,0.0,0.0,0.0,0.0,0.0,0.0,0.0,0.0,0.0,0.0,0.0,0.0,0.0,0.0,0.0,0.0,3.0792,3.0611,3.0189,2.8938,2.7833,2.6986,2.6522,2.6097,2.5652,2.5682,2.5703,2.5699,2.5703,2.5703,2.5703,2.6133,2.679,2.7631,2.8533,2.9408,3.0215,3.0661,3.0825,3.0794,3.0799,3.0808,3.0798,3.0769,3.074,3.0745,3.0793,3.0798,3.0802,2.051,0.0,0.0,0.0,2.3022,2.3597,2.5344,2.5604,0.0,0.0,0.0,0.0,0.0,0.0,0.0,0.0,0.0,0.0,0.0,0.0,0.0,0.0,2.076,2.0644,2.0454,2.1255,2.1914,2.2329,0.0,0.0,0.0,0.0,0.0,0.0,0.0,0.0,0.0,0.0,0.0,2.4588,0.0,2.5768,2.622,2.6126,2.6552,2.7068,2.604,2.5285,2.4705,2.3977,0.0,2.3996,2.419,2.3471,0.0,0.0,0.0,0.0,0.0,0.0,0.0,0.0,0.0,1.9888,0.0,0.0,0.0,2.1347,0.0,0.0,0.0,0.0,0.0,0.0,0.0,0.0,0.0,0.0,0.0,0.0,0.0,0.0,0.0,3.0131,3.0033,3.0044,2.9244,2.8442,2.7745,2.7028,2.6338,2.5617,2.5648,2.5687,2.5697,2.5697,2.5699,2.5703,2.6405,2.7178,2.8003,2.8932,2.9783,3.0564,3.0726,3.0801,3.0808,3.0803,3.0803,3.0789,3.0728,3.0703,3.0703,3.0759,3.0789,3.0799,2.0507,2.0505,0.0,0.0,2.3091,2.3667,2.534,2.5652,0.0,0.0,0.0,0.0,0.0,0.0,0.0,0.0,0.0,0.0,2.2963,0.0,0.0,0.0,0.0,0.0,2.0244,2.1645,2.2293,2.2135,0.0,0.0,0.0,0.0,0.0,0.0,1.8531,0.0,0.0,0.0,2.2391,0.0,2.5886,2.6362,0.0,2.6092,2.6512,2.6982,2.5421,2.4831,2.4658,0.0,2.366,2.3855,0.0,2.4081,0.0,0.0,0.0,0.0,0.0,0.0,0.0,0.0,1.9969,0.0,0.0,0.0,2.0382,2.1158,0.0,2.1823,2.2779,0.0,0.0,0.0,0.0,0.0,0.0,0.0,0.0,0.0,0.0,0.0,0.0,0.0,2.7273,2.7337,2.6543,2.6001,2.5906,2.58,2.5693,2.56,2.5617,2.5639,2.5696,2.5696,2.5701,2.5691,2.58,2.6302,2.7167,2.8051,2.8895,2.9682,3.0462,3.0794,3.0794,3.0802,3.0798,3.0793,3.0739,3.0703,3.0703,3.0703,3.0739,3.0799,2.0498,2.0508,0.0,0.0,2.3101,2.3676,2.5398,2.569,0.0,0.0,0.0,0.0,0.0,0.0,0.0,0.0,0.0,0.0,0.0,0.0,0.0,0.0,0.0,0.0,0.0,2.2034,2.2421,2.2627,2.3361,0.0,0.0,0.0,0.0,0.0,1.8653,0.0,2.1941,0.0,0.0,0.0,0.0,0.0,0.0,2.7139,2.7277,2.6985,2.629,2.5486,2.4706,0.0,2.4028,0.0,0.0,0.0,0.0,0.0,0.0,0.0,0.0,0.0,0.0,0.0,0.0,0.0,0.0,0.0,2.0207,0.0,0.0,0.0,0.0,0.0,0.0,0.0,0.0,0.0,0.0,0.0,0.0,0.0,0.0,0.0,0.0,0.0,0.0,0.0,0.0,2.6241,2.6243,2.5803,2.5544,2.5546,2.5586,2.5628,2.5694,2.5701,2.5707,2.5693,2.5698,2.6149,2.6977,2.7834,2.87,2.9547,3.0419,3.0808,3.0804,3.076,3.0735,3.0745,3.0709,3.0728,3.0759,3.0764,3.0789,3.0872,2.0865,0.0,0.0,0.0,0.0,0.0,2.5466,2.5707,0.0,0.0,0.0,0.0,2.57,2.5694,0.0,0.0,0.0,2.5405,0.0,0.0,2.4241,0.0,0.0,0.0,0.0,0.0,0.0,2.2941,2.3436,0.0,0.0,0.0,0.0,0.0,0.0,1.9714,2.1955,0.0,0.0,2.5084,2.5781,2.6463,2.7146,2.8034,2.7942,2.729,2.6835,2.5961,2.4944,2.4587,2.4118,0.0,2.3642,0.0,0.0,0.0,0.0,0.0,1.995,0.0,0.0,0.0,0.0,0.0,0.0,0.0,0.0,0.0,0.0,0.0,0.0,0.0,2.136,0.0,0.0,0.0,0.0,0.0,0.0,0.0,0.0,0.0,0.0,0.0,0.0,0.0,0.0,0.0,2.6316,2.5754,2.5461,2.546,2.5525,2.5574,2.5649,2.5643,2.566,2.5668,2.5662,2.6096,2.6923,2.78,2.8676,2.9516,3.0389,3.0784,3.0798,3.0734,3.0714,3.0734,3.0739,3.0764,3.0808,3.0769,3.0769,3.0886,2.1753,2.1763,0.0,0.0,0.0,0.0,0.0,0.0,0.0,0.0,0.0,0.0,0.0,0.0,0.0,0.0,0.0,2.558,2.5565,0.0,2.5079,0.0,0.0,0.0,0.0,0.0,0.0,0.0,0.0,0.0,0.0,0.0,0.0,0.0,0.0,2.0116,2.1957,2.2757,2.4186,2.5967,2.7218,2.8017,2.8438,0.0,2.8282,2.804,2.6435,0.0,0.0,2.4127,2.3674,0.0,0.0,0.0,0.0,0.0,0.0,0.0,0.0,0.0,0.0,1.9596,0.0,0.0,0.0,0.0,2.0031,0.0,0.0,0.0,0.0,0.0,2.054,2.0531,0.0,0.0,0.0,0.0,0.0,0.0,0.0,0.0,0.0,0.0,0.0,0.0,0.0,0.0,2.534,2.5321,2.5339,2.5393,2.5401,2.5434,2.5517,2.5512,2.5535,2.56,2.5595,2.6065,2.6928,2.7793,2.8635,2.946,3.0328,3.0736,3.0784,3.0728,3.0739,3.0799,3.0793,3.0793,3.0799,3.0734,3.0739,3.0799,0.0,0.0,0.0,0.0,0.0,0.0,0.0,2.5701,0.0,0.0,0.0,0.0,0.0,0.0,2.7045,0.0,0.0,2.7239,2.72,2.6633,0.0,0.0,0.0,2.362,0.0,0.0,0.0,0.0,0.0,0.0,0.0,0.0,0.0,0.0,0.0,2.1243,0.0,0.0,0.0,0.0,0.0,2.8003,2.8057,0.0,0.0,2.6708,2.6621,2.5629,0.0,2.4387,2.414,2.3798,2.3562,2.3429,2.3107,2.1748,2.126,0.0,0.0,0.0,1.9592,1.9601,0.0,0.0,0.0,0.0,0.0,0.0,0.0,0.0,0.0,0.0,2.0501,2.05,0.0,0.0,0.0,0.0,0.0,0.0,0.0,0.0,0.0,0.0,0.0,0.0,0.0,0.0,0.0,2.5224,2.5234,2.5274,2.5284,2.5322,2.5426,2.5393,2.5426,2.5531,2.5538,2.5699,2.5997,2.687,2.742,2.7763,2.9159,2.978,2.9848,3.035,3.0583,3.0618,3.0698,3.073,3.073,3.075,3.075,3.0812,2.343,0.0,0.0,0.0,0.0,0.0,0.0,0.0,0.0,0.0,2.687,0.0,2.6539,0.0,2.7865,0.0,2.7768,2.8082,2.8006,2.7449,0.0,2.6472,2.5152,0.0,0.0,0.0,0.0,0.0,0.0,2.3435,0.0,0.0,0.0,0.0,0.0,0.0,0.0,0.0,2.4572,0.0,0.0,2.7543,0.0,0.0,2.736,2.6896,0.0,2.5775,2.4509,2.4522,2.4269,2.3866,2.3282,2.327,2.3125,2.142,2.1025,2.0899,1.9833,1.9578,0.0,1.9641,1.9695,0.0,1.9915,0.0,0.0,0.0,0.0,0.0,0.0,0.0,0.0,2.0097,2.0049,0.0,0.0,1.9939,0.0,0.0,0.0,0.0,0.0,0.0,0.0,0.0,0.0,0.0,0.0,0.0,2.5099,2.5088,2.5145,2.519,2.5264,2.5264,2.5303,2.5359,2.5382,2.5542,2.5836,2.6447,2.705,2.7639,2.8756,2.9388,2.9726,3.025,3.0463,3.0482,3.0593,3.0626,3.0642,3.0722,3.0728,3.075,0.0,0.0,0.0,0.0,2.5133,0.0,0.0,0.0,2.6938,0.0,2.7766,2.8221,2.8112,2.8171,2.8175,2.8062,2.8163,0.0,2.8125,2.801,0.0,0.0,2.6135,2.5397,2.422,0.0,0.0,0.0,0.0,0.0,0.0,0.0,0.0,0.0,2.2714,0.0,2.3325,2.5744,2.6484,2.6066,2.6748,2.6888,2.6675,2.6538,2.7396,2.8446,2.6752,2.6131,2.5882,2.4465,2.4054,2.3839,2.2336,2.2958,2.362,2.0468,2.0665,2.1578,2.0028,1.967,1.975,1.9732,0.0,0.0,0.0,0.0,2.0299,0.0,0.0,0.0,0.0,0.0,0.0,0.0,1.9216,0.0,0.0,0.0,0.0,0.0,0.0,0.0,0.0,0.0,0.0,0.0,0.0,0.0,0.0,0.0,2.4842,2.4888,2.5,2.5044,2.4981,2.5099,2.5134,2.5072,2.5152,2.5589,2.6388,2.6516,2.7431,2.8867,2.8975,2.9486,3.0257,3.0306,3.0344,3.0409,3.0471,3.0511,3.053,3.0642,3.0649,3.0614,2.502,2.5236,2.5379,0.0,2.5438,2.5862,0.0,0.0,0.0,0.0,2.8592,2.8824,2.809,2.9135,2.9612,2.8946,2.9497,0.0,0.0,0.0,0.0,2.7899,2.6994,2.621,2.5588,2.4838,0.0,2.3897,0.0,0.0,2.3186,0.0,0.0,0.0,0.0,0.0,2.4099,2.4761,2.5422,2.616,2.811,2.8499,0.0,0.0,2.7877,2.7941,2.6004,2.4976,2.446,2.4162,2.4114,2.3988,2.3015,2.3014,2.2992,2.088,2.1071,2.164,2.0034,2.0092,2.0464,1.9981,1.9919,1.9998,0.0,0.0,0.0,0.0,0.0,0.0,0.0,0.0,0.0,0.0,0.0,0.0,0.0,0.0,0.0,0.0,0.0,0.0,0.0,0.0,0.0,0.0,0.0,0.0,0.0,0.0,0.0,2.4666,2.4604,2.4636,2.4779,2.4712,2.4723,2.4795,2.4858,2.5348,2.6173,2.6268,2.6562,2.7036,2.7646,2.8068,2.8375,2.9021,2.9672,3.026,3.0394,3.046,3.0491,3.0539,3.0563,3.0599,2.5293,0.0,0.0,2.5998,0.0,0.0,2.6865,0.0,0.0,2.8668,2.9763,0.0,2.9689,3.0452,3.0805,3.0244,3.0317,0.0,0.0,0.0,0.0,2.835,2.7567,2.6783,2.6032,2.5368,0.0,2.406,0.0,0.0,2.3063,0.0,0.0,0.0,0.0,2.4172,0.0,2.4884,2.5845,2.7133,2.8147,0.0,0.0,2.7101,2.6801,2.626,2.5082,2.4598,2.4511,2.4241,2.4171,2.4063,2.3253,2.329,2.3232,2.1154,2.1491,2.2099,2.0168,2.0294,2.081,2.0066,2.0283,2.0575,2.026,2.0576,2.0836,0.0,0.0,0.0,0.0,0.0,0.0,0.0,0.0,0.0,0.0,0.0,0.0,0.0,0.0,0.0,0.0,0.0,0.0,0.0,0.0,0.0,0.0,0.0,0.0,2.4493,2.4478,2.4459,2.4478,2.4493,2.4491,2.4474,2.4666,2.5352,2.6451,2.6242,2.6741,2.7762,2.7878,2.7991,2.8093,2.8564,2.9112,2.9688,3.0164,3.0402,3.0466,3.0451,3.0501,3.0558,0.0,0.0,0.0,0.0,0.0,0.0,0.0,2.8515,0.0,2.9673,0.0,3.1865,3.1819,3.1811,3.1776,3.1647,0.0,3.0318,3.0228,2.9981,2.9382,2.8341,2.7993,2.7308,2.6177,2.5777,0.0,0.0,0.0,0.0,0.0,0.0,0.0,0.0,0.0,0.0,0.0,2.5839,2.7069,0.0,2.7619,2.687,2.6068,2.5817,2.5244,2.4542,2.4284,2.4651,2.5146,2.4448,2.4209,2.4063,2.3253,2.3584,2.3823,2.1461,2.1983,2.2874,2.0634,2.0715,2.1211,2.0301,2.0775,2.1259,2.0408,2.0895,2.1323,2.0636,2.0504,2.0502,0.0,0.0,0.0,0.0,0.0,0.0,0.0,0.0,0.0,0.0,0.0,0.0,0.0,0.0,0.0,0.0,0.0,0.0,0.0,0.0,0.0,2.4191,2.4355,0.0,2.4154,0.0,2.432,2.4154,2.4495,2.5366,2.6692,2.6362,2.7315,2.9193,2.8666,2.8464,2.855,2.8559,2.8708,2.8979,2.9813,3.0164,3.0225,3.0106,3.0235,3.049,0.0,0.0,0.0,0.0,0.0,2.8945,2.9688,2.9524,2.979,3.1129,3.154,0.0,3.2464,3.2484,3.2405,3.233,3.1584,0.0,0.0,0.0,0.0,2.8795,2.8565,2.8139,2.7558,2.6627,2.568,0.0,0.0,0.0,0.0,0.0,0.0,0.0,0.0,0.0,2.5647,2.7355,0.0,2.7467,2.81,2.7817,2.6975,2.618,2.5702,2.5373,2.4579,2.4337,2.4411,2.4321,2.4248,2.4063,2.3249,2.3566,2.3876,2.2115,2.2827,2.3844,2.2191,2.245,2.2809,2.1335,2.12,2.1225,2.046,2.0457,2.0598,2.0519,2.0503,2.0527,2.0561,0.0,0.0,0.0,0.0,0.0,0.0,0.0,0.0,0.0,0.0,0.0,0.0,0.0,0.0,0.0,0.0,0.0,0.0,0.0,0.0,0.0,2.3747,0.0,0.0,0.0,2.3959,2.3878,2.4266,2.4912,2.5779,2.6451,2.6935,2.7226,2.7843,2.8125,2.8203,2.8441,2.8673,2.8924,2.9136,2.9276,2.924,2.8522,2.9171,3.0428,0.0,0.0,0.0,0.0,0.0,0.0,0.0,3.0561,0.0,3.2058,3.2544,3.29,3.3201,3.3173,3.3067,3.2977,3.1787,3.0977,3.0847,2.9903,2.9181,2.8815,2.8539,0.0,2.78,2.7078,2.622,2.5268,0.0,0.0,0.0,0.0,0.0,0.0,0.0,2.5764,0.0,0.0,0.0,2.797,2.89,2.8501,2.7301,2.682,2.627,2.5665,2.4708,2.4284,2.419,2.4247,2.4173,2.4025,2.3639,2.3763,2.387,2.2758,2.3388,2.4155,2.2689,2.2956,2.3365,2.2228,2.2038,2.1921,2.1145,2.1041,2.1012,2.0584,2.0505,2.0507,2.0533,2.0158,0.0,0.0,0.0,0.0,0.0,0.0,0.0,0.0,0.0,0.0,0.0,0.0,0.0,0.0,0.0,0.0,0.0,0.0,0.0,0.0,0.0,0.0,0.0,0.0,0.0,2.3795,2.4135,2.4652,2.5319,2.6351,2.6982,2.7322,2.815,2.8359,2.8091,2.7886,2.7972,2.8188,2.8261,2.8345,2.8361,2.7942,2.861,2.9721,0.0,2.7712,0.0,0.0,2.9121,0.0,0.0,3.1597,3.1784,3.2733,3.3388,3.3781,3.3866,3.3828,3.3693,3.3385,3.1933,3.0917,3.0652,2.9654,2.8931,2.8628,2.8308,2.7989,2.7672,2.7244,2.658,0.0,0.0,0.0,0.0,0.0,0.0,0.0,0.0,0.0,0.0,0.0,2.8435,2.8289,2.9236,2.8607,2.7104,2.7069,2.6559,2.5752,2.4757,2.4302,2.419,2.4171,2.4075,2.3976,2.4005,2.3967,2.3864,2.3382,2.3821,2.4215,2.3164,2.3404,2.3733,2.2821,2.269,2.2539,2.1552,2.1429,2.1328,2.0648,2.0507,2.0503,2.0499,1.9935,0.0,0.0,0.0,0.0,0.0,0.0,0.0,0.0,0.0,0.0,0.0,0.0,0.0,0.0,0.0,0.0,0.0,0.0,0.0,0.0,0.0,2.3721,2.3581,0.0,2.3896,0.0,2.4096,2.4464,2.4941,2.5994,2.6884,2.7607,2.8227,2.8342,2.8061,2.7587,2.7441,2.7471,2.7537,2.7555,2.7489,2.7516,2.8184,2.9052,0.0,0.0,0.0,0.0,0.0,0.0,0.0,3.2541,3.2275,3.328,3.3545,3.3847,3.4459,3.4449,3.4127,3.3355,3.239,3.1421,3.0483,2.9485,2.8737,2.8362,2.8083,2.78,2.7509,2.6989,2.6352,0.0,0.0,0.0,0.0,0.0,0.0,0.0,0.0,0.0,0.0,2.814,2.8009,2.732,2.8317,2.7673,2.6139,2.6189,2.6035,2.568,2.4739,2.4302,2.419,2.4135,2.4016,2.391,2.3971,2.3933,2.384,2.3967,2.4136,2.4321,2.4383,2.4591,2.4423,2.2901,2.2671,2.2377,2.0798,2.0531,2.0606,2.0519,2.0505,2.0501,2.0499,2.0433,2.0172,0.0,0.0,0.0,0.0,0.0,0.0,0.0,0.0,0.0,0.0,0.0,0.0,0.0,0.0,0.0,0.0,0.0,0.0,2.0553,0.0,2.2682,2.2539,2.3371,2.3795,2.3714,2.4115,2.4284,2.4317,2.5281,2.6113,2.6804,2.6835,2.7327,2.8103,2.8108,2.7791,2.7333,2.7452,2.7113,2.6543,2.6591,2.7666,2.8864,0.0,0.0,0.0,0.0,0.0,0.0,0.0,3.2112,3.1613,3.2854,3.356,3.4076,3.439,3.4245,3.3839,3.3069,3.2088,3.1151,3.0228,2.918,2.8476,2.8131,2.7882,2.7624,2.7324,2.6956,2.6589,0.0,0.0,0.0,0.0,0.0,0.0,0.0,0.0,2.6578,2.7902,2.8289,2.7915,2.719,2.8202,2.7569,2.6084,2.6132,2.6038,2.5745,2.4808,2.4357,2.419,2.4114,2.4032,2.3961,2.394,2.3898,2.3883,2.4057,2.4229,2.4409,2.4666,2.4813,2.4663,2.36,2.3063,2.2516,2.1398,2.0815,2.0492,2.0506,2.0494,2.0494,2.0497,2.008,1.9798,0.0,0.0,0.0,0.0,0.0,0.0,0.0,0.0,0.0,0.0,0.0,0.0,0.0,0.0,0.0,0.0,0.0,0.0,2.0932,0.0,2.3206,2.2696,2.3538,2.3979,2.3941,2.4173,2.4247,2.4171,2.5075,2.5862,2.6527,2.6591,2.7117,2.7906,2.7006,2.6841,2.7144,2.6748,2.6205,2.5736,2.6778,2.7656,2.8284,3.0077,0.0,3.1184,0.0,3.0764,3.1169,3.2501,3.1444,3.0923,3.2102,3.2834,3.3284,3.3425,3.3227,3.2801,3.2035,3.1311,3.0476,2.9555,2.8745,2.8174,2.7918,2.7712,0.0,2.7213,2.6923,2.6725,2.6623,2.5765,0.0,0.0,0.0,0.0,0.0,2.5653,2.6729,2.8353,2.8124,2.7656,2.7137,2.7905,2.7346,2.6035,2.6118,2.6038,2.5745,2.4793,2.4358,2.419,2.415,2.4071,2.4026,2.3937,2.3894,2.3901,2.4016,2.4192,2.4408,2.4663,2.4823,2.4746,2.4071,2.3352,2.2601,2.1862,2.1091,2.0504,2.0506,2.0494,2.0496,2.0506,1.9993,1.972,2.0116,0.0,0.0,0.0,0.0,0.0,0.0,0.0,1.927,1.8538,0.0,0.0,0.0,0.0,0.0,0.0,0.0,0.0,0.0,0.0,0.0,0.0,2.3731,2.4135,2.4154,2.4266,2.4284,2.421,2.5095,2.5627,2.5855,2.6434,2.6901,2.7142,2.6078,2.6209,2.7039,2.6575,2.6147,2.5983,2.7471,2.8065,2.8214,3.0974,3.1379,3.1635,3.0831,3.0593,3.0742,3.1426,3.0783,3.0467,3.113,3.1101,3.1101,3.1316,3.1265,3.0924,3.0092,2.9954,2.9464,2.8386,2.8112,2.7911,0.0,0.0,2.7327,2.7213,2.6858,2.6691,2.6691,0.0,0.0,2.4671,0.0,2.4215,2.5311,2.5579,2.6656,2.8241,2.7456,2.7083,2.7009,2.724,2.6749,2.5914,2.5984,2.5914,2.5663,2.4653,2.4247,2.4208,2.4203,2.415,2.4078,2.3937,2.386,2.3842,2.3971,2.4113,2.4266,2.4517,2.4762,2.4744,2.4062,2.3356,2.2603,2.1862,2.1075,2.0508,2.0497,2.049,2.0499,2.0492,2.0487,2.0216,1.936,0.0,0.0,0.0,0.0,0.0,0.0,2.0424,2.0346,2.0276,0.0,0.0,0.0,0.0,0.0,0.0,0.0,0.0,2.0316,2.2009,0.0,2.2997,2.3805,2.4229,2.4284,2.4355,2.4409,2.443,2.537,2.5332,2.4611,2.621,2.6413,2.5634,2.5671,2.6264,2.7133,2.7315,2.7422,2.759,2.8599,2.8983,2.8867,3.1644,3.208,3.2312,3.145,3.1162,3.1097,3.1279,2.9963,2.922,2.9881,2.943,2.9034,2.9044,3.0179,3.0604,0.0,2.9664,2.9188,0.0,2.7943,2.776,2.7509,2.7355,2.7184,2.7007,2.6909,2.6792,2.6691,0.0,0.0,0.0,2.4585,2.4636,2.4746,2.6024,2.6563,2.6544,2.6823,2.6637,2.6135,2.6185,2.5733,2.5005,2.4989,2.4886,2.4745,2.4413,2.4209,2.4074,2.413,2.4112,2.4077,2.4002,2.3941,2.3974,2.4092,2.4171,2.4284,2.458,2.4775,2.4753,2.4115,2.3371,2.2609,2.1876,2.1084,2.0501,2.0492,2.046,2.0456,2.0484,2.0456,2.0363,2.0127,2.0099,0.0,0.0,0.0,0.0,0.0,0.0,2.0415,0.0,2.0272,0.0,0.0,0.0,0.0,0.0,0.0,0.0,0.0,2.2114,0.0,2.3138,2.4038,2.4462,2.4426,2.4547,2.4549,2.4465,2.481,2.4774,2.4467,2.4931,2.5338,2.5616,2.5165,2.551,2.6357,2.6514,2.665,2.693,2.8383,2.8995,2.9121,3.1932,3.2262,3.2299,3.0766,3.0899,3.0927,3.0178,2.9278,2.8729,2.8802,2.8308,2.7922,2.7893,2.8934,0.0,2.8999,2.8897,2.8596,2.8014,2.7813,2.7622,2.7434,2.7264,2.7089,2.6893,0.0,0.0,2.6792,2.6236,2.5779,2.5379,2.5172,2.5113,2.5262,2.606,2.6321,2.6135,2.634,2.6135,2.5634,2.5424,2.5028,2.4549,2.4495,2.4392,2.4303,2.4266,2.4134,2.3976,2.4036,2.4016,2.3978,2.3963,2.3979,2.4012,2.4133,2.4191,2.4302,2.4594,2.4794,2.4797,2.4185,2.3447,2.259,2.1505,2.0878,2.0529,2.05,2.0445,2.0419,2.0454,2.042,2.04,2.0452,2.048,2.0514,2.056,0.0,0.0,0.0,0.0,0.0,0.0,2.0762,0.0,0.0,0.0,0.0,0.0,0.0,0.0,2.1074,2.2449,0.0,2.375,2.4286,2.458,2.461,2.4711,2.4679,2.4617,2.4647,2.4615,2.4515,2.4462,2.4777,2.5276,2.4837,2.5418,2.6544,2.6683,2.7176,2.795,2.9028,2.948,2.9632,3.1925,3.2093,0.0,0.0,3.0007,0.0,2.8451,2.8696,2.8776,2.7877,2.773,2.7701,2.7701,2.7672,2.7742,2.7862,0.0,0.0,0.0,2.77,2.7548,2.7496,2.7238,2.7027,2.6893,2.6893,2.6893,2.6926,2.6576,2.6553,2.6801,2.5649,2.5594,2.6502,2.5866,2.5962,2.6574,2.595,2.5616,2.5468,2.4901,2.4601,2.45,2.4426,2.4338,2.4284,2.4228,2.4074,2.3917,2.3996,2.3917,2.3837,2.3896,2.3958,2.4036,2.4078,2.421,2.4357,2.4559,2.4762,2.4801,2.4225,2.3499,2.2498,2.0876,2.0551,2.0584,2.0503,2.0452,2.0405,2.0396,2.0402,2.0388,2.0388,2.0448,2.0497,2.049,0.0,0.0,0.0,0.0,0.0,0.0,2.149,2.1749,0.0,0.0,0.0,0.0,0.0,2.1288,2.2077,2.289,2.3758,2.4689,2.4578,2.461,2.4794,2.4794,2.4798,2.4806,2.4787,2.4772,2.4723,2.4707,2.4711,2.4732,2.4791,2.5804,2.7331,2.7466,2.8592,3.0106,3.0138,3.022,3.0316,0.0,0.0,3.1827,3.0394,3.0331,2.9888,2.8152,2.7889,2.784,2.7604,2.7539,2.7539,2.7539,2.7496,2.7496,2.7595,2.7683,2.7718,2.7681,2.7531,2.7382,2.7269,2.7038,2.6893,2.6742,2.6742,2.6875,2.7135,2.6678,2.6654,2.7022,2.6408,2.5975,2.5713,2.6256,2.5871,2.4855,2.5337,2.5208,2.4653,2.4413,2.4375,2.4482,2.4303,2.4209,2.4152,2.4133,2.4016,2.3917,2.4054,2.4094,2.4113,2.4113,2.4151,2.417,2.4173,2.4266,2.4425,2.4676,2.4466,2.4132,2.4043,2.3054,2.1815,2.0801,2.0557,2.0516,2.0497,2.0445,2.0405,2.0396,2.0353,2.0347,2.0392,2.0415,2.0422,2.0429,2.0474,0.0,0.0,2.0598,2.0933,2.1539,2.0985,2.093,0.0,0.0,0.0,0.0,2.121,2.1457,2.2164,2.2963,2.3802,2.4689,2.4676,2.4689,2.4794,2.4856,2.4856,2.4798,2.4851,2.4865,2.4842,2.4802,2.4802,2.4842,2.4865,2.5574,2.665,2.6732,2.7826,2.9294,2.869,2.9278,3.0283,3.2529,3.1595,3.0592,2.9929,2.9738,2.9211,2.7864,2.7836,2.7834,2.7504,2.7421,2.7421,2.7421,2.7376,2.7376,2.7404,2.7448,2.7517,2.7531,2.7361,2.7241,2.7158,2.699,2.6843,2.6691,2.6691,2.6858,2.7149,2.7086,2.7211,2.7549,2.6741,2.6122,2.5663,2.558,2.4939,2.4018,2.467,2.4672,2.4247,2.4247,2.4247,2.4266,2.4152,2.4034,2.3974,2.4094,2.4036,2.3917,2.4057,2.4134,2.419,2.4133,2.4171,2.4247,2.4247,2.4321,2.4461,2.4738,2.434,2.3713,2.3099,2.2064,2.1089,2.0644,2.0533,2.0506,2.051,2.0441,2.0405,2.0396,2.0372,2.036,2.0392,2.0408,2.04,2.0405,2.0437,0.0,2.04,2.1074,2.1712,2.2115,2.1686,2.1903,2.3103,0.0,0.0,2.2496,2.2429,2.2533,2.2884,2.2863,2.3468,2.4734,2.4813,2.4808,2.4794,2.4926,2.4953,2.4879,2.4921,2.4953,2.494,2.4917,2.4917,2.494,2.498,2.5767,2.7014,2.7036,2.8142,2.964,2.9203,2.9638,3.0332,3.1627,3.033,2.9135,2.8881,2.8833,2.8592,2.7774,2.8011,2.8135,2.7618,2.7414,2.733,2.7299,2.733,2.7282,2.725,2.7215,2.7244,2.7465,2.7209,2.7065,2.7095,2.6942,2.6809,2.6691,2.6691,2.6858,2.7166,2.737,2.763,2.7857,2.6566,2.5906,2.5703,2.4465,2.3816,2.3692,2.4077,2.419,2.4113,2.421,2.4153,2.4016,2.3976,2.3873,2.3807,2.4052,2.4034,2.3917,2.4059,2.4135,2.4154,2.4075,2.4153,2.4303,2.4303,2.4283,2.4314,2.4712,2.4233,2.3314,2.188,2.101,2.0505,2.0507,2.0529,2.0516,2.0496,2.0456,2.041,2.0402,2.0398,2.0411,2.0379,2.0385,2.0396,2.0394,0.0,2.0374,2.0372,2.1649,2.252,2.2598,2.243,2.2978,2.4521,2.2652,2.2028,2.3473,2.3599,2.3643,2.3714,2.2984,2.3305,2.4794,2.4926,2.4926,2.4842,2.5006,2.5076,2.5038,2.5019,2.5032,2.5019,2.5019,2.5006,2.5038,2.5082,2.6123,2.7708,2.7694,2.8814,3.0386,3.0263,3.0334,3.0375,3.1245,3.0475,2.96,2.8699,2.8546,2.8496,2.8295,2.7814,2.7676,2.8194,2.7742,2.7345,2.7299,2.7362,2.7313,2.7137,2.7053,2.7149,2.7404,2.71,2.697,2.7112,2.6873,2.6708,2.6691,2.6691,2.6923,2.7341,2.6787,2.6632,2.6886,2.5561,2.4825,2.4615,2.3848,2.3522,2.3544,2.3837,2.4016,2.4094,2.4056,2.4056,2.4036,2.3774,2.3671,2.3732,2.3825,2.3825,2.3852,2.41,2.4118,2.4056,2.421,2.4228,2.4247,2.4338,2.3959,2.3683,2.4561,2.39,2.2601,2.1065,2.0589,2.0518,2.0562,2.0581,2.0567,2.0499,2.0492,2.0476,2.0404,2.0396,2.0379,2.0315,2.0353,2.0386,2.0318,0.0,2.0321,2.0323,2.0539,2.0974,2.1633,2.1029,2.1001,2.2,2.1712,2.1588,2.1856,2.2449,2.3084,2.3755,2.4179,2.452,2.4806,2.4889,2.4931,2.4964,2.5006,2.5082,2.5168,2.5172,2.5164,2.5164,2.5113,2.5113,2.5168,2.5113,2.6142,2.7694,2.7694,2.8821,3.0325,2.9638,2.9872,3.0375,3.1481,3.0229,2.9119,2.9072,2.8332,2.7747,2.7799,2.7457,2.7353,2.7747,2.7569,2.7376,2.7299,2.7362,2.7345,2.7218,2.7087,2.7038,2.7201,2.694,2.6825,2.6889,2.6725,2.6657,2.6657,2.6623,2.6792,2.723,2.6502,2.633,2.6627,2.5068,2.431,2.4275,2.3512,2.3224,2.3307,2.3646,2.3813,2.3828,2.3792,2.3771,2.3703,2.3508,2.3486,2.3553,2.3703,2.381,2.3955,2.4135,2.4192,2.4173,2.4229,2.4284,2.4247,2.3957,2.4005,2.3983,2.3189,2.2892,2.2434,2.0895,2.0494,2.052,2.0583,2.0563,2.0538,2.0509,2.0506,2.0476,2.0415,2.0399,2.0383,2.036,2.0354,0.0,0.0,2.0284,2.0296,2.0252,2.0661,2.1084,2.1453,2.1126,2.1233,2.2039,2.2087,2.2297,2.2776,2.3537,2.4114,2.4503,2.4731,2.4856,2.4846,2.487,2.4926,2.4985,2.5038,2.5101,2.5191,2.5195,2.5187,2.5225,2.565,2.5879,2.5929,2.6333,2.7249,2.8401,2.8433,2.9271,3.0409,3.0036,3.0173,3.0366,3.1565,3.0179,2.9058,2.9437,2.8319,2.7478,2.7782,2.7375,2.7188,2.7523,2.7448,2.7345,2.733,2.7393,2.7376,2.7264,2.712,2.699,2.6925,2.6792,2.6725,2.6674,2.6606,2.6505,2.6387,2.632,2.6387,2.6556,2.5832,2.5604,2.5858,2.4326,2.3701,2.3789,2.3239,2.3028,2.3144,2.3494,2.3647,2.3647,2.3732,2.3583,2.3354,2.3435,2.3424,2.336,2.3576,2.3753,2.3937,2.4074,2.4154,2.4192,2.4173,2.4284,2.4299,2.3817,2.4124,2.4157,2.1991,2.1944,2.217,2.0823,2.0483,2.0518,2.0563,2.0546,2.0516,2.0492,2.05,2.0472,2.0425,2.0415,2.0394,2.0386,0.0,0.0,0.0,2.0242,2.0249,2.0235,2.0798,2.121,2.1205,2.1185,2.1407,2.1979,2.1998,2.238,2.3258,2.4076,2.4693,2.5106,2.5012,2.4931,2.4898,2.4898,2.4926,2.4993,2.5057,2.512,2.5195,2.5187,2.5209,2.5267,2.5907,2.6297,2.6527,2.6962,2.7867,2.8989,2.884,2.9371,3.0229,3.0413,3.0405,3.0122,3.0922,3.0627,3.03,2.9627,2.8784,2.8458,2.9196,2.7996,2.7329,2.8197,2.7678,2.7261,2.7376,2.7393,2.731,2.7129,2.7112,2.697,2.6725,2.6809,2.681,2.6623,2.6554,2.6269,2.5678,2.5709,2.5513,2.497,2.4242,2.3847,2.3802,2.2948,2.2583,2.2718,2.2784,2.2972,2.321,2.3418,2.3584,2.3728,2.4087,2.3841,2.3263,2.3763,2.3589,2.3168,2.343,2.3567,2.366,2.3847,2.3937,2.3946,2.4079,2.4229,2.4407,2.4489,2.4162,2.3441,2.1847,2.1507,2.1405,2.0609,2.0457,2.0492,2.0513,2.0557,2.0583,2.0501,2.0506,2.05,2.0493,2.0438,2.0385,2.0315,0.0,0.0,2.0292,2.0238,2.0238,2.0285,2.0291,2.0293,2.0312,2.024,2.0222,2.0289,2.0231,2.0574,2.1462,2.231,2.3534,2.5141,2.5107,2.5031,2.4898,2.4898,2.4926,2.4993,2.5012,2.5082,2.5201,2.5212,2.5222,2.5282,2.5299,2.5746,2.645,2.5685,2.6814,2.8919,2.8128,2.8411,2.9396,3.0128,2.997,2.9472,3.133,3.0521,2.9747,2.9368,2.8271,2.7553,2.7959,2.7432,2.7175,2.7646,2.7486,2.7327,2.7362,2.7393,2.7359,2.723,2.6747,2.6597,2.6982,2.6588,2.6438,2.6691,2.6301,2.5944,2.5734,2.5275,2.4931,2.4735,2.4013,2.3636,2.3648,2.2756,2.2487,2.271,2.2654,2.2746,2.2958,2.31,2.3175,2.3217,2.3325,2.3265,2.3087,2.3206,2.3239,2.3241,2.3401,2.3512,2.3643,2.3828,2.3899,2.3923,2.4114,2.4284,2.4348,2.4057,2.3177,2.2157,2.156,2.1451,2.1328,2.0584,2.0441,2.051,2.0545,2.0575,2.0583,2.0505,2.0492,2.0504,2.0502,2.0454,2.0396,2.036,0.0,2.03,2.0312,2.0238,2.0227,2.0296,2.0246,2.0195,2.0197,2.0144,2.0098,2.0088,2.0544,2.0955,2.128,2.2637,2.3934,2.5099,2.5101,2.5082,2.5031,2.4898,2.4884,2.5004,2.4912,2.5259,2.5937,2.5929,2.5995,2.6137,2.6603,2.6696,2.655,2.7211,2.7765,2.8224,2.8471,2.851,2.8431,2.8772,2.8734,2.8539,3.1542,3.0739,2.9968,2.9568,2.851,2.7639,2.7497,2.7194,2.704,2.7201,2.725,2.7282,2.7264,2.7313,2.7327,2.7261,2.6747,2.6546,2.6825,2.6158,2.5976,2.6465,2.6038,2.5544,2.5098,2.4569,2.4223,2.4018,2.3534,2.3322,2.3388,2.2664,2.2525,2.2816,2.2681,2.272,2.2865,2.2886,2.2903,2.2911,2.3049,2.3006,2.2962,2.3154,2.323,2.33,2.3419,2.3506,2.3593,2.3757,2.381,2.384,2.4016,2.4229,2.4329,2.4046,2.3076,2.2049,2.1816,2.1636,2.1325,2.0576,2.0458,2.0511,2.0567,2.0572,2.0584,2.0505,2.0494,2.0508,2.0495,2.0454,2.0385,2.0366,2.0311,2.0273,2.0296,2.0235,2.0208,2.0299,2.0235,2.0205,2.0199,2.0126,2.006,2.0059,2.0581,2.1132,2.1689,2.3332,2.4545,2.5106,2.5113,2.5088,2.5101,2.4945,2.4917,2.5004,2.4898,2.5403,2.6397,2.6421,2.6469,2.6595,2.7148,2.7048,2.6565,2.7689,2.7956,2.7783,2.8725,2.8456,2.7594,2.8174,2.8067,2.7699,3.1334,3.1432,3.1285,3.0364,2.9742,2.9145,2.8406,2.7503,2.6942,2.7103,2.7055,2.7055,2.7181,2.7264,2.7261,2.7203,2.7276,2.6948,2.6165,2.5531,2.539,2.5794,2.5746,2.5023,2.3544,2.3636,2.3288,2.2515,2.2569,2.2632,2.2712,2.2561,2.2642,2.2893,2.2917,2.2936,2.2987,2.2922,2.2897,2.2937,2.3471,2.3328,2.2903,2.3763,2.371,2.3239,2.3495,2.3552,2.3494,2.3554,2.3603,2.3635,2.3756,2.4079,2.4459,2.4726,2.4228,2.3447,2.2695,2.1998,2.1325,2.0585,2.0457,2.0495,2.0492,2.0558,2.0584,2.0501,2.0509,2.0492,2.05,2.0457,2.0386,2.0306,2.0242,2.0223,2.0295,2.0246,2.0215,2.0287,2.0246,2.0199,2.0192,2.0089,2.0001,2.0001,2.0007,2.0774,2.2513,2.4174,2.5125,2.521,2.5144,2.5088,2.5101,2.5037,2.5004,2.4993,2.4993,2.5482,2.6402,2.6477,2.6508,2.6508,2.6508,2.6453,2.6403,2.6477,2.696,2.7764,2.8706,2.8093,2.6891,2.855,2.8153,2.7032,3.0534,2.979,2.9246,2.9571,2.8647,2.7801,2.7577,2.7257,2.7038,2.7085,2.707,2.7135,2.7341,2.7359,2.7393,2.7473,2.707,2.6766,2.6594,2.6475,2.6144,2.5604,2.4945,2.4372,2.3932,2.3449,2.3041,2.2712,2.2816,2.2893,2.2919,2.2927,2.2911,2.2894,2.2894,2.2762,2.2579,2.2569,2.2573,2.2649,2.29,2.3033,2.3067,2.2934,2.2843,2.279,2.2875,2.2794,2.2736,2.3239,2.3359,2.3379,2.3749,2.4062,2.4388,2.4749,2.4365,2.3633,2.2851,2.2122,2.1374,2.0532,2.039,2.0458,2.0543,2.0558,2.0527,2.0497,2.05,2.05,2.0502,2.0446,2.0399,2.0366,2.0265,2.0227,2.0299,2.0242,2.0219,2.0235,2.0203,2.018,2.0126,2.0089,2.0049,2.0,2.0568,2.1396,2.2547,2.3664,2.4553,2.5172,2.518,2.5144,2.5101,2.5044,2.4999,2.5004,2.4953,2.545,2.6421,2.7058,2.7056,2.6595,2.7167,2.6734,2.5661,2.6251,2.6312,2.6098,2.7003,2.6718,2.586,2.6406,2.6296,2.6049,2.9763,2.9327,2.9007,2.8835,2.82,2.7607,2.7264,2.7166,2.7149,2.7149,2.7135,2.7166,2.7293,2.7359,2.7425,2.7552,2.7023,2.6859,2.7253,2.6508,2.5861,2.5516,2.44,2.3762,2.3719,2.3298,2.3045,2.297,2.3102,2.3175,2.3193,2.3289,2.3161,2.2929,2.2868,2.2605,2.2247,2.2265,2.2343,2.249,2.2721,2.3,2.3218,2.2661,2.2429,2.2401,2.2165,2.1753,2.1453,2.2052,2.2332,2.2513,2.2807,2.318,2.3492,2.3674,2.3517,2.3145,2.2382,2.19,2.1397,2.0543,2.0387,2.046,2.058,2.0566,2.0526,2.0515,2.0503,2.05,2.0493,2.0441,2.0392,2.036,2.0258,2.02,2.025,2.023,2.0205,2.0211,2.0169,2.0153,2.0135,2.0089,2.0039,1.9998,2.0817,2.1698,2.2601,2.3438,2.4289,2.5168,2.5203,2.5168,2.5095,2.5095,2.5051,2.5004,2.5,2.5488,2.6384,2.7325,2.7273,2.6527,2.7381,2.6787,2.5313,2.6489,2.6504,2.5936,2.7486,2.7402,2.64,2.6453,2.6293,2.6142,2.8991,2.9566,2.9709,2.8219,2.8217,2.8137,2.7365,2.723,2.7213,2.723,2.7166,2.7149,2.723,2.7341,2.7452,2.7557,2.7173,2.7254,2.8004,2.6043,2.5059,2.5551,2.4134,2.3289,2.3175,2.3199,2.3241,2.3241,2.3371,2.3481,2.3539,2.3594,2.3435,2.3028,2.2807,2.2476,2.2056,2.2029,2.2146,2.2373,2.271,2.2976,2.3151,2.2548,2.2162,2.1913,2.1332,2.0561,1.9915,2.0454,2.0898,2.1217,2.1377,2.1768,2.2126,2.2,2.2164,2.2261,2.1602,2.15,2.1424,2.062,2.0451,2.0518,2.0585,2.0584,2.0576,2.0515,2.0509,2.0508,2.0493,2.0441,2.0386,2.0306,2.0242,2.0192,2.02,2.0188,2.019,2.0195,2.0143,2.0126,2.0183,2.006,1.9991,2.0019,2.0811,2.1682,2.2547,2.3424,2.4266,2.5067,2.5157,2.5168,2.5101,2.518,2.5144,2.5025,2.5141,2.5543,2.625,2.7235,2.7146,2.6237,2.7192,2.6651,2.5239,2.6917,2.7175,2.676,2.922,2.9244,2.7923,2.7969,2.7547,2.7024,2.8389,2.8032,2.7959,2.8301,2.8045,2.7718,2.7544,2.7417,2.7373,2.7434,2.7293,2.7244,2.7496,2.7526,2.7677,2.7957,2.8021,2.8174,2.8456,2.6801,2.5869,2.6045,2.4536,2.3667,2.3646,2.3508,2.3458,2.3504,2.3692,2.3798,2.3813,2.3878,2.3674,2.3224,2.2972,2.2678,2.2337,2.1725,2.1653,2.1903,2.1617,2.1607,2.1684,2.1025,2.0589,2.0256,1.9865,1.9495,1.9323,2.0129,2.0397,2.0558,2.1325,2.167,2.1888,2.2319,2.2416,2.2272,2.1706,2.1612,2.1494,2.0682,2.0486,2.05,2.051,2.0519,2.0511,2.0509,2.0496,2.0473,2.0429,2.041,2.0373,2.032,2.025,2.0195,2.0199,2.0144,2.0117,2.0127,2.0164,2.0145,2.005,2.001,2.003,2.0144,2.0919,2.1473,2.1665,2.3091,2.3979,2.4189,2.4847,2.5168,2.5101,2.5176,2.5187,2.5156,2.5184,2.5313,2.5546,2.64,2.6293,2.5493,2.6393,2.6194,2.5327,2.6343,2.6724,2.6766,2.8039,2.83,2.799,2.8055,2.7961,2.7845,2.7741,2.7669,2.7717,2.7833,2.7695,2.7587,2.7557,2.7539,2.7569,2.76,2.7448,2.7417,2.7587,2.7659,2.7864,2.8246,2.8398,2.8322,2.8033,2.6903,2.6045,2.5658,2.4543,2.3941,2.3945,2.3939,2.3876,2.3789,2.4019,2.4116,2.4077,2.4097,2.3803,2.3223,2.2979,2.2608,2.2181,2.1555,2.1446,2.1655,2.1255,2.1205,2.1256,2.0389,1.9838,1.9412,1.8735,1.8417,1.8418,1.8964,1.9458,1.9986,2.0682,2.1116,2.1364,2.1404,2.1518,2.1532,2.1101,2.1045,2.1033,2.0609,2.0506,2.0494,2.0494,2.0506,2.0492,2.0461,2.0449,2.0432,2.0359,2.0354,2.0327,2.0265,2.0219,2.0188,2.0164,2.0117,2.0098,2.0088,2.0127,2.0117,2.004,2.0059,2.0079,2.0153,2.0612,2.1051,2.1462,2.269,2.3563,2.3976,2.4788,2.5176,2.516,2.5187,2.5209,2.5187,2.5239,2.5239,2.5225,2.6102,2.6014,2.5203,2.6117,2.6047,2.536,2.6196,2.6833,2.7316,2.7816,2.8492,2.9043,2.79,2.7498,2.7466,2.7257,2.77,2.7941,2.7287,2.7386,2.7557,2.7526,2.763,2.7701,2.776,2.763,2.7539,2.7647,2.7806,2.7992,2.8286,2.8446,2.8178,2.7318,2.6731,2.6038,2.517,2.4487,2.4155,2.4173,2.4338,2.4284,2.4057,2.4339,2.4429,2.4375,2.4284,2.3925,2.328,2.2838,2.234,2.1792,2.1215,2.1083,2.1284,2.0884,2.0847,2.0896,1.9883,1.9272,1.879,1.7867,1.7545,1.7635,1.8067,1.8811,1.9606,2.0099,2.057,2.0865,2.0537,2.0565,2.0701,2.0532,2.0486,2.0484,2.0506,2.0482,2.0468,2.0478,2.0463,2.0454,2.0399,2.0371,2.036,2.0294,2.0287,2.0265,2.0219,2.0205,2.019,2.0117,2.0117,2.0108,2.0127,2.0222,2.026,2.0127,2.0222,2.0318,2.0336,2.0301,2.0685,2.1529,2.2365,2.3058,2.3638,2.4524,2.4982,2.4998,2.4998,2.5056,2.5192,2.5252,2.5239,2.5156,2.5937,2.5868,2.5187,2.5956,2.5926,2.538,2.6246,2.7036,2.7721,2.7913,2.884,2.9805,2.7768,2.6968,2.6801,2.742,2.7255,2.7242,2.733,2.739,2.7465,2.7557,2.7659,2.776,2.794,2.7806,2.7719,2.7859,2.8081,2.8013,2.7504,2.8263,2.8195,2.6796,2.6573,2.6236,2.5634,2.4762,2.4352,2.4528,2.4495,2.4444,2.4355,2.4613,2.4707,2.4636,2.451,2.4192,2.3666,2.2458,2.1826,2.1541,2.0217,1.9839,2.0078,1.9448,1.9273,1.9343,1.8663,1.8121,1.7698,1.7299,1.733,1.7718,1.9036,1.9564,1.9811,2.0567,2.0765,2.0871,2.1534,2.1134,2.0573,2.1101,2.0841,2.043,2.0494,2.0464,2.0404,2.0334,2.0379,2.0399,2.0338,2.0308,2.0292,2.0223,2.0208,2.02,2.0192,2.0205,2.0199,2.0192,2.0145,2.0117,2.0183,2.0746,2.0878,2.025,2.0765,2.1185,2.1291,2.0691,2.0658,2.1466,2.2337,2.2511,2.187,2.3361,2.4169,2.4158,2.4158,2.4513,2.5192,2.5212,2.5222,2.529,2.5337,2.5337,2.529,2.5416,2.5428,2.5455,2.6256,2.6689,2.6939,2.7691,2.8097,2.8242,2.8008,2.7478,2.6876,2.7473,2.7359,2.731,2.739,2.7509,2.763,2.7659,2.7777,2.7911,2.7986,2.7882,2.7842,2.7888,2.779,2.7648,2.7525,2.7561,2.7126,2.6053,2.6058,2.5801,2.5123,2.4792,2.4685,2.4768,2.4794,2.4771,2.479,2.4346,2.4374,2.4828,2.3686,2.3171,2.3158,2.2295,2.1522,2.0828,2.0298,1.9944,1.9717,1.8981,1.8698,1.8639,1.8073,1.7609,1.724,1.7287,1.7695,1.8388,1.9369,1.9825,2.0102,2.0843,2.1272,2.154,2.1819,2.1794,2.1721,2.1914,2.1803,2.1651,2.1812,2.1764,2.1536,2.0973,2.0812,2.0687,2.0277,2.0195,2.0171,2.0107,2.0088,2.0088,2.0088,2.0126,2.0155,2.0192,2.0171,2.0188,2.0244,2.091,2.1233,2.091,2.1577,2.1863,2.1464,2.1152,2.0924,2.0824,2.2115,2.247,2.1571,2.3182,2.4061,2.4053,2.4053,2.4466,2.5252,2.5293,2.5302,2.525,2.522,2.5231,2.5292,2.5302,2.5351,2.5476,2.5851,2.6296,2.676,2.6641,2.6583,2.6625,2.7168,2.6863,2.6164]},{"header":{"parameterUnit":"m.s-1","parameterCategory":1,"la1":30.6,"la2":28.766,"lo1":-90.7593,"lo2":-88.6598,"dy":0.0162,"dx":0.0183,"nx":116,"ny":114,"refTime":"2023-05-21T00:00:00:Z","depth":0,"parameterNumber":3,"parameterNumberName":"V-component_of_WINDS"},"data":[0.0,0.0,0.0,0.0,0.0,0.0,0.0,0.0,0.0,0.0,0.0,0.0,0.0,0.0,0.0,0.0,0.0,0.0,0.0,0.0,0.0,0.0,0.0,0.0,0.0,0.0,0.0,0.0,0.0,0.0,0.0,0.0,0.0,0.0,0.0,0.0,0.0,0.0,0.0,0.0,0.0,0.0,0.0,0.0,0.0,0.0,0.0,0.0,0.0,0.0,0.0,0.0,0.0,0.0,0.0,0.0,0.0,0.0,0.0,0.0,0.0,0.0,0.0,0.0,0.0,0.0,0.0,0.0,0.0,0.0,0.0,0.0,0.0,0.0,0.0,0.0,0.0,0.0,0.0,0.0,0.0,0.0,0.0,0.0,0.0,0.0,0.0,0.0,0.0,0.0,0.0,0.0,0.0,0.0,0.0,0.0,0.0,0.0,0.0,0.0,0.0,0.0,0.0,0.0,0.0,0.0,0.0,0.0,0.0,0.0,0.0,0.0,0.0,0.0,0.0,0.0,0.0,0.0,0.0,0.0,0.0,0.0,0.0,0.0,0.0,0.0,0.0,0.0,0.0,0.0,0.0,0.0,0.0,0.0,0.0,0.0,0.0,0.0,0.0,0.0,0.0,0.0,0.0,0.0,0.0,0.0,0.0,0.0,0.0,0.0,0.0,0.0,0.0,0.0,0.0,0.0,0.0,0.0,0.0,0.0,0.0,0.0,0.0,0.0,0.0,0.0,0.0,0.0,0.0,0.0,0.0,0.0,0.0,0.0,0.0,0.0,0.0,0.0,0.0,0.0,0.0,0.0,0.0,0.0,0.0,0.0,0.0,0.0,0.0,0.0,0.0,0.0,0.0,0.0,0.0,0.0,0.0,0.0,0.0,0.0,0.0,0.0,0.0,0.0,0.0,0.0,0.0,0.0,0.0,0.0,0.0,0.0,0.0,0.0,0.0,0.0,0.0,0.0,0.0,0.0,0.0,0.0,0.0,0.0,0.0,0.0,0.0,0.0,0.0,0.0,0.0,0.0,0.0,0.0,0.0,0.0,0.0,0.0,0.0,0.0,0.0,0.0,0.0,0.0,0.0,0.0,0.0,0.0,0.0,0.0,0.0,0.0,0.0,0.0,0.0,0.0,0.0,0.0,0.0,0.0,0.0,0.0,0.0,0.0,0.0,0.0,0.0,0.0,0.0,0.0,0.0,0.0,0.0,0.0,0.0,0.0,0.0,0.0,0.0,0.0,0.0,0.0,0.0,0.0,0.0,0.0,0.0,0.0,0.0,0.0,0.0,0.0,0.0,0.0,0.0,0.0,0.0,0.0,0.0,0.0,0.0,0.0,0.0,0.0,0.0,0.0,0.0,0.0,0.0,0.0,0.0,0.0,0.0,0.0,0.0,0.0,0.0,0.0,0.0,0.0,0.0,0.0,0.0,0.0,0.0,0.0,0.0,0.0,0.0,0.0,0.0,0.0,0.0,0.0,0.0,0.0,0.0,0.0,0.0,0.0,0.0,0.0,0.0,0.0,0.0,0.0,0.0,0.0,0.0,0.0,0.0,0.0,0.0,0.0,0.0,0.0,0.0,0.0,0.0,0.0,0.0,0.0,0.0,0.0,0.0,0.0,0.0,0.0,0.0,0.0,0.0,0.0,0.0,0.0,0.0,0.0,0.0,0.0,0.0,0.0,0.0,0.0,0.0,0.0,0.0,0.0,0.0,0.0,0.0,0.0,0.0,0.0,0.0,0.0,0.0,0.0,0.0,0.0,0.0,0.0,0.0,0.0,0.0,0.0,0.0,0.0,0.0,0.0,0.0,0.0,0.0,0.0,0.0,0.0,0.0,0.0,0.0,0.0,0.0,0.0,0.0,0.0,0.0,0.0,0.0,0.0,0.0,0.0,0.0,0.0,0.0,0.0,0.0,0.0,0.0,0.0,0.0,0.0,0.0,0.0,0.0,0.0,0.0,0.0,0.0,0.0,0.0,0.0,0.0,0.0,0.0,0.0,0.0,0.0,0.0,0.0,0.0,0.0,0.0,0.0,0.0,0.0,0.0,0.0,0.0,0.0,0.0,0.0,0.0,0.0,0.0,0.0,0.0,0.0,0.0,0.0,0.0,0.0,0.0,0.0,0.0,0.0,0.0,0.0,0.0,0.0,0.0,0.0,0.0,0.0,0.0,0.0,0.0,0.0,0.0,0.0,0.0,0.0,0.0,0.0,0.0,0.0,0.0,0.0,0.0,0.0,0.0,0.0,0.0,0.0,0.0,0.0,0.0,0.0,0.0,0.0,0.0,0.0,0.0,0.0,0.0,0.0,0.0,0.0,0.0,0.0,0.0,0.0,0.0,0.0,0.0,0.0,0.0,0.0,0.0,0.0,0.0,0.0,0.0,0.0,0.0,0.0,0.0,0.0,0.0,0.0,0.0,0.0,0.0,0.0,0.0,0.0,0.0,0.0,0.0,0.0,0.0,0.0,0.0,0.0,0.0,0.0,0.0,0.0,0.0,0.0,0.0,0.0,0.0,0.0,0.0,0.0,0.0,0.0,0.0,0.0,0.0,0.0,0.0,0.0,0.0,0.0,0.0,0.0,0.0,0.0,0.0,0.0,0.0,0.0,0.0,0.0,0.0,0.0,0.0,0.0,0.0,0.0,0.0,0.0,0.0,0.0,0.0,0.0,0.0,0.0,0.0,0.0,0.0,0.0,0.0,0.0,0.0,0.0,0.0,0.0,0.0,0.0,0.0,0.0,0.0,0.0,0.0,0.0,0.0,0.0,0.0,0.0,0.0,0.0,0.0,0.0,0.0,0.0,0.0,0.0,0.0,0.0,0.0,0.0,0.0,0.0,0.0,0.0,0.0,0.0,0.0,0.0,0.0,0.0,0.0,0.0,0.0,0.0,0.0,0.0,0.0,0.0,0.0,0.0,0.0,0.0,0.0,0.0,0.0,0.0,0.0,0.0,0.0,0.0,0.0,0.0,0.0,0.0,0.0,0.0,0.0,0.0,0.0,0.0,0.0,0.0,0.0,0.0,0.0,0.0,0.0,0.0,0.0,0.0,0.0,0.0,0.0,0.0,0.0,0.0,0.0,0.0,0.0,0.0,0.0,0.0,0.0,0.0,0.0,0.0,0.0,0.0,0.0,0.0,0.0,0.0,0.0,0.0,0.0,0.0,0.0,0.0,0.0,0.0,0.0,0.0,0.0,0.0,0.0,0.0,0.0,0.0,0.0,0.0,0.0,0.0,0.0,0.0,0.0,0.0,0.0,0.0,0.0,0.0,0.0,0.0,0.0,0.0,0.0,0.0,0.0,0.0,0.0,0.0,0.0,0.0,0.0,0.0,0.0,0.0,0.0,0.0,0.0,0.0,0.0,0.0,0.0,0.0,0.0,0.0,0.0,0.0,0.0,0.0,0.0,0.0,0.0,0.0,0.0,0.0,0.0,0.0,0.0,0.0,0.0,0.0,0.0,0.0,0.0,0.0,0.0,0.0,0.0,0.0,0.0,0.0,0.0,0.0,0.0,0.0,0.0,0.0,0.0,0.0,0.0,0.0,0.0,0.0,0.0,0.0,0.0,0.0,0.0,0.0,0.0,0.0,0.0,0.0,0.0,0.0,0.0,0.0,0.0,0.0,0.0,0.0,0.0,0.0,0.0,0.0,0.0,0.0,0.0,0.0,0.0,0.0,0.0,0.0,0.0,0.0,0.0,0.0,0.0,0.0,0.0,0.0,0.0,0.0,0.0,0.0,0.0,0.0,0.0,0.0,0.0,0.0,0.0,0.0,0.0,0.0,0.0,0.0,0.0,0.0,0.0,0.0,0.0,0.0,0.0,0.0,0.0,0.0,0.0,0.0,0.0,0.0,0.0,0.0,0.0,0.0,0.0,0.0,0.0,0.0,0.0,0.0,0.0,0.0,0.0,0.0,0.0,0.0,0.0,0.0,0.0,0.0,0.0,0.0,0.0,0.0,0.0,0.0,0.0,0.0,0.0,0.0,0.0,0.0,0.0,0.0,0.0,0.0,0.0,0.0,0.0,0.0,0.0,0.0,0.0,0.0,0.0,0.0,0.0,0.0,0.0,0.0,0.0,0.0,0.0,0.0,0.0,0.0,0.0,0.0,0.0,0.0,0.0,0.0,0.0,0.0,0.0,0.0,0.0,0.0,0.0,0.0,0.0,0.0,0.0,0.0,0.0,0.0,0.0,0.0,0.0,0.0,0.0,0.0,0.0,0.0,0.0,0.0,0.0,0.0,0.0,0.0,0.0,0.0,0.0,0.0,0.0,0.0,0.0,0.0,0.0,0.0,0.0,0.0,0.0,0.0,0.0,0.0,0.0,0.0,0.0,0.0,0.0,0.0,0.0,0.0,0.0,0.0,0.0,0.0,0.0,0.0,0.0,0.0,0.0,0.0,0.0,0.0,0.0,0.0,0.0,0.0,0.0,0.0,0.0,0.0,0.0,0.0,0.0,0.0,0.0,0.0,0.0,0.0,0.0,0.0,0.0,0.0,0.0,0.0,0.0,0.0,0.0,0.0,0.0,0.0,0.0,0.0,0.0,0.0,0.0,0.0,0.0,0.0,0.0,0.0,0.0,0.0,0.0,0.0,0.0,0.0,0.0,0.0,0.0,0.0,0.0,0.0,0.0,0.0,0.0,0.0,0.0,0.0,0.0,0.0,0.0,0.0,0.0,0.0,0.0,0.0,0.0,0.0,0.0,0.0,0.0,0.0,0.0,0.0,0.0,0.0,0.0,0.0,0.0,0.0,0.0,0.0,0.0,0.0,0.0,0.0,0.0,0.0,0.0,0.0,0.0,0.0,0.0,0.0,0.0,0.0,0.0,0.0,0.0,0.0,0.0,0.0,0.0,0.0,0.0,0.0,0.0,0.0,0.0,0.0,0.0,0.0,0.0,0.0,0.0,0.0,0.0,0.0,0.0,0.0,0.0,0.0,0.0,0.0,0.0,0.0,0.0,0.0,0.0,0.0,0.0,0.0,0.0,0.0,0.0,0.0,0.0,0.0,0.0,0.0,0.0,0.0,0.0,0.0,0.0,0.0,0.0,0.0,0.0,0.0,0.0,0.0,0.0,0.0,0.0,0.0,0.0,0.0,0.0,0.0,0.0,0.0,0.0,0.0,0.0,0.0,0.0,0.0,0.0,0.0,0.0,0.0,0.0,0.0,0.0,0.0,0.0,0.0,0.0,0.0,0.0,0.0,0.0,0.0,0.0,0.0,0.0,0.0,0.0,0.0,0.0,0.0,0.0,0.0,0.0,0.0,0.0,0.0,0.0,0.0,0.0,0.0,0.0,0.0,0.0,0.0,0.0,0.0,0.0,0.0,0.0,0.0,0.0,0.0,0.0,0.0,0.0,0.0,0.0,0.0,0.0,0.0,0.0,0.0,0.0,0.0,0.0,0.0,0.0,0.0,0.0,0.0,0.0,0.0,0.0,0.0,0.0,0.0,0.0,0.0,0.0,0.0,0.0,0.0,0.0,0.0,0.0,0.0,0.0,0.0,0.0,0.0,0.0,0.0,0.0,0.0,0.0,0.0,0.0,0.0,0.0,0.0,0.0,0.0,0.0,0.0,0.0,0.0,0.0,0.0,0.0,0.0,0.0,0.0,0.0,0.0,0.0,0.0,0.0,0.0,0.0,0.0,0.0,0.0,0.0,0.0,0.0,0.0,0.0,0.0,0.0,0.0,0.0,0.0,0.0,0.0,0.0,0.0,0.0,0.0,0.0,0.0,0.0,0.0,0.0,0.0,0.0,0.0,0.0,0.0,0.0,0.0,0.0,0.0,0.0,0.0,0.0,0.0,0.0,0.0,0.0,0.0,0.0,0.0,0.0,0.0,0.0,0.0,0.0,0.0,0.0,0.0,0.0,0.0,0.0,0.0,0.0,0.0,0.0,0.0,0.0,0.0,0.0,0.0,0.0,0.0,0.0,0.0,0.0,0.0,0.0,0.0,0.0,0.0,0.0,0.0,0.0,0.0,0.0,0.0,0.0,0.0,0.0,0.0,0.0,0.0,0.0,0.0,0.0,0.0,0.0,0.0,0.0,0.0,0.0,0.0,0.0,0.0,0.0,0.0,0.0,0.0,0.0,0.0,0.7623,0.0,0.0,0.0,0.0,0.0,0.0,0.0,0.0,0.0,0.0,0.0,0.0,0.0,0.0,0.0,0.0,0.0,0.0,0.0,0.0,0.0,0.0,0.0,0.0,0.0,0.0,0.0,0.0,0.0,0.0,0.0,0.0,0.0,0.0,0.0,0.0,0.0,0.0,0.0,0.4938,0.5617,0.6355,0.6784,0.712,0.7362,0.0,0.0,0.0,0.0,0.0,0.0,0.0,0.0,0.0,0.0,0.0,0.0,0.0,0.0,0.0,0.0,0.0,0.0,0.0,0.0,0.0,0.0,0.0,0.0,0.0,0.0,0.0,0.0,0.0,0.0,0.0,0.0,0.0,0.0,0.0,0.0,0.0,0.0,0.0,0.0,0.0,0.0,0.0,0.0,0.0,0.0,0.0,0.0,0.0,0.0,0.0,0.0,0.0,0.0,0.0,0.0,0.0,0.0,0.0,0.0,0.0,0.0,0.0,0.0,0.0,0.0,0.0,0.0,0.0,0.0,0.0,0.8341,0.0,0.0,0.0,0.0,0.0,0.0,0.0,0.0,0.0,0.0,0.0,0.0,0.0,0.0,0.0,0.0,0.0,0.0,0.0,0.0,0.0,0.0,0.0,0.0,0.0,0.0,0.0,0.0,0.0,0.0,0.0,0.0,0.0,0.0,0.0,0.0,0.0,0.0,0.5836,0.6793,0.7846,0.8493,0.8652,0.8253,0.8072,0.0,0.0,0.0,0.0,0.0,0.0,0.0,0.0,0.0,0.0,0.0,0.0,0.0,0.0,0.0,0.0,0.0,0.0,0.0,0.0,0.0,0.0,0.0,0.0,0.0,0.0,0.0,0.0,0.0,0.0,0.0,0.0,0.0,0.0,0.0,0.0,0.0,0.0,0.0,0.0,0.0,0.0,0.0,0.0,0.0,0.0,0.0,0.0,0.0,0.0,0.0,0.0,0.0,0.0,0.0,0.0,0.0,0.0,0.0,0.0,0.0,0.0,0.0,1.1783,1.1945,1.1898,1.2438,1.2622,1.2377,1.0748,0.9753,0.9247,0.0,0.0,0.0,0.0,0.0,0.0,0.0,0.0,0.0,0.0,0.0,0.0,0.0,0.0,0.0,0.0,0.0,0.0,0.0,0.0,0.0,0.0,0.0,0.4601,0.4601,0.4944,0.5206,0.0,0.0,0.0,0.0,0.0,0.0,0.0,0.4908,0.531,0.5804,0.7429,0.8491,0.9084,1.004,1.0541,1.0644,0.9549,0.9285,0.9643,0.0,0.0,0.0,0.0,0.0,0.0,0.0,0.0,0.0,0.0,0.0,0.0,0.0,0.0,0.0,0.0,0.0,0.0,0.0,0.0,0.0,0.0,0.0,0.0,0.0,0.0,0.0,0.0,0.0,0.0,0.0,0.0,0.0,0.0,0.0,0.0,0.0,0.0,0.0,0.0,0.0,0.7715,0.7553,0.0,0.0,0.0,0.0,0.0,0.0,0.0,0.0,0.0,0.0,0.0,0.0,0.0,0.0,1.176,1.2605,1.2915,1.272,1.3627,1.3979,1.3859,1.4371,1.4707,1.4845,1.4375,0.0,1.1107,1.0592,0.0,0.0,0.0,0.0,0.0,0.0,0.0,0.0,0.0,0.0,0.0,0.0,0.0,0.0,0.0,0.0,0.0,0.0,0.0,0.0,0.0,0.471,0.5163,0.5486,0.5865,0.605,0.6005,0.0,0.0,0.0,0.0,0.0,0.0,0.5497,0.6487,0.7763,0.9509,1.0633,1.1108,1.2138,1.2691,1.2871,1.2247,1.1512,1.0792,1.0661,0.0,0.0,0.0,0.0,0.0,0.0,0.0,0.0,0.0,0.0,0.0,0.0,0.0,0.0,0.0,0.0,0.0,0.0,0.0,0.0,0.0,0.0,0.0,0.0,0.0,0.0,0.0,0.0,0.0,0.0,0.0,0.0,0.0,0.0,0.0,0.0,0.0,0.0,0.0,0.7711,0.8693,0.8553,0.8446,0.8069,0.0,0.0,0.0,0.0,0.0,0.0,0.0,0.0,0.0,1.1502,1.2643,1.3442,1.3747,1.4698,1.512,1.5068,1.5838,1.6087,1.5993,1.6391,1.6579,1.6543,1.6178,1.5355,1.4119,1.2814,1.1616,1.0582,0.0,0.0,0.0,0.0,0.0,0.9363,0.0,0.0,0.0,0.0,0.0,0.0,0.0,0.0,0.0,0.0,0.0,0.0,0.4765,0.5421,0.5997,0.655,0.6942,0.7081,0.6925,0.0,0.0,0.0,0.0,0.6013,0.5524,0.6601,0.8018,0.9637,1.1471,1.2651,1.3239,1.4269,1.4711,1.4852,1.4693,1.3735,1.2256,1.195,1.1546,1.1073,0.0,0.0,0.0,0.0,0.0,0.0,0.0,0.0,0.0,0.0,0.0,0.0,0.0,0.0,0.0,0.0,0.0,0.0,0.0,0.0,0.0,0.0,0.0,0.0,0.0,0.0,0.0,0.0,0.0,0.0,0.0,0.0,0.0,0.0,0.0,0.0,0.0,0.9293,0.9821,0.955,0.9844,0.9694,0.0,0.0,0.0,0.0,0.0,0.0,1.0784,1.1955,1.2899,1.3609,1.4711,1.5498,1.59,1.6665,1.7028,1.7024,1.7692,1.7996,1.7942,1.8342,1.8433,1.8257,1.787,1.7437,1.6938,1.4884,1.3235,1.2096,1.2393,1.1989,1.1196,1.1339,1.1186,1.0836,0.0,0.0,0.0,0.0,0.0,0.0,0.0,0.0,0.0,0.0,0.0,0.4658,0.5202,0.6386,0.7365,0.7963,0.8124,0.832,0.8555,0.8383,0.7957,0.7265,0.7362,0.7187,0.6734,0.8449,0.9976,1.1183,1.3005,1.4374,1.5299,1.6171,1.6506,1.6271,1.6283,1.5494,1.3999,1.3289,1.2976,1.2885,1.2126,0.0,0.0,0.0,0.0,0.0,0.0,0.0,0.0,0.0,0.0,0.0,0.0,0.0,0.0,0.0,0.0,0.0,0.0,0.0,0.0,0.0,0.0,0.0,0.0,0.0,0.0,0.0,0.0,0.0,0.0,0.0,0.0,0.0,0.0,0.0,0.0,0.0,0.0,1.0699,1.1495,0.0,0.0,0.0,0.0,1.0801,1.2084,1.2929,1.3052,1.4196,1.5204,1.5887,1.7085,1.7856,1.8055,1.845,1.8403,1.777,1.8797,1.9466,1.9703,1.9955,2.0217,2.0386,1.9954,1.9561,1.9014,1.6233,1.4865,1.44,1.3921,1.3682,1.3536,1.2951,1.2472,1.2051,0.0,0.0,0.0,0.0,0.0,0.0,0.0,0.0,0.0,0.4075,0.4746,0.5647,0.6635,0.7471,0.8403,0.9485,0.9645,0.9637,0.9586,0.9505,0.911,0.8323,0.8311,0.8522,0.8851,1.0154,1.1594,1.3013,1.5036,1.631,1.6758,1.7576,1.7952,1.7867,1.7784,1.7504,1.6917,1.5455,1.444,1.3795,1.3573,1.2763,0.0,0.0,0.0,0.0,0.0,0.0,0.0,0.0,0.0,0.0,0.0,0.0,0.0,0.0,0.0,0.0,0.0,0.0,0.0,0.0,0.0,0.0,0.0,0.0,0.0,0.0,0.0,0.0,0.0,0.0,0.0,0.0,0.0,0.0,0.0,0.0,0.0,1.2206,1.3075,0.0,0.0,1.2425,1.2613,1.2853,1.4039,1.4919,1.5324,1.6468,1.7232,1.766,1.9083,1.9679,1.9324,2.0571,2.0888,2.042,2.0813,2.1024,2.1165,2.0851,2.0781,2.0857,2.0828,2.072,2.03,1.8864,1.7119,1.5517,1.5517,1.5111,1.4479,1.4388,1.4118,1.3711,0.0,0.0,0.0,0.0,0.0,0.0,0.0,0.0,0.0,0.4776,0.5619,0.6665,0.7796,0.8703,0.9734,1.0985,1.107,1.1001,1.0797,1.0692,1.0241,0.9313,0.9383,0.9771,1.0489,1.1757,1.326,1.4975,1.6834,1.7874,1.8214,1.8976,1.9357,1.9362,1.9033,1.9053,1.9219,1.7653,1.6337,1.5383,1.5162,1.4227,1.2859,0.0,0.0,0.0,0.0,0.0,0.0,0.0,0.0,0.0,0.0,0.0,0.0,0.0,0.0,0.0,0.0,0.0,0.0,0.0,0.0,0.0,0.0,0.0,0.0,0.0,0.0,0.0,0.0,0.0,0.0,0.0,0.0,0.0,0.0,0.0,1.3356,1.3527,1.4737,1.5236,1.4505,1.4822,1.5077,1.5231,1.5987,1.6836,1.7624,1.8619,1.9326,1.9696,2.0954,2.1449,2.0931,2.2297,2.2506,2.1451,2.2113,2.219,2.1825,2.1423,2.1252,2.1278,2.1439,2.1432,2.121,2.0457,1.9112,1.7504,1.7292,1.6892,1.6374,1.6017,1.5813,1.5579,0.0,0.0,0.0,0.0,0.0,0.0,0.0,0.0,0.5068,0.5469,0.6529,0.7608,0.8639,1.0141,1.1396,1.2352,1.249,1.2452,1.2219,1.1864,1.1262,1.0302,1.0566,1.0985,1.1659,1.3282,1.499,1.6843,1.8197,1.9152,1.9762,2.0325,2.0688,2.0644,2.0013,2.0177,2.0726,1.9717,1.873,1.7745,1.6827,1.5999,1.5168,0.0,0.0,0.0,0.0,0.0,0.0,0.0,0.0,0.0,0.0,0.0,0.0,0.0,0.0,0.0,0.0,0.0,0.0,0.0,0.0,0.0,0.0,0.0,0.0,0.0,0.0,0.0,0.0,0.0,0.0,0.0,0.0,0.0,1.1119,1.3178,1.4694,1.4782,1.6424,1.7211,1.6364,1.693,1.7558,1.7962,1.8204,1.873,1.9734,2.0581,2.1343,2.2203,2.285,2.3044,2.2891,2.3849,2.3098,2.0751,2.2699,2.3037,2.1952,2.1855,2.1772,2.1811,2.1797,2.1849,2.1783,2.0998,2.0636,2.0525,1.9229,1.8997,1.9189,1.7783,1.7422,1.745,0.0,0.0,0.0,0.0,0.0,0.0,0.0,0.498,0.5452,0.6203,0.7429,0.8857,1.0482,1.1499,1.251,1.3635,1.3674,1.3439,1.29,1.2666,1.2341,1.1836,1.2491,1.315,1.3692,1.5267,1.633,1.6953,1.8408,2.0207,2.2178,2.1919,2.188,2.1951,2.1829,2.1638,2.145,2.1125,2.0825,2.0396,1.857,1.7083,1.5901,0.0,0.0,0.0,0.0,0.0,0.0,0.0,0.0,0.0,0.0,0.0,0.0,0.0,0.0,0.0,0.0,0.0,0.0,0.0,0.0,0.0,0.0,0.0,0.0,0.0,0.0,0.0,0.0,0.0,0.0,0.0,0.0,1.3099,1.2886,1.4806,1.636,1.6757,1.7834,1.8489,1.8342,1.886,1.9432,1.9858,2.0399,2.1055,2.2009,2.2505,2.2762,2.2646,2.3552,2.426,2.4681,2.5549,2.5339,2.4115,2.4323,2.4736,2.5103,2.2856,2.192,2.2213,2.2262,2.2276,2.238,2.2071,2.1837,2.1518,2.0091,1.9675,1.9673,1.8942,1.842,1.7979,0.0,0.0,0.0,0.0,0.0,0.0,0.0,0.5186,0.5925,0.6837,0.8171,0.9688,1.1275,1.2451,1.3535,1.4463,1.4423,1.4182,1.3787,1.3346,1.3122,1.3216,1.3884,1.4625,1.534,1.6665,1.7819,1.8689,1.9569,2.1124,2.3238,2.3462,2.3439,2.3213,2.2788,2.2643,2.2648,2.2164,2.1973,2.2,2.0528,1.9116,1.7683,1.7116,1.5891,1.4282,1.3223,1.2146,1.0971,0.9681,0.0,0.0,0.0,0.0,0.0,0.0,0.0,0.0,0.0,0.0,0.0,0.0,0.0,0.0,0.0,0.0,0.0,0.0,0.0,0.0,0.0,0.0,0.0,0.0,1.37,1.5247,1.5721,1.6765,1.7759,1.8499,1.9373,2.007,2.0255,2.0751,2.1242,2.155,2.181,2.217,2.2847,2.3764,2.4205,2.4093,2.496,2.5756,2.6551,2.6956,2.696,2.6725,2.6279,2.612,2.6211,2.5103,2.4703,0.0,2.3796,2.3305,2.3329,2.2885,2.2583,0.0,0.0,0.0,0.0,0.0,1.9259,1.862,0.0,0.0,0.0,0.0,0.0,0.0,0.0,0.5428,0.6336,0.7352,0.8848,1.029,1.1546,1.3082,1.4286,1.4864,1.4838,1.4794,1.4676,1.3999,1.3876,1.4486,1.5035,1.5788,1.6699,1.7852,1.9334,2.0953,2.1264,2.2078,2.3517,2.4873,2.5191,2.4451,2.3545,2.3477,2.4061,2.304,2.2811,2.3077,2.2655,2.1518,1.9922,1.8869,1.7697,1.6387,1.4828,1.3714,1.2724,1.1123,0.0,0.0,0.0,0.0,0.0,0.0,0.0,0.0,0.0,0.0,0.0,0.0,0.0,0.0,0.0,0.0,0.0,0.0,0.0,0.0,0.0,0.0,0.0,0.0,1.5748,1.7503,1.8803,1.8986,1.9241,2.0165,2.0975,2.1668,2.2053,2.2441,2.2788,2.3042,2.2686,2.2685,2.3088,0.0,0.0,0.0,0.0,2.7355,2.8113,2.8066,2.8146,2.8515,2.8167,2.7343,2.6253,2.7782,2.8421,2.8167,2.5734,2.457,2.4414,2.3621,2.3099,2.2735,2.1712,2.1316,2.1128,2.0576,2.0034,1.9402,0.0,0.0,0.0,0.0,0.0,0.0,0.0,0.5261,0.6333,0.7635,0.8944,1.0601,1.2644,1.3429,1.4214,1.5096,1.5346,1.5409,1.5181,1.4951,1.5061,1.5581,1.6692,1.7578,1.8024,1.9582,2.0585,2.0908,2.2621,2.4095,2.5238,2.6129,2.6416,2.6119,2.5483,2.4845,2.4371,2.4525,2.4723,2.4842,2.4419,2.2973,2.1074,2.0566,1.9265,1.7667,1.704,1.5894,1.4505,1.322,1.2368,1.1592,1.0312,0.0,0.0,0.0,0.0,0.0,0.0,0.0,0.0,0.0,0.0,0.0,0.0,0.0,0.0,0.0,0.0,0.0,0.0,0.0,0.0,1.5777,1.7551,1.9023,2.013,2.1105,2.1719,2.1735,2.2393,2.2969,2.3132,2.3384,2.3671,2.3824,2.3761,2.4204,2.5256,2.6099,0.0,2.7507,2.7726,2.806,2.8455,2.8363,2.8443,2.8534,0.0,0.0,2.8044,2.8322,2.798,2.7011,2.5973,2.5295,2.4893,2.4423,2.3964,2.3466,2.2529,2.1811,2.1205,2.1051,2.076,2.0362,0.0,0.0,0.0,0.0,0.0,0.0,0.0,0.5062,0.6207,0.7421,0.9206,1.0884,1.2452,1.3439,1.4198,1.4805,1.5291,1.5475,1.5415,1.5836,1.6315,1.6982,1.8156,1.8966,1.9437,2.0738,2.1573,2.2185,2.3122,2.4298,2.5734,2.585,2.6225,2.6712,2.6415,2.6132,2.5803,2.543,2.5317,2.5349,2.4979,2.4107,2.301,2.2316,2.0884,1.9135,1.8537,1.7506,1.6078,1.4595,1.3793,1.3149,1.1757,1.0621,0.9624,0.0,0.0,0.0,0.0,0.0,0.0,0.0,0.0,0.0,0.0,0.0,0.0,0.0,0.0,0.9503,0.0,0.0,1.7095,1.7583,1.9127,2.0566,2.1461,2.2646,2.3227,2.2897,2.331,2.3906,2.4302,2.4363,2.4684,2.525,2.53,2.5705,2.6524,2.708,2.7719,2.8167,2.8247,2.8407,2.8657,2.8736,2.8712,2.8518,2.8522,2.8534,2.851,2.8506,2.8155,2.7557,2.6932,2.6496,2.6048,2.5184,2.4454,2.3913,2.3296,2.2512,2.1693,2.1625,2.1241,2.0886,0.0,0.0,0.0,0.0,0.0,0.0,0.0,0.0,0.5944,0.7095,0.908,1.0787,1.1851,1.3012,1.3997,1.4603,1.5074,1.5459,1.5734,1.6563,1.7478,1.8304,1.938,2.0259,2.076,2.1614,2.2476,2.3395,2.3395,2.4127,2.5665,2.5392,2.5864,2.688,2.6909,2.6967,2.7174,2.6176,2.5768,2.5722,2.5429,2.5164,2.4755,2.399,2.2402,2.054,1.9729,1.8655,1.7301,1.5724,1.489,1.4327,1.3142,1.2069,1.1076,1.0052,0.8952,0.0,0.0,0.0,0.0,0.0,0.0,0.0,0.0,0.0,0.8771,0.9543,0.9703,1.0986,1.5145,1.8171,1.9941,1.942,2.0644,2.1988,2.2829,2.3835,2.4366,2.4023,2.4366,2.4858,2.5411,2.5378,2.5703,2.6539,2.6659,2.6964,2.7406,2.7985,2.8366,2.8595,2.8614,2.8657,2.8882,2.904,2.8937,2.8627,2.8627,2.8597,2.859,2.859,2.859,2.859,2.8063,2.7495,2.703,2.5916,2.5035,2.4384,2.4164,2.3486,2.2521,2.22,2.1857,2.1467,0.0,0.0,0.0,0.0,0.0,0.0,0.0,0.0,0.0,0.6916,0.8185,0.9576,1.1279,1.2087,1.3124,1.4729,1.497,1.5523,1.6581,1.734,1.817,1.9136,2.0333,2.1226,2.1669,2.2606,2.3172,2.3301,2.4236,2.4873,2.5273,2.5973,2.6668,2.7147,2.7138,2.7185,2.7174,2.7093,2.6977,2.7013,2.6869,2.6236,2.5324,2.5343,2.3856,2.1563,2.0709,1.939,1.794,1.7004,1.6197,1.5478,1.4916,1.3918,1.2779,1.1937,0.0,0.9185,0.8605,0.784,0.7346,0.7767,0.8507,0.9572,0.0,0.0,1.3193,1.4822,1.5666,1.6657,1.8349,1.986,2.1017,2.1465,2.2324,2.3193,2.3908,2.4973,2.5775,2.5848,2.5942,2.6141,2.6385,2.6633,2.682,2.7136,2.7324,2.7754,2.83,2.8679,2.8858,2.884,2.8986,2.9052,2.9052,2.9052,2.9052,2.904,2.904,2.904,2.9052,2.9052,2.9052,2.8973,2.8578,2.7971,2.7174,2.6814,2.6311,2.5648,2.5209,2.4608,2.3918,2.3104,2.2605,2.2483,0.0,0.0,0.0,0.0,0.0,0.0,0.0,0.0,0.0,0.0,0.7676,0.9159,1.0568,1.1809,1.3072,1.4313,1.4946,1.5741,1.6978,1.8111,1.9113,1.994,2.1324,2.2264,2.2681,2.3298,2.3751,2.397,2.4978,2.5702,2.6194,2.6605,2.6939,2.7221,2.7534,2.7685,2.7766,2.78,2.7938,2.8119,2.7897,2.7356,2.6491,2.5646,2.4143,2.2343,2.1015,1.9515,0.0,1.6756,1.6039,1.5615,1.5024,1.4329,1.3545,1.2687,1.1696,0.0,0.9814,0.9035,0.0,0.0,1.0598,1.1591,1.3263,1.4579,1.5666,1.6523,1.8425,2.0138,2.0605,2.1451,2.22,0.0,2.3279,2.4075,2.4908,2.5722,2.6362,2.6715,2.6869,2.6951,2.6809,2.6962,2.7219,2.7592,2.7928,2.825,2.8674,2.8809,2.8943,2.8986,2.9197,2.9275,2.9275,2.9456,2.9456,2.9275,2.9275,2.9197,2.9131,2.9131,2.9131,2.9052,2.8816,2.8407,2.7926,2.7278,2.6787,2.6207,2.5633,2.5178,2.4703,2.3836,2.3258,2.2951,0.0,0.0,0.0,0.0,0.0,0.0,0.0,0.0,0.0,0.0,0.0,0.856,1.0043,1.1627,1.2931,1.3765,1.4753,1.5831,1.7011,1.8541,1.9744,2.0744,2.2129,2.308,2.3519,2.4032,2.4394,2.4694,2.5493,2.6299,2.7037,2.7191,2.7341,2.7679,2.8143,2.8331,2.825,2.8351,2.8554,2.8755,2.8593,2.7952,2.7078,2.5779,2.4184,2.2445,2.0818,1.9291,1.7816,1.6571,1.5817,1.5342,1.4863,1.44,1.3839,1.2974,1.2093,1.1256,1.0615,0.0,0.0,1.1845,1.2781,1.3721,1.5296,1.6595,1.7566,1.8082,2.012,2.1859,2.2251,2.2777,0.0,2.3761,2.4373,2.5092,2.585,2.6479,2.7044,2.7313,2.7534,2.7534,2.7301,2.7441,2.7684,2.8042,2.8479,2.8706,2.8882,2.8961,2.904,2.9197,2.9431,2.9509,2.9509,2.9767,2.9767,2.9509,2.9651,2.9586,2.9365,2.9365,2.9365,2.9365,2.9118,2.8803,2.8498,2.7672,2.7021,2.6539,2.5884,2.5559,2.5337,2.4504,2.4013,2.3721,0.0,0.0,0.0,0.0,0.0,0.0,0.0,0.0,0.0,0.0,0.0,0.0,0.0,0.0,1.2369,1.3059,1.433,1.5612,1.6855,1.8341,1.989,2.1527,2.2736,2.3661,2.4177,2.4897,2.5241,2.5312,2.5664,2.6426,2.7471,2.7484,2.791,2.8791,2.8937,2.887,2.851,2.8949,2.8937,2.8821,2.8835,2.7965,2.6564,2.5942,2.4013,2.1572,2.0205,1.8807,1.7388,1.6719,1.5748,1.4844,1.4853,1.4461,0.0,1.2695,1.1406,1.0459,0.0,0.0,1.173,1.418,1.523,1.6163,1.8224,1.8822,1.9362,2.0569,2.1092,2.1788,2.3205,2.3711,2.4211,2.5251,2.5997,2.6517,2.6787,2.7464,2.7881,2.7893,2.7881,2.7962,0.0,2.8339,2.851,2.851,2.8816,2.9052,2.9052,2.9275,2.9419,2.9419,2.9611,2.9792,2.9792,3.0011,3.0011,2.9792,3.0139,3.0292,3.0075,3.0075,3.0075,3.0075,2.9586,2.9184,2.8712,2.7834,2.7278,2.6809,2.5895,2.5728,2.5812,2.5359,2.5168,2.5158,0.0,0.0,0.0,0.0,0.0,0.0,0.0,0.0,0.0,0.0,0.0,0.0,0.0,0.0,0.0,0.0,1.3628,1.4784,1.6774,1.8034,1.943,2.1029,2.2444,2.3547,2.4365,2.4852,2.5367,2.5873,2.6652,2.7226,2.7746,2.8282,2.8518,2.85,2.84,2.8325,2.8187,2.8325,2.8762,2.9403,2.8635,2.8106,2.7468,2.5567,2.3583,2.1596,0.0,1.7812,1.6557,1.5148,1.4364,1.3944,1.3891,1.3515,1.3034,1.2371,1.1806,1.1645,1.2258,0.0,1.3416,1.5259,1.634,1.7351,1.8797,1.9706,2.0466,2.1026,2.173,2.2442,2.2846,2.386,2.4925,2.5496,2.6617,2.7492,2.7603,2.8093,2.8269,2.7928,2.803,0.0,0.0,0.0,0.0,2.8724,2.8973,2.9131,2.9275,2.9341,2.9509,2.9689,2.9779,2.9792,2.9792,2.9869,2.9869,2.9792,2.9934,2.9934,2.9856,2.9856,2.9767,2.9586,2.9353,2.9118,2.8961,2.8111,2.7545,2.7196,2.6456,2.6052,2.5895,2.6041,2.603,2.603,0.0,0.0,0.0,0.0,0.0,0.0,0.0,0.0,0.0,0.0,0.0,0.0,0.0,0.0,0.0,0.0,0.0,1.4054,1.6058,1.7295,1.8671,2.02,2.1591,2.2734,2.3598,2.4071,2.4636,2.5247,2.6008,2.6604,2.7136,2.7592,2.7842,2.7921,2.7837,2.7766,2.7624,2.7766,2.8196,2.875,2.7877,2.7255,2.6618,2.4489,2.2577,0.0,1.8309,1.6709,1.5444,1.4261,1.358,1.3208,1.3086,1.2781,1.2405,1.205,1.2007,1.224,1.3257,1.391,1.4697,1.6696,1.7758,1.8653,1.9836,2.0633,2.1133,2.1095,2.1837,2.249,2.2509,2.3819,2.5004,2.5463,2.6848,2.7789,2.7726,2.8208,2.849,2.8158,2.8259,0.0,0.0,0.0,0.0,2.9028,2.9394,2.9663,2.9808,2.9982,3.0173,3.0369,3.0369,3.0369,3.0369,3.0325,3.0314,3.0392,3.0302,3.0302,3.0302,3.0237,3.0068,2.9795,2.9571,2.9536,2.9455,2.8698,2.8302,2.7941,2.709,2.6622,2.6467,2.6622,2.6693,2.6693,0.0,0.0,0.0,0.0,0.0,0.0,0.0,0.0,0.0,0.0,0.0,0.0,0.0,0.0,0.0,0.0,0.0,0.0,1.4748,1.6245,1.763,1.9033,2.0165,2.1173,2.1992,2.2713,2.3148,2.3458,2.3852,2.4614,2.567,2.567,2.6103,2.6982,2.7141,2.7074,2.6739,2.7074,2.7113,2.6832,2.6401,2.5523,2.4285,2.2764,2.0914,1.8907,1.7082,1.5434,1.4213,1.4001,0.0,0.0,1.2575,1.229,1.1947,1.1954,1.2024,1.2442,1.3978,1.4767,1.578,1.8455,1.9427,2.0038,2.1211,2.1423,2.1361,2.0963,2.1348,2.1886,0.0,0.0,2.4536,2.5347,2.6564,2.7442,2.7442,2.8155,2.8582,0.0,0.0,0.0,0.0,0.0,0.0,2.9506,0.0,3.062,3.0658,3.1122,3.1399,3.1386,3.1386,3.1386,3.1468,3.1271,3.1344,3.1513,3.1331,3.1252,3.1161,3.1016,3.0779,3.0541,3.0356,3.0331,3.0348,2.9612,2.9138,2.8869,2.7696,2.7348,2.7429,2.7126,2.7126,2.7267,0.0,0.0,0.0,0.0,0.0,0.0,0.0,0.0,0.0,0.0,0.0,0.0,0.0,0.0,0.0,0.0,0.0,0.0,1.3799,1.4532,1.5648,1.7389,1.868,1.9831,2.0876,2.1557,2.2186,2.2847,2.304,2.3263,2.354,2.354,2.3678,2.3941,2.3954,2.3954,2.3829,2.4041,2.4406,2.476,2.3917,2.3479,2.3178,2.1616,2.0006,1.8349,1.6904,1.5563,0.0,0.0,0.0,0.0,0.0,1.3348,1.3771,1.3359,1.3931,1.4958,1.5871,1.6942,1.8029,1.9469,2.0071,2.0356,2.0592,2.0733,2.0709,2.0197,2.0595,2.1021,0.0,0.0,0.0,2.487,2.6788,0.0,2.844,2.9318,0.0,0.0,0.0,2.9905,3.0555,3.0288,0.0,0.0,3.0666,3.0783,3.1173,3.1323,3.148,3.1724,3.1468,3.1549,3.1954,3.1893,3.1829,3.1682,3.1682,3.1508,3.1347,3.1266,3.1185,3.0929,3.053,3.027,3.0276,2.9481,2.901,2.8826,2.8387,2.7995,2.773,2.8018,2.8018,2.8007,0.0,0.0,0.0,0.0,0.0,0.0,0.0,0.0,0.0,0.0,0.0,0.0,0.0,0.0,0.0,0.0,0.0,0.0,0.0,1.333,1.4429,1.5786,1.7033,1.8109,1.8929,1.9323,1.9842,2.0477,2.06,2.0915,2.1329,2.1329,2.1576,2.2046,2.2046,2.2046,2.2092,2.2351,2.2644,0.0,0.0,2.2097,2.1613,2.0373,1.8908,1.7456,1.6206,0.0,0.0,0.0,0.0,1.3834,1.3729,1.4234,1.4854,1.4585,0.0,1.6338,1.7167,1.8215,1.9381,2.0375,2.0727,2.0792,2.0816,2.0505,1.9947,1.9156,1.9392,0.0,0.0,0.0,0.0,0.0,0.0,0.0,2.7948,2.8816,2.9407,0.0,2.9677,0.0,3.0313,3.0381,3.0766,0.0,3.1468,3.1436,3.1738,3.2072,3.2377,3.246,3.2389,3.2504,3.2963,3.2739,3.25,3.2268,3.2268,3.2104,3.175,3.168,3.1472,3.1071,0.0,3.0542,3.0424,2.996,2.9646,2.9358,2.8901,2.8566,2.8383,2.8566,2.8578,2.8486,0.0,0.0,0.0,0.0,0.0,0.0,0.0,0.0,0.0,0.0,0.0,0.0,0.0,0.0,0.0,0.0,0.0,0.0,0.0,0.0,1.3455,1.425,1.5459,1.626,1.6694,1.6863,1.7144,1.7472,1.7642,1.8179,1.9083,1.9083,1.9621,2.0587,2.0587,2.0624,2.0753,2.1144,2.1267,2.1156,2.1462,2.0941,1.9909,0.0,0.0,0.0,0.0,0.0,0.0,0.0,1.4675,1.4521,1.4736,1.5221,1.5846,1.5815,1.643,1.7287,1.8141,1.9099,2.0163,2.1265,2.1363,2.1154,2.1297,2.0361,1.9113,1.7859,0.0,1.7952,1.7486,0.0,2.0826,2.2048,0.0,2.5203,2.6926,2.7557,2.8142,2.901,2.9234,2.9312,2.9514,3.0094,3.0884,3.1795,3.1996,3.2139,3.2215,3.2849,3.3322,3.3398,3.3496,3.3746,3.3944,3.3576,3.3186,3.2951,3.3034,3.2771,3.2243,3.2087,3.1717,3.1195,0.0,0.0,3.0676,3.048,3.0311,3.0089,2.9473,2.9209,2.9131,2.8961,2.8882,2.8882,0.0,0.0,0.0,0.0,0.0,0.0,0.0,0.0,0.0,0.0,0.4272,0.5029,0.0,0.0,0.0,0.0,0.0,0.0,0.0,0.0,0.0,1.3202,1.4377,1.5186,1.5579,1.5959,1.6199,1.63,0.0,1.6754,1.6876,1.6876,1.7197,1.7889,1.7771,1.8055,1.8666,1.9114,1.9275,1.9275,1.9703,1.947,1.8797,1.8176,0.0,0.0,0.0,0.0,0.0,0.0,1.5525,1.586,1.6227,1.7007,1.7814,1.7338,1.8074,1.9209,1.9507,2.034,2.1274,2.1864,2.1502,2.0763,2.0151,1.9033,0.0,0.0,0.0,1.685,1.6419,1.8171,0.0,2.1443,0.0,0.0,0.0,0.0,2.7636,0.0,0.0,0.0,0.0,0.0,0.0,0.0,0.0,0.0,3.219,3.2303,3.2735,3.3386,3.3992,3.405,3.3746,3.403,3.392,3.3344,3.35,3.3246,3.2574,3.2574,3.2203,3.1501,0.0,0.0,3.0363,2.9804,2.9749,2.9839,2.9752,2.9714,2.9702,2.9624,2.9521,2.9263,0.0,0.0,0.0,0.0,0.0,0.0,0.0,0.2612,0.3309,0.3718,0.4546,0.5009,0.4723,0.5414,0.0,0.0,0.0,0.0,0.0,0.0,0.0,0.0,0.0,0.0,0.0,0.0,0.0,0.0,0.0,0.0,0.0,0.0,0.0,0.0,0.0,0.0,1.779,1.8277,1.8641,1.8946,0.0,0.0,0.0,0.0,0.0,0.0,0.0,0.0,0.0,0.0,1.5898,1.641,1.7072,1.7796,1.8306,1.8022,1.8786,1.9773,1.9876,2.0703,2.1604,2.177,2.1155,2.027,1.9149,0.0,0.0,0.0,0.0,1.5607,1.5553,0.0,0.0,0.0,0.0,0.0,0.0,0.0,0.0,0.0,0.0,0.0,0.0,0.0,0.0,0.0,0.0,0.0,3.1763,3.1953,3.2555,3.385,3.3822,3.3874,3.4043,3.4256,3.4004,3.3122,3.35,3.3233,3.2459,3.25,3.2105,3.1314,3.0959,0.0,2.9658,2.9465,2.9509,2.9599,2.9599,2.9702,2.9792,2.9792,2.9702,2.9521,0.0,0.0,0.0,0.0,0.0,0.0,0.0,0.3206,0.4019,0.4479,0.511,0.5319,0.4621,0.5043,0.5448,0.0,0.0,0.0,0.0,0.0,0.0,0.0,0.0,0.0,0.0,0.0,0.0,0.0,0.0,0.0,0.0,0.0,0.0,0.0,0.0,0.0,0.0,0.0,1.8132,0.0,0.0,0.0,0.0,0.0,0.0,0.0,0.0,0.0,0.0,0.0,1.5827,1.6221,1.7144,1.7884,1.8383,1.8215,1.8965,1.9831,1.9911,2.073,2.1507,2.1432,2.0661,1.9511,1.8219,1.6763,0.0,0.0,1.4515,1.47,1.4912,0.0,0.0,0.0,0.0,0.0,0.0,0.0,0.0,0.0,0.0,0.0,0.0,0.0,0.0,0.0,0.0,0.0,3.1198,3.1478,3.229,3.3766,3.3303,3.3286,3.3817,3.4022,3.3584,3.2618,3.3308,3.3094,3.2072,3.2179,3.1772,3.0918,3.063,0.0,0.0,2.9341,2.9419,2.9509,2.9509,2.9599,2.9792,2.9792,2.9792,2.9624,0.0,0.0,0.0,0.0,0.0,0.0,0.0,0.3628,0.4439,0.5198,0.5712,0.5821,0.5185,0.5094,0.5067,0.0,0.0,0.0,0.0,0.0,0.0,0.0,0.0,0.0,0.0,0.0,0.0,0.0,0.0,0.0,0.0,0.0,0.0,0.0,0.0,0.0,0.0,0.0,0.0,0.0,0.0,0.0,0.0,0.0,0.0,0.0,0.0,0.0,0.0,0.0,0.0,1.4961,1.5936,1.7225,1.8285,1.7725,0.0,0.0,2.0093,2.0585,2.0968,2.1121,1.9758,1.8146,1.7306,0.0,0.0,1.403,1.4294,1.4653,1.4441,0.0,0.0,0.0,0.0,2.0545,0.0,0.0,0.0,0.0,0.0,0.0,0.0,0.0,0.0,0.0,0.0,0.0,0.0,3.083,3.1334,3.2013,3.2137,3.2149,3.2064,3.27,3.2498,3.1556,3.2794,3.2754,3.1552,3.1868,3.1403,3.0408,0.0,0.0,0.0,2.9419,2.9521,2.9792,2.9792,2.9792,2.9792,2.9792,2.9611,2.9419,0.0,0.0,0.0,0.0,0.0,0.0,0.3686,0.473,0.5605,0.6304,0.69,0.705,0.6565,0.589,0.5361,0.0,0.0,0.0,0.0,0.0,0.0,0.0,0.0,0.0,0.0,0.0,0.0,0.0,0.0,0.0,0.0,0.0,0.0,0.0,0.0,0.0,0.0,0.0,0.0,0.0,0.0,0.0,0.0,0.0,0.0,0.0,0.0,0.0,0.0,0.0,0.0,0.0,1.4818,1.5824,0.0,0.0,1.789,1.8868,1.9209,1.9915,2.0428,2.0084,1.893,1.7584,1.658,0.0,1.3952,1.3441,1.3459,1.3658,1.3965,0.0,0.0,0.0,0.0,0.0,0.0,0.0,0.0,0.0,0.0,0.0,0.0,0.0,0.0,0.0,0.0,0.0,0.0,2.9505,3.041,3.1217,3.1309,3.1541,3.1966,3.2598,3.2434,3.1399,3.2782,3.2591,3.1097,3.1514,3.1193,3.0122,0.0,0.0,0.0,2.9341,2.9431,2.9521,2.9456,2.9546,2.9792,2.9611,2.9509,2.9341,0.0,0.0,0.0,0.0,0.0,0.2213,0.4403,0.5402,0.6256,0.708,0.7719,0.7869,0.7455,0.6687,0.5929,0.5312,0.5919,0.0,0.0,0.0,0.0,0.0,0.0,0.0,0.0,0.0,0.0,0.0,0.0,0.0,0.0,0.0,0.0,0.0,0.0,0.0,0.0,0.0,0.0,0.0,0.0,0.0,0.0,0.0,0.0,0.0,0.0,0.0,0.0,0.0,0.0,0.0,0.0,0.0,0.0,0.0,1.7106,1.7917,1.853,1.9165,1.9542,1.9299,1.8133,1.687,0.0,0.0,1.3417,1.313,1.2949,1.3035,1.3723,1.4126,1.4907,1.6612,0.0,1.8975,0.0,0.0,0.0,0.0,0.0,0.0,0.0,0.0,0.0,0.0,0.0,0.0,0.0,2.8131,2.9199,3.0173,3.0344,3.0678,3.1296,3.1856,3.1782,3.1173,3.2281,3.2164,3.086,3.1178,3.0857,3.0035,0.0,0.0,0.0,2.9443,2.9431,2.9353,2.93,2.9456,2.9689,2.9509,2.9341,2.9263,0.0,0.0,0.0,0.0,0.0,0.0,0.4666,0.5335,0.6037,0.7247,0.7855,0.7975,0.7443,0.7199,0.6718,0.585,0.5918,0.0,0.0,0.0,0.0,0.0,0.0,0.0,0.0,0.0,0.0,1.1124,0.0,0.0,0.0,0.0,0.0,0.0,0.0,0.0,0.0,0.0,0.0,0.0,0.0,0.0,0.0,0.0,0.0,0.0,0.0,0.0,0.0,0.0,0.0,0.0,0.0,0.0,0.0,0.0,1.6151,1.7169,1.8343,1.8416,1.8282,1.8833,1.7437,1.5764,0.0,0.0,1.3227,1.3219,1.3084,1.322,1.3852,1.3983,1.4709,1.6951,1.7688,0.0,0.0,0.0,0.0,0.0,0.0,0.0,0.0,0.0,0.0,0.0,0.0,0.0,0.0,2.6857,2.7603,2.8522,2.8907,2.9209,2.9431,3.0002,3.0448,3.0633,3.116,3.1329,3.1071,3.0791,3.0448,0.0,0.0,0.0,0.0,2.9702,2.9546,2.9131,2.9624,2.9611,2.9419,2.9419,2.9275,2.9052,0.0,0.0,0.0,0.0,0.0,0.0,0.0,0.4962,0.5969,0.6792,0.755,0.7826,0.7334,0.6937,0.6539,0.6121,0.6095,0.0,0.0,0.0,0.0,0.0,0.0,0.0,0.0,0.0,1.0067,1.0679,1.1581,1.2113,0.0,0.0,0.0,0.0,0.0,0.0,0.0,0.0,0.0,0.0,0.0,0.0,0.0,0.0,0.0,0.0,0.0,0.0,0.0,0.0,0.0,0.0,0.0,0.0,0.0,1.3687,1.4495,0.0,1.6,1.6186,1.6263,1.6317,1.5392,1.4404,1.4387,0.0,1.237,1.2099,1.2225,1.2819,1.4323,1.5527,1.6489,1.7194,1.8899,0.0,0.0,0.0,0.0,0.0,0.0,0.0,0.0,0.0,0.0,0.0,0.0,0.0,0.0,2.5935,2.6764,2.781,2.8407,2.8736,2.8816,2.9684,3.0035,2.9942,3.0647,3.0708,3.0094,3.0121,0.0,0.0,0.0,0.0,0.0,2.9509,2.9431,2.9341,2.9431,2.9509,2.9419,2.9419,2.9341,2.9213,0.0,0.0,0.0,0.0,0.0,0.0,0.0,0.4286,0.5333,0.6157,0.6893,0.7201,0.6944,0.6668,0.6349,0.6043,0.5954,0.0,0.0,0.0,0.0,0.0,0.0,0.0,0.0,0.9047,0.9645,1.0419,1.1262,1.1876,1.2243,1.273,1.2839,0.0,0.0,0.0,0.0,0.0,0.0,0.0,0.0,0.0,1.0965,0.0,0.0,0.0,0.0,0.0,0.0,0.0,0.0,0.0,0.0,0.0,0.0,0.0,1.283,1.3723,0.0,1.4855,1.5035,1.4911,1.4336,0.0,0.0,0.0,1.2224,1.1972,1.2289,1.2961,1.4169,1.5985,1.7323,0.0,0.0,0.0,0.0,0.0,0.0,0.0,0.0,0.0,0.0,0.0,0.0,0.0,0.0,0.0,0.0,0.0,2.5852,2.6494,2.7336,2.7765,2.7834,2.8581,2.8994,2.908,2.947,2.9634,2.95,2.9411,0.0,0.0,0.0,0.0,0.0,2.9275,2.9275,2.9275,2.9275,2.9341,2.9419,2.9353,2.9341,2.9291,0.0,0.0,0.0,0.0,0.0,0.0,0.0,0.3327,0.4219,0.531,0.5899,0.6246,0.6368,0.638,0.6193,0.5711,0.0,0.0,0.0,0.0,0.0,0.0,0.0,0.0,0.0,0.8926,0.9605,1.0312,1.1271,1.1864,1.2085,1.2641,1.2629,1.2162,0.0,0.0,0.0,0.0,0.0,0.0,0.0,0.0,0.0,0.0,0.0,0.0,0.0,0.0,0.0,0.0,0.0,0.0,0.0,0.0,0.0,0.0,0.0,0.0,0.0,1.4064,0.0,0.0,0.0,0.0,0.0,0.0,0.0,1.253,1.2937,1.3433,1.3765,1.5571,1.7016,0.0,0.0,0.0,0.0,0.0,0.0,0.0,0.0,0.0,0.0,0.0,0.0,0.0,0.0,0.0,0.0,0.0,2.4861,2.4861,2.5863,2.6517,2.673,2.701,2.7485,2.8173,2.7871,2.8219,2.9102,2.8635,0.0,0.0,0.0,0.0,0.0,2.9052,2.9052,2.9052,2.9131,2.9197,2.9341,2.9118,2.9172,2.9291,0.0,0.0,0.0,0.0,0.0,0.0,0.0,0.0,0.0,0.0,0.473,0.5019,0.5122,0.5381,0.5486,0.0,0.0,0.0,0.0,0.0,0.0,0.0,0.0,0.0,0.0,0.8365,0.9249,1.0516,1.0934,1.1734,1.2825,1.2783,1.2764,1.2785,1.2375,0.0,0.0,0.0,0.0,0.0,0.0,0.0,0.0,0.0,0.0,0.0,0.8162,0.8823,0.0,0.0,0.0,0.0,0.0,0.0,0.0,0.0,1.0644,1.0775,1.1196,0.0,1.1853,1.159,1.1419,1.1165,0.0,0.0,0.0,0.0,0.0,1.2305,1.5209,1.4774,1.4508,0.0,0.0,0.0,0.0,0.0,0.0,0.0,0.0,0.0,0.0,0.0,0.0,0.0,0.0,0.0,0.0,0.0,2.4625,2.4625,2.4871,2.5359,2.6091,2.6517,2.6749,2.6934,2.682,2.6985,2.7393,2.729,0.0,0.0,0.0,0.0,2.8419,2.8419,2.8566,2.8882,2.9052,2.904,2.8949,2.9052,2.8872,2.8504,0.0,0.0,0.0,0.0,0.0,0.0,0.0,0.0,0.0,0.0,0.0,0.0,0.0,0.0,0.0,0.0,0.0,0.0,0.0,0.0,0.0,0.0,0.0,0.0,0.767,0.8036,0.9072,1.0794,1.1113,1.2002,1.3402,1.3248,1.3185,1.3113,1.2361,0.0,0.0,0.0,0.0,0.0,0.0,0.0,0.0,0.0,0.0,0.0,0.7597,0.8306,0.0,0.9797,1.0594,1.1195,0.0,0.0,0.0,0.0,0.9873,0.9873,0.9873,1.0368,1.0778,1.0453,1.0136,0.9827,0.9486,0.0,0.0,0.0,0.0,1.102,1.3562,0.0,0.0,0.0,0.0,0.0,0.0,0.0,0.0,0.0,0.0,0.0,0.0,0.0,0.0,0.0,0.0,0.0,0.0,0.0,2.4454,2.4378,2.4368,2.4615,2.5274,2.5443,2.5611,2.5779,2.5779,2.6019,2.6412,2.6412,2.6588,0.0,0.0,0.0,2.758,2.7603,2.7834,2.8211,2.8223,2.8251,2.827,2.8192,2.8033,2.7812,0.0,0.0,0.0,0.0,0.0,0.0,0.0,0.0,0.0,0.0,0.0,0.0,0.0,0.0,0.0,0.0,0.0,0.0,0.0,0.0,0.0,0.0,0.0,0.6617,0.7579,0.7999,0.908,1.0971,1.1582,1.2569,1.3973,1.3926,1.3585,1.3083,1.2378,1.1771,0.0,0.0,0.0,0.0,0.9406,0.0,0.0,0.0,0.0,0.0,0.0,0.0,0.0,0.9342,0.9757,1.0104,1.0151,0.0,0.0,0.0,0.0,0.0,0.9106,0.9698,1.0207,0.9988,0.9582,0.9234,0.8996,0.0,0.0,0.0,0.0,0.0,0.0,0.0,0.0,0.0,0.0,0.0,0.0,0.0,0.0,0.0,0.0,0.0,0.0,0.0,0.0,0.0,0.0,0.0,0.0,0.0,0.0,2.4206,2.411,2.4196,2.4368,2.4368,2.454,2.469,2.4775,2.5115,2.56,2.56,2.5863,0.0,0.0,0.0,2.6577,2.6622,2.694,2.7302,2.7012,2.7115,2.7347,2.6976,2.6866,2.6878,0.0,0.0,0.0,0.0,0.0,0.0,0.0,0.0,0.0,0.0,0.0,0.0,0.0,0.0,0.0,0.0,0.0,0.0,0.0,0.0,0.0,0.0,0.6054,0.6693,0.7251,0.8439,0.9605,1.0838,1.2052,1.3347,1.4654,1.4359,1.3552,1.2391,1.2301,1.1752,1.0937,0.0,0.0,0.0,0.0,0.0,0.0,0.0,0.0,0.0,0.0,0.0,0.0,0.9192,0.9605,0.9885,0.968,0.0,0.0,0.0,0.0,0.0,0.8679,0.8798,0.8911,0.8984,0.8858,0.8679,0.8381,0.0,0.0,0.0,0.0,0.0,0.0,0.0,0.0,0.0,0.0,0.0,0.0,0.0,0.0,0.0,0.0,0.0,0.0,0.0,0.0,0.0,0.0,0.0,0.0,0.0,0.0,2.41,2.3927,2.3841,2.3927,2.3927,2.3927,2.4013,2.4196,2.4368,2.4454,2.4454,2.4625,0.0,0.0,2.4861,2.5443,2.5454,2.5863,2.6389,2.5965,2.5925,2.6041,2.5633,2.5409,2.5228,0.0,0.0,0.0,0.0,0.0,0.0,0.0,0.0,0.0,0.0,0.0,0.0,0.0,0.0,0.0,0.0,0.0,0.0,0.0,0.0,0.0,0.5259,0.6448,0.7385,0.7953,0.8649,0.9976,1.2061,1.2827,1.4011,1.5487,1.4928,1.3807,1.2401,1.232,1.1749,1.0889,1.0354,0.0,0.0,0.0,0.0,0.0,0.0,0.0,0.0,0.0,0.0,0.0,0.0,0.8961,0.8998,0.9267,0.0,0.0,0.0,0.0,0.0,0.8474,0.8368,0.8215,0.8275,0.8374,0.8315,0.0,0.0,0.0,0.0,0.0,0.0,0.0,0.0,0.0,0.0,0.0,0.0,0.0,0.0,0.0,0.0,0.0,0.0,0.0,0.0,0.0,0.0,0.0,0.0,0.0,0.0,0.0,0.0,2.3677,2.358,2.3406,2.3406,2.358,2.3841,2.3851,2.3851,2.4024,2.4024,2.4013,2.411,0.0,2.4186,2.4433,2.4615,2.4703,2.4775,2.4644,2.4573,2.4447,2.4215,2.3951,2.3683,0.0,0.0,0.0,0.0,0.0,0.0,0.0,0.0,0.0,0.0,0.0,0.0,0.0,0.0,0.0,0.0,0.0,0.0,0.0,0.0,0.436,0.5227,0.6771,0.793,0.8596,0.931,1.0812,1.3122,1.391,1.4885,1.5979,1.5282,1.4104,1.2447,1.2214,1.1603,1.0689,0.9933,0.9465,0.9204,0.0,0.0,0.0,0.0,0.0,0.0,0.0,0.0,0.0,0.0,0.0,0.0,0.0,0.0,0.0,0.8554,0.8521,0.8474,0.8374,0.8109,0.7842,0.7794,0.7901,0.0,0.0,0.0,0.0,0.0,0.0,0.0,0.0,0.0,0.0,0.0,0.0,0.0,0.0,0.0,0.0,0.0,0.0,0.0,0.0,0.0,0.0,0.0,0.0,0.0,0.0,0.0,0.0,0.0,2.312,2.3024,2.2842,2.2842,2.3073,2.3517,2.3541,2.3481,2.3453,2.3664,2.3557,2.3358,2.3381,2.3371,2.3186,2.3443,2.3317,2.3069,2.3134,2.3008,2.2783,2.2896,2.2611,2.2324,0.0,0.0,0.0,0.0,0.0,0.0,0.0,0.0,0.0,0.0,0.0,0.0,0.0,0.0,0.0,0.0,0.0,0.0,0.0,0.0,0.4111,0.5162,0.6758,0.7937,0.8699,1.0998,1.258,1.3294,1.5245,1.6018,1.5701,1.5423,1.4111,1.2022,1.1981,1.1349,1.0326,0.9832,0.9361,0.8956,0.8043,0.0,0.0,0.0,0.0,0.0,0.0,0.0,0.0,0.0,0.0,0.0,0.0,0.0,0.8088,0.8344,0.8321,0.8221,0.8221,0.7949,0.767,0.7574,0.7473,0.0,0.7812,0.7863,0.0,0.8404,0.0,0.0,0.0,0.0,0.0,0.0,0.0,0.0,0.0,0.0,0.0,0.0,0.0,0.0,0.0,0.0,0.0,0.0,0.0,0.0,0.0,0.0,0.0,0.0,0.0,2.1982,2.1982,2.1982,2.2168,2.2568,2.3219,2.3077,2.2324,2.3137,2.2962,2.2046,2.2213,2.1986,2.136,2.1444,2.1508,2.169,2.1293,2.1085,2.1128,2.1482,2.1561,2.1481,0.0,0.0,0.0,0.0,0.0,0.0,0.0,0.0,0.0,0.0,0.0,0.0,0.0,0.0,0.0,0.0,0.0,0.0,0.0,0.0,0.3673,0.4899,0.6809,0.8459,0.98,1.1762,1.3501,1.5121,1.6315,1.6505,1.5804,1.5257,1.4089,1.2464,1.1944,1.1332,1.0615,0.9622,0.9099,0.8784,0.8037,0.7823,0.0,0.0,0.0,0.0,0.0,0.0,0.0,0.0,0.677,0.7067,0.7587,0.7722,0.7702,0.7929,0.8056,0.8069,0.7754,0.7695,0.7635,0.7326,0.7142,0.0,0.0,0.7672,0.7864,0.0,0.0,0.0,0.0,0.0,0.0,0.0,0.0,0.0,0.0,0.0,0.0,0.0,0.0,0.0,0.0,0.0,0.0,0.0,0.0,0.0,0.0,0.0,0.0,0.0,0.0,2.1524,2.168,2.168,2.1506,2.1157,2.2114,2.2271,2.1783,2.2094,2.1981,2.1441,2.152,2.1417,2.1163,2.0907,2.0742,2.0547,2.0098,1.9908,2.0033,2.0352,2.0325,2.0066,0.0,0.0,0.0,0.0,0.0,0.0,0.0,0.0,0.0,0.0,0.0,0.0,0.0,0.0,0.0,0.0,0.0,0.0,0.0,0.2135,0.3189,0.4437,0.6422,0.8412,1.0249,1.2063,1.3981,1.6084,1.6841,1.6609,1.5455,1.5034,1.3997,1.2451,1.1938,1.129,1.0497,0.9533,0.8995,0.8672,0.8096,0.7998,0.0,0.0,0.0,0.0,0.0,0.0,0.0,0.0,0.618,0.6531,0.7118,0.7352,0.7429,0.7573,0.7835,0.791,0.7579,0.7494,0.7477,0.7286,0.0,0.0,0.7545,0.7731,0.7983,0.0,0.0,0.0,0.0,0.0,0.0,0.0,0.0,0.0,0.0,0.0,0.0,0.0,0.0,0.0,0.0,0.0,0.0,0.0,0.0,0.0,0.0,0.0,0.0,0.0,2.1101,2.0972,2.0918,2.0918,2.0562,1.9793,2.0536,2.0883,2.0918,2.1106,2.0923,2.0451,2.0573,2.0473,2.0151,1.9841,1.9427,1.9158,1.8905,1.8833,1.8863,1.9177,1.9042,1.8749,0.0,0.0,0.0,0.0,0.0,0.0,0.0,0.0,0.0,0.0,0.0,0.0,0.0,0.0,0.0,0.0,0.0,0.0,0.1056,0.1785,0.2653,0.375,0.553,0.7508,0.9756,1.194,1.4024,1.5917,1.6818,1.6339,1.4523,1.4768,1.3784,1.179,1.1892,1.1103,0.9792,0.9533,0.9099,0.8573,0.8321,0.8101,0.7969,0.0,0.0,0.0,0.0,0.0,0.0,0.0,0.5697,0.587,0.6707,0.711,0.7248,0.744,0.764,0.781,0.7898,0.7494,0.7155,0.0,0.0,0.0,0.7916,0.8091,0.8337,0.0,0.0,0.0,0.0,0.0,0.0,0.0,0.0,0.0,0.0,0.0,0.0,0.0,0.0,0.0,0.0,0.0,0.0,0.0,0.0,0.0,0.0,0.0,0.0,0.0,2.0566,2.0294,1.9734,1.9725,1.9353,1.8682,1.8682,1.8984,1.9573,2.0258,1.9953,1.8828,1.9215,1.8925,1.8062,1.7698,1.7464,1.7331,1.7613,1.7679,1.7623,1.7775,1.765,1.7423,0.0,0.0,0.0,0.0,0.0,0.0,0.0,0.0,0.0,0.0,0.0,0.0,0.0,0.0,0.0,0.0,0.0,0.0,0.0502,0.1264,0.2098,0.2991,0.4712,0.6544,0.8474,1.1531,1.4084,1.6171,1.618,1.5706,1.4779,1.4631,1.3873,1.2639,1.2067,1.1323,1.0447,0.9629,0.9054,0.8692,0.8427,0.8534,0.8809,0.0,0.0,0.0,0.0,0.0,0.0,0.0,0.0,0.0,0.6413,0.6736,0.6957,0.7139,0.74,0.7521,0.7132,0.7163,0.0,0.0,0.0,0.0,0.0,0.8027,0.0,0.0,0.0,0.0,0.0,0.0,0.0,0.0,0.0,0.0,0.0,0.0,0.0,0.0,0.0,0.0,0.0,0.0,0.0,0.0,0.0,0.0,0.0,0.0,0.0,0.0,2.0255,2.0119,2.0082,1.9927,1.9478,1.8682,1.8378,1.8378,1.8574,1.891,1.8598,1.7774,1.7948,1.7929,1.7692,1.7355,1.6919,1.6539,1.6563,1.6614,1.6674,1.6648,1.6455,1.6319,0.0,0.0,0.0,0.0,0.0,0.0,0.0,0.0,0.0,0.0,0.0,0.0,0.0,0.0,0.0,0.0,0.0,0.0,0.0,0.0,0.1486,0.2221,0.3436,0.5322,0.8063,1.054,1.2699,1.4599,1.5037,1.4891,1.4231,1.4224,1.3686,1.2787,1.2175,1.1534,1.0889,0.9932,0.9368,0.9106,0.8949,0.9013,0.9176,0.0,0.0,0.0,0.0,0.0,0.0,0.0,0.0,0.0,0.614,0.643,0.6681,0.6774,0.6957,0.703,0.6783,0.0,0.0,0.0,0.0,0.0,0.0,0.0,0.0,0.0,0.0,0.0,0.0,0.0,0.0,0.0,0.0,0.0,0.0,0.0,0.0,0.0,0.0,0.0,0.0,0.0,0.0,0.0,0.0,0.0,0.0,0.0,0.0,0.0,1.9678,1.9535,1.9535,1.9288,1.8873,1.83,1.7685,1.7385,1.7323,1.757,1.7421,1.6911,1.6745,1.6563,1.6363,1.6431,1.6021,1.5525,1.5578,1.5591,1.5501,1.5503,1.549,1.5421,0.0,0.0,0.0,0.0,0.0,0.0,0.0,0.0,0.0,0.0,0.0,0.0,0.0,0.0,0.0,0.0,0.0,0.0,0.0,0.0,0.0822,0.1478,0.2024,0.4123,0.8019,0.9096,1.0343,1.181,1.3485,1.3925,1.3228,1.3693,1.3412,1.2561,1.2196,1.1742,1.1174,1.0395,0.9888,0.9666,0.9614,0.9477,0.9322,0.9216,0.0,0.0,0.0,0.0,0.0,0.0,0.0,0.0,0.601,0.6213,0.644,0.6389,0.6396,0.6441,0.6639,0.0,0.0,0.0,0.0,0.0,0.0,0.0,0.0,0.0,0.0,0.0,0.0,0.0,0.0,0.0,0.0,0.0,0.0,0.0,0.0,0.0,0.0,0.0,0.0,0.0,0.0,0.0,0.0,0.0,0.0,0.0,0.0,0.0,1.8848,1.8765,1.8424,1.8231,1.7934,0.0,1.6775,1.6196,1.6017,1.6404,1.6468,1.6229,1.5667,1.5129,1.4664,1.5117,1.494,1.4436,1.4797,1.4728,1.4367,1.4416,1.4515,1.4544,0.0,0.0,0.0,0.0,0.0,0.0,0.0,0.0,0.0,0.0,0.0,0.0,0.0,0.0,0.0,0.0,0.0,0.0,0.0,0.0,0.0232,0.0631,0.2263,0.4169,0.6361,0.7594,0.8906,1.0291,1.2045,1.3087,1.3433,1.3652,1.3604,1.332,1.2638,1.199,1.141,1.0667,1.0257,1.0043,0.9821,0.9893,1.0058,0.9509,0.9305,0.0,0.0,0.0,0.0,0.0,0.0,0.0,0.6398,0.6537,0.6554,0.6417,0.648,0.6527,0.0,0.6374,0.0,0.0,0.0,0.0,0.0,0.0,0.0,0.0,0.0,0.0,0.0,0.0,0.0,0.0,0.0,0.0,0.0,0.0,0.0,0.0,0.0,0.0,0.0,0.0,0.0,0.0,0.0,0.0,0.0,0.0,0.0,1.8682,1.8637,1.8559,1.8381,1.8218,1.7782,0.0,1.6587,1.5975,1.5182,1.5707,1.5739,1.5408,1.512,1.4903,1.4633,1.4667,1.4517,1.4238,1.3892,1.3762,1.3843,1.3586,1.344,1.3352,0.0,0.0,0.0,0.0,0.0,0.0,0.0,0.0,0.0,0.0,0.0,0.0,0.0,0.0,0.0,0.0,0.0,0.0,0.0,0.0,0.0,0.0664,0.2109,0.3628,0.5139,0.6422,0.7792,0.935,1.0544,1.1714,1.2934,1.2904,1.3075,1.3336,1.2425,1.1923,1.1728,1.1074,1.0718,1.0608,1.0498,1.0452,1.0408,1.0034,0.9673,0.9313,0.8383,0.0,0.0,0.0,0.0,0.0,0.0,0.0,0.6478,0.644,0.6338,0.6275,0.0,0.0,0.0,0.0,0.0,0.0,0.0,0.0,0.0,0.0,0.0,0.0,0.0,0.0,0.0,0.0,0.0,0.0,0.0,0.0,0.0,0.0,0.0,0.0,0.0,0.0,0.0,0.0,0.0,0.0,0.0,1.7488,1.7311,1.7272,1.7487,1.7394,1.7144,1.7138,1.6927,1.6388,1.573,1.4959,1.4126,1.4673,1.4759,1.4411,1.426,1.4111,1.3911,1.3932,1.3815,1.3521,1.3051,1.2824,1.2833,1.229,1.2098,1.2291,0.0,0.0,0.0,0.0,0.0,0.0,0.0,0.0,0.0,0.0,0.0,0.0,0.0,0.0,0.0,0.0,0.0,0.0,0.0,0.0,0.0,0.0837,0.1782,0.2864,0.4235,0.5411,0.6828,0.8522,0.9095,0.0,0.0,0.0,1.2446,1.3041,1.2128,1.1766,1.1828,1.1351,1.1048,1.088,1.0948,1.0796,1.0464,1.0398,0.9962,0.9229,0.8203,0.772,0.75,0.6845,0.0,0.0,0.0,0.0,0.6331,0.6331,0.624,0.6116,0.0,0.0,0.0,0.0,0.0,0.0,0.0,0.0,0.0,0.0,0.0,0.0,0.0,0.0,0.0,0.0,0.0,0.0,0.0,0.0,0.0,0.0,0.0,0.0,0.0,0.0,0.0,0.0,0.0,0.0,1.6968,1.675,1.6318,1.5615,1.5963,1.6012,1.5619,1.5766,1.5739,1.5455,1.4473,1.366,1.2981,1.3431,1.3554,1.3361,1.3285,1.3107,1.2905,1.2945,1.2748,1.2369,1.1999,1.1716,1.1585,1.0855,1.0846,1.1034,0.0,0.0,0.0,0.0,0.0,0.0,0.0,0.0,0.0,0.0,0.0,0.0,0.0,0.0,0.0,0.0,0.0,0.0,-0.2428,0.0,0.0,0.0418,0.1206,0.229,0.3686,0.473,0.5837,0.6988,0.0,0.0,0.0,0.0,0.0,1.2974,0.0,1.1819,1.0998,1.118,1.0793,1.0031,1.0421,1.0529,1.0439,0.9986,0.9516,0.909,0.8555,0.7812,0.7032,0.6781,0.6343,0.0,0.0,0.0,0.0,0.6067,0.6378,0.6669,0.0,0.0,0.0,0.0,0.0,0.0,0.0,0.0,0.0,0.0,0.0,0.0,0.0,0.0,0.0,0.0,0.0,0.0,0.0,0.0,0.0,0.0,0.0,0.0,0.0,0.0,0.0,0.0,0.0,0.0,1.5007,1.5269,1.5251,1.488,1.4915,1.4897,1.4737,1.4815,1.4521,1.3795,1.2964,1.2305,1.1751,1.1797,1.2254,1.2946,1.2506,1.204,1.1695,1.1444,1.1013,1.0563,1.0283,1.0195,1.0166,1.009,0.9757,0.9433,0.0,0.0,0.0,0.0,0.0,0.0,0.0,0.0,0.0,0.0,0.0,0.0,0.0,0.0,0.0,-0.3734,-0.344,-0.2988,-0.2402,-0.2092,-0.1387,-0.0173,0.0748,0.1795,0.307,0.3993,0.5192,0.6807,0.0,0.0,0.0,1.1822,1.2512,0.0,0.0,0.0,0.0,1.1607,1.1268,1.0762,1.0632,1.0479,1.0261,0.9628,0.9126,0.8734,0.8451,0.0,0.0,0.0,0.0,0.627,0.6221,0.0,0.0,0.0,0.0,0.0,0.0,0.0,0.0,0.0,0.0,0.0,0.0,0.0,0.0,0.0,0.0,0.0,0.0,0.0,0.0,0.0,0.0,0.0,0.0,0.0,0.0,0.0,0.0,0.0,0.0,0.0,0.0,0.0,0.0,1.3132,1.3526,1.3515,1.3658,1.402,1.3728,1.3492,1.3414,1.35,1.3156,1.2343,1.1655,1.1156,1.0787,1.0341,1.0823,1.2064,1.1642,1.1443,1.1299,1.0667,1.0176,0.9806,0.897,0.8579,0.8579,0.8029,0.7753,0.7633,0.0,0.0,0.0,0.0,0.0,0.0,0.0,0.0,0.0,0.0,0.0,0.0,0.0,0.0,0.0,0.0,-0.3446,-0.3007,-0.2474,-0.2444,-0.1905,-0.0701,0.0426,0.1491,0.2583,0.3378,0.4653,0.0,0.0,0.0,1.0602,1.1247,1.2055,0.0,1.2177,1.1833,0.0,0.0,0.0,0.0,1.0629,1.0328,1.001,0.9283,0.8829,0.8572,0.8245,0.0,0.0,0.0,0.0,0.0,0.0,0.0,0.0,0.0,0.0,0.0,0.0,0.0,0.0,0.0,0.0,0.0,0.0,0.0,0.0,0.0,0.0,0.0,0.0,0.0,0.0,0.0,0.0,0.0,0.0,0.0,0.0,0.0,0.0,0.0,0.0,0.0,0.0,0.0,0.0,1.2367,1.2277,1.1924,1.2056,1.2822,1.2472,1.2294,1.2352,1.2104,1.1701,1.1038,1.0395,0.9952,0.9767,0.8924,0.9285,1.047,1.03,1.0189,1.0109,0.9428,0.8943,0.8638,0.7595,0.7135,0.7068,0.6403,0.6128,0.6143,0.0,0.0,0.0,0.0,0.0,0.0,0.0,0.0,0.0,0.0,0.0,0.0,-0.3774,-0.3653,-0.351,-0.3246,-0.3311,-0.3243,-0.2906,-0.2683,-0.2094,-0.1009,0.0293,0.0,0.2413,0.3073,0.0,0.0,0.0,0.0,0.9474,1.0229,1.1151,1.2175,1.2107,1.1643,1.0898,0.0,0.0,0.0,0.0,0.996,0.9735,0.0,0.0,0.0,0.0,0.0,0.0,0.0,0.0,0.0,0.0,0.0,0.0,0.0,0.0,0.0,0.0,0.0,0.0,0.0,0.0,0.0,0.0,0.0,0.0,0.0,0.0,0.0,0.0,0.0,0.0,0.0,0.0,0.0,0.0,0.0,0.0,0.0,0.0,0.0,0.0,0.0,0.0,0.0,0.0,1.187,1.1318,1.0899,1.0795,1.1031,1.1247,1.1534,1.1947,1.0877,1.0155,0.9901,0.9122,0.8613,0.8296,0.7757,0.7497,0.7642,0.7987,0.7867,0.7405,0.7152,0.6758,0.6234,0.6036,0.5966,0.5966,0.5903,0.5568,0.5166,0.0,0.0,0.0,0.0,0.0,0.0,0.0,0.0,0.0,0.0,0.0,0.0,0.0,-0.3928,-0.3686,-0.3367,-0.3199,-0.2947,-0.244,-0.2393,-0.1953,-0.0961,-0.0175,0.0704,0.1655,0.2366,0.0,0.0,0.0,0.6936,0.9169,0.9826,1.0753,1.1877,1.2274,1.2199,1.1768,1.1814,0.0,0.0,0.0,0.0,0.0,0.0,0.0,0.0,0.0,0.0,0.0,0.0,0.0,0.0,0.0,0.0,0.0,0.0,0.0,0.0,0.0,0.0,0.0,0.0,0.0,0.0,0.0,0.0,0.0,0.0,0.0,0.0,0.0,0.0,0.0,0.0,0.0,0.0,0.0,0.0,0.0,0.0,0.0,0.0,0.0,0.0,0.0,0.0,0.0,0.0,1.0443,0.9675,0.9494,0.9978,0.9945,0.9786,0.9525,0.8765,0.8255,0.7923,0.7242,0.685,0.6724,0.6199,0.587,0.5731,0.5804,0.6264,0.699,0.6334,0.5873,0.5543,0.5084,0.4821,0.4691,0.4558,0.4425,0.4289,0.0,0.0,0.0,0.0,0.0,0.0,0.0,0.0,0.0,0.0,0.0,0.0,0.0,0.0,-0.3571,-0.3129,-0.2878,-0.2575,-0.2107,-0.2103,-0.1825,-0.1118,-0.0582,0.0179,0.1208,0.0,0.0,0.0,0.0,0.0,0.0,0.9318,1.0303,1.1477,1.2274,1.248,0.0,0.0,0.0,1.1443,0.0,0.0,0.9801,0.0,0.0,0.0,0.0,0.0,0.0,0.0,0.0,0.0,0.0,0.0,0.0,0.0,0.0,0.0,0.0,0.0,0.0,0.0,0.0,0.0,0.0,0.0,0.0,0.0,0.0,0.0,0.0,0.0,0.0,0.0,0.0,0.0,0.0,0.0,0.0,0.0,0.0,0.0,0.0,0.0,0.0,0.0,0.0,0.0,0.8417,0.7979,0.8054,0.8742,0.9114,0.8836,0.7935,0.6934,0.6392,0.6348,0.5577,0.5267,0.5336,0.4665,0.4353,0.422,0.4023,0.4683,0.5804,0.5282,0.4885,0.455,0.4156,0.3892,0.3761,0.3761,0.3694,0.3632,0.0,0.0,0.0,0.0,0.0,0.0,0.0,0.0,0.0,0.0,0.0,0.0,0.0,0.0,0.0,-0.2546,-0.2368,-0.2192,-0.2016,-0.1837,-0.1658,-0.1389,-0.0805,-0.0,0.103,0.0,0.0,0.0,0.0,0.0,0.0,0.0,0.9761,1.0889,1.195,1.2304,1.2058,0.0,1.1628,1.1443,0.0,1.0229,1.0044,0.0,0.0,0.0,0.8871,0.8856,0.0,0.0,0.0,0.0,0.0,0.0,0.0,0.0,0.0,0.0,0.0,0.0,0.0,0.0,0.0,0.0,0.0,0.0,0.0,0.0,0.0,0.0,0.0,0.0,0.0,0.0,0.0,0.0,0.0,0.0,0.0,0.0,0.0,0.0,0.0,0.0,0.0,0.0,0.0,0.4928,0.5321,0.5731,0.6423,0.726,0.8618,0.8692,0.7288,0.5437,0.4753,0.5211,0.4293,0.3972,0.4174,0.3377,0.3023,0.3159,0.2822,0.3088,0.3758,0.3892,0.3627,0.3159,0.3362,0.3295,0.3159,0.3431,0.3362,0.3171,0.0,0.0,0.0,0.0,0.0,0.0,0.0,0.0,0.0,0.0,0.0,0.0,0.0,-0.3369,-0.283,-0.2612,-0.2199,-0.1813,-0.1586,-0.1542,-0.1345,-0.0898,-0.0718,-0.0449,0.0,0.0,0.0,0.0,0.0,0.0,0.0,0.0,0.0,0.0,1.0824,1.1138,1.1107,1.1653,0.0,0.0,1.0655,1.037,0.0,0.0,0.0,0.0,0.0,0.9277,0.0,0.0,0.8476,0.791,0.0,0.0,0.0,0.0,0.0,0.0,0.5548,0.0,0.0,0.0,0.0,0.0,0.0,0.0,0.0,0.0,0.0,0.0,0.0,0.0,0.0,0.0,0.0,0.0,0.0,0.0,0.0,0.0,0.0,0.0,0.0,0.0,0.0,0.0,0.4089,0.4027,0.367,0.3635,0.4054,0.4998,0.5479,0.5365,0.4646,0.4099,0.3829,0.3695,0.2762,0.2394,0.251,0.2403,0.2507,0.2691,0.2624,0.2555,0.269,0.3023,0.2818,0.2214,0.2083,0.1882,0.168,0.1747,0.1747,0.1682,0.0,0.0,0.0,0.0,0.0,0.0,0.0,0.0,0.0,0.0,0.0,0.0,0.0,0.0,-0.2438,-0.2121,-0.1765,-0.142,-0.1125,-0.1195,-0.1122,-0.0719,-0.0494,-0.036,-0.0225,0.0,0.0,0.0,0.0,0.0,0.0,0.0,0.0,0.0,0.0,0.0,0.0,0.0,0.0,0.0,1.0573,0.0,0.0,1.0052,0.9814,0.0,0.0,0.0,0.9358,0.9293,0.8735,0.0,0.0,0.0,0.0,0.0,0.0,0.0,0.0,0.0,0.0,0.0,0.0,0.0,0.0,0.4692,0.0,0.0,0.0,0.0,0.0,0.0,0.0,0.0,0.0,0.0,0.0,0.0,0.0,0.0,0.0,0.0,0.0,0.0,0.0,0.277,0.2661,0.2543,0.248,0.2483,0.2712,0.314,0.3432,0.3377,0.2851,0.2572,0.2349,0.2195,0.1388,0.112,0.1458,0.1624,0.1856,0.2087,0.1818,0.1549,0.1279,0.1411,0.1342,0.1074,0.1008,0.0807,0.0605,0.0538,0.0538,0.0539,0.0,0.0,0.0,-0.279,-0.29,-0.3032,-0.3453,0.0,0.0,0.0,-0.3792,-0.3538,0.0,0.0,0.0,-0.1448,-0.1258,-0.0987,-0.0629,-0.0809,-0.0809,-0.0629,-0.018,0.009,0.018,0.0,0.0,0.0,0.0,0.0,0.0,0.0,0.0,0.0,0.0,0.0,0.0,0.0,0.0,1.0608,1.0368,1.0302,0.0,0.0,0.978,0.0,0.9828,0.9762,0.9614,0.9614,0.8899,0.0,0.0,0.0,0.0,0.0,0.5421,0.0,0.0,0.0,0.0,0.0,0.0,0.0,0.3785,0.392,0.413,0.0,0.0,0.0,0.0,0.0,0.0,0.0,0.0,0.0,0.0,0.0,0.0,0.0,0.0,0.0,0.0,0.2018,0.1396,0.136,0.0832,0.0809,0.1466,0.1802,0.1868,0.1638,0.2165,0.2282,0.1755,0.1135,0.0783,0.0786,0.0238,0.0306,0.08,0.0978,0.1136,0.1406,0.074,0.0202,-0.0135,-0.0538,-0.047,-0.0067,0.0,-0.0,-0.0202,-0.047,-0.0403,-0.0337,0.0,0.0,0.0,-0.2647,-0.2429,-0.2411,-0.3001,0.0,0.0,0.0,0.0,0.0,0.0,0.0,0.0,-0.1413,-0.1052,-0.0629,-0.018,0.0179,0.0224,-0.0135,0.0179,0.0672,0.1435,0.2495,0.0,0.0,0.0,0.0,0.0,0.0,0.0,0.0,0.0,0.0,0.0,0.0,0.0,0.9099,0.9688,0.0,1.0042,1.0309,1.0262,1.0028,1.0355,1.0166,0.974,0.0,0.9045,0.8243,0.0,0.0,0.0,0.0,0.0,0.0,0.0,0.0,0.0,0.0,0.0,0.0,0.4041,0.3976,0.4073,0.0,0.0,0.0,0.0,0.0,0.0,0.0,0.0,0.0,0.0,0.0,0.0,0.0,0.0,0.0,0.0,0.0739,0.0266,-0.0387,-0.0369,-0.0353,-0.0397,0.0114,0.0456,0.0509,0.1019,0.1302,0.1416,0.0562,0.0168,0.0168,0.0057,0.0058,0.0179,0.0433,0.0446,0.0326,0.0133,-0.0269,-0.0942,-0.1615,-0.1412,-0.0672,-0.121,-0.1344,-0.1277,-0.1344,-0.1344,-0.1345,0.0,0.0,0.0,0.0,-0.2203,-0.2247,-0.3009,0.0,0.0,0.0,0.0,0.0,0.0,0.0,0.0,0.0,-0.0723,-0.0189,0.0,0.0,0.0688,0.072,0.0807,0.1208,0.1839,0.2838,0.3964,0.0,0.0,0.0,0.0,0.0,0.0,0.0,0.0,0.0,0.0,0.0,0.8018,0.8268,0.9326,0.0,1.003,1.0498,1.0984,1.1316,1.1035,1.0694,1.0234,0.9777,0.9254,0.0,0.0,0.7528,0.675,0.0,0.5713,0.4642,0.0,0.0,0.0,0.3972,0.0,0.0,0.0,0.4111,0.4059,0.0,0.0,0.0,0.0,0.0,0.0,0.0,0.0,0.0,0.0,0.0,0.0,0.0,0.0,0.0,0.0,-0.0739,-0.0935,-0.1648,-0.1643,-0.1459,-0.1178,-0.1042,-0.0911,-0.0784,-0.028,0.0168,0.0449,0.0,-0.0112,0.0,0.0,-0.0585,-0.1569,-0.1121,-0.0578,-0.0,-0.0401,-0.0942,-0.1681,-0.2221,-0.2087,-0.1614,-0.2084,-0.2217,-0.215,-0.2018,-0.1951,-0.1884,-0.0851,0.0,0.0,0.0,-0.1964,-0.2116,-0.2888,-0.2465,0.0,0.0,0.0,0.0,0.0,0.0,0.0,0.0,0.0,0.0,0.0,0.0,0.0,0.0,0.1588,0.1806,0.215,0.3129,0.426,0.5464,0.0,0.0,0.0,0.0,0.0,0.0,0.0,0.0,0.0,0.0,0.0,0.7753,0.0,0.9827,1.0065,1.0622,1.1476,1.2335,1.1526,1.106,1.0678,0.9993,0.0,0.9211,0.8804,0.8024,0.0,0.0,0.0,0.0,0.0,0.0,0.0,0.0,0.0,0.4409,0.0,0.0,0.0,0.3668,0.0,0.0,0.0,0.0,0.0,0.0,0.0,0.0,0.0,0.0,0.0,0.0,0.0,0.0,0.0,-0.1975,-0.1968,-0.2364,-0.2558,-0.2301,-0.1636,-0.1831,-0.1899,-0.1847,-0.1344,-0.0897,-0.0561,-0.0561,-0.0449,-0.0168,-0.023,-0.1246,-0.3005,-0.2531,-0.1561,-0.04,-0.1006,-0.1547,-0.2087,-0.2424,-0.2424,-0.2356,-0.2621,-0.2686,-0.2686,-0.2488,-0.2356,-0.2221,0.0134,-0.0313,0.0,0.0,-0.1261,-0.1448,-0.1883,-0.1625,0.0,0.0,0.0,0.0,0.0,0.0,0.0,0.0,0.0,0.0,0.0501,0.0,0.0,0.0,0.0,0.0,0.3025,0.4109,0.5198,0.6347,0.0,0.0,0.0,0.0,0.0,0.0,0.6471,0.0,0.0,0.0,0.7438,0.0,0.9167,0.9856,0.0,1.0808,1.1322,1.1662,1.1186,1.0926,1.0786,0.0,1.0043,0.9517,0.0,0.8587,0.0,0.0,0.0,0.0,0.0,0.0,0.0,0.0,0.484,0.0,0.0,0.0,0.4706,0.4545,0.0,0.3897,0.3506,0.0,0.0,0.0,0.0,0.0,0.0,0.0,0.0,0.0,0.0,0.0,0.0,0.0,-0.2446,-0.2151,-0.2497,-0.2618,-0.238,-0.2257,-0.2135,-0.2071,-0.1847,-0.1512,-0.1178,-0.1178,-0.1066,-0.0785,-0.1014,-0.1551,-0.2317,-0.2516,-0.2274,-0.1621,-0.1663,-0.1681,-0.1681,-0.1884,-0.1951,-0.2018,-0.2487,-0.2686,-0.2686,-0.2686,-0.2487,-0.2221,0.0626,0.0045,0.0,0.0,-0.1059,-0.1293,-0.1609,-0.129,0.0,0.0,0.0,0.0,0.0,0.0,0.0,0.0,0.0,0.0,0.0,0.0,0.0,0.0,0.0,0.0,0.0,0.5188,0.6271,0.7407,0.8044,0.0,0.0,0.0,0.0,0.0,0.716,0.0,0.7608,0.0,0.0,0.0,0.0,0.0,0.0,1.1241,1.1719,1.1803,1.1636,1.1281,1.0871,0.0,1.0323,0.0,0.0,0.0,0.0,0.0,0.0,0.0,0.0,0.0,0.0,0.0,0.0,0.0,0.0,0.0,0.4851,0.0,0.0,0.0,0.0,0.0,0.0,0.0,0.0,0.0,0.0,0.0,0.0,0.0,0.0,0.0,0.0,0.0,0.0,0.0,0.0,-0.328,-0.2932,-0.2997,-0.2854,-0.246,-0.2238,-0.1961,-0.1572,-0.1459,-0.1347,-0.1234,-0.1122,-0.1485,-0.2242,-0.2313,-0.2259,-0.2196,-0.206,-0.2087,-0.2154,-0.2218,-0.2284,-0.242,-0.2619,-0.2621,-0.2488,-0.2421,-0.2356,-0.2294,0.1185,0.0,0.0,0.0,0.0,0.0,-0.1056,-0.0898,0.0,0.0,0.0,0.0,0.0393,0.0673,0.0,0.0,0.0,0.1498,0.0,0.0,0.2548,0.0,0.0,0.0,0.0,0.0,0.0,0.8293,0.8704,0.0,0.0,0.0,0.0,0.0,0.0,0.7666,0.7506,0.0,0.0,0.7669,0.8814,0.9697,1.0488,1.1684,1.2149,1.2079,1.1948,1.1559,1.1106,1.0754,1.0362,0.0,0.9732,0.0,0.0,0.0,0.0,0.0,0.629,0.0,0.0,0.0,0.0,0.0,0.0,0.0,0.0,0.0,0.0,0.0,0.0,0.0,0.1916,0.0,0.0,0.0,0.0,0.0,0.0,0.0,0.0,0.0,0.0,0.0,0.0,0.0,0.0,0.0,-0.3465,-0.3677,-0.3522,-0.307,-0.2852,-0.2575,-0.2188,-0.2018,-0.1794,-0.1682,-0.1457,-0.171,-0.2415,-0.2249,-0.232,-0.2582,-0.2458,-0.2423,-0.2491,-0.2554,-0.2552,-0.2554,-0.2487,-0.2421,-0.2357,-0.2354,-0.2354,-0.2363,0.1903,0.1522,0.0,0.0,0.0,0.0,0.0,0.0,0.0,0.0,0.0,0.0,0.0,0.0,0.0,0.0,0.0,0.2069,0.2012,0.0,0.2968,0.0,0.0,0.0,0.0,0.0,0.0,0.0,0.0,0.0,0.0,0.0,0.0,0.0,0.0,0.7873,0.6608,0.7449,0.7917,0.825,0.9439,1.0615,1.1779,0.0,1.2297,1.2265,1.1839,0.0,0.0,1.0491,1.011,0.0,0.0,0.0,0.0,0.0,0.0,0.0,0.0,0.0,0.0,0.6179,0.0,0.0,0.0,0.0,0.4303,0.0,0.0,0.0,0.0,0.0,0.1032,0.0807,0.0,0.0,0.0,0.0,0.0,0.0,0.0,0.0,0.0,0.0,0.0,0.0,0.0,0.0,-0.4184,-0.4181,-0.407,-0.3852,-0.3796,-0.3574,-0.3246,-0.2963,-0.2571,-0.2071,-0.2352,-0.2567,-0.2771,-0.2554,-0.2568,-0.2772,-0.292,-0.2757,-0.2423,-0.2621,-0.2487,-0.2221,-0.2018,-0.2018,-0.2221,-0.2554,-0.2487,-0.2221,0.0,0.0,0.0,0.0,0.0,0.0,0.0,0.0336,0.0,0.0,0.0,0.0,0.0,0.0,0.2962,0.0,0.0,0.2983,0.3159,0.3447,0.0,0.0,0.0,0.6329,0.0,0.0,0.0,0.0,0.0,0.0,0.0,0.0,0.0,0.0,0.0,0.8208,0.0,0.0,0.0,0.0,0.0,1.0262,1.1265,0.0,0.0,1.1752,1.1853,1.1344,0.0,1.0478,1.0061,0.9555,0.946,0.9052,0.8467,0.7862,0.7424,0.0,0.0,0.0,0.6319,0.6227,0.0,0.0,0.0,0.0,0.0,0.0,0.0,0.0,0.0,0.0,0.103,0.0582,0.0,0.0,0.0,0.0,0.0,0.0,0.0,0.0,0.0,0.0,0.0,0.0,0.0,0.0,0.0,-0.4732,-0.4677,-0.4457,-0.4515,-0.4294,-0.363,-0.3852,-0.363,-0.2965,-0.291,-0.2871,-0.2847,-0.2765,-0.2761,-0.2857,-0.3387,-0.3459,-0.3203,-0.3458,-0.3485,-0.3353,-0.2956,-0.2824,-0.2824,-0.2353,-0.2353,-0.256,0.2773,0.0,0.0,0.0,0.0,0.0,0.0,0.0,0.0,0.0,0.2115,0.0,0.2731,0.0,0.336,0.0,0.3348,0.351,0.3936,0.4102,0.0,0.4966,0.5749,0.0,0.0,0.0,0.0,0.0,0.0,1.0557,0.0,0.0,0.0,0.0,0.0,0.0,0.0,0.0,0.7866,0.0,0.0,0.9753,0.0,0.0,1.1473,1.1417,0.0,1.1007,1.0341,1.0158,0.9744,0.9221,0.9054,0.87,0.8303,0.7849,0.7445,0.7094,0.6588,0.6361,0.0,0.6099,0.5787,0.0,0.5058,0.0,0.0,0.0,0.0,0.0,0.0,0.0,0.0,0.0088,-0.0613,0.0,0.0,-0.2669,0.0,0.0,0.0,0.0,0.0,0.0,0.0,0.0,0.0,0.0,0.0,0.0,-0.5449,-0.5218,-0.523,-0.5011,-0.4512,-0.4625,-0.4519,-0.4073,-0.3793,-0.3646,-0.3516,-0.3364,-0.3261,-0.3271,-0.3786,-0.4065,-0.4046,-0.4386,-0.4417,-0.4284,-0.3892,-0.3625,-0.3491,-0.2688,-0.2621,-0.3029,0.0,0.0,0.0,0.0,0.2033,0.0,0.0,0.0,0.1707,0.0,0.2185,0.2593,0.2707,0.3085,0.3397,0.3819,0.3645,0.0,0.4203,0.4436,0.0,0.0,0.6094,0.6865,0.7289,0.0,0.0,0.0,0.0,0.0,0.0,0.0,0.0,0.0,0.9004,0.0,0.8088,0.8241,0.8034,0.7659,0.8691,0.9258,0.9512,1.0054,1.0654,1.1133,1.0741,1.0558,1.0392,0.9514,0.9113,0.8854,0.813,0.813,0.8191,0.7148,0.7115,0.722,0.6556,0.6202,0.5944,0.5798,0.0,0.0,0.0,0.0,0.3306,0.0,0.0,0.0,0.0,0.0,0.0,0.0,-0.0923,0.0,0.0,0.0,0.0,0.0,0.0,0.0,0.0,0.0,0.0,0.0,0.0,0.0,0.0,0.0,-0.6367,-0.6263,-0.5887,-0.5782,-0.5882,-0.5449,-0.5285,-0.5386,-0.5003,-0.48,-0.4772,-0.4497,-0.4222,-0.4121,-0.433,-0.4604,-0.486,-0.5276,-0.5282,-0.502,-0.4758,-0.4492,-0.4223,-0.3491,-0.3424,-0.3556,0.3963,0.3715,0.3398,0.0,0.2561,0.1979,0.0,0.0,0.0,0.0,0.2816,0.322,0.3449,0.39,0.4294,0.4391,0.4408,0.0,0.0,0.0,0.0,0.6698,0.7613,0.8579,0.9695,1.0415,0.0,1.1462,0.0,0.0,1.1184,0.0,0.0,0.0,0.0,0.0,0.818,0.8045,0.7833,0.7687,0.8594,0.9054,0.0,0.0,0.9803,1.0032,1.0243,1.0028,0.9635,0.9214,0.8896,0.8672,0.8377,0.815,0.7917,0.7445,0.7255,0.7031,0.6413,0.6095,0.5868,0.5494,0.5198,0.4801,0.0,0.0,0.0,0.0,0.0,0.0,0.0,0.0,0.0,0.0,0.0,0.0,0.0,0.0,0.0,0.0,0.0,0.0,0.0,0.0,0.0,0.0,0.0,0.0,0.0,0.0,0.0,-0.7015,-0.723,-0.7122,-0.6756,-0.6853,-0.674,-0.647,-0.614,-0.6027,-0.6103,-0.6125,-0.5889,-0.5439,-0.6319,-0.6223,-0.5516,-0.597,-0.6104,-0.5951,-0.5223,-0.4824,-0.4625,-0.4156,-0.382,-0.3689,0.446,0.0,0.0,0.348,0.0,0.0,0.2173,0.0,0.0,0.2634,0.326,0.0,0.4172,0.4619,0.5017,0.5401,0.5209,0.0,0.0,0.0,0.0,0.8129,0.889,1.0014,1.159,1.21,0.0,1.193,0.0,0.0,1.1124,0.0,0.0,0.0,0.0,0.8738,0.0,0.7786,0.7717,0.7908,0.8337,0.0,0.0,0.8871,0.8968,0.9042,0.9378,0.9442,0.9286,0.9003,0.8798,0.858,0.8579,0.8362,0.7999,0.7491,0.7295,0.7074,0.6311,0.5963,0.5722,0.533,0.487,0.4373,0.3755,0.3305,0.2743,0.0,0.0,0.0,0.0,0.0,0.0,0.0,0.0,0.0,0.0,0.0,0.0,0.0,0.0,0.0,0.0,0.0,0.0,0.0,0.0,0.0,0.0,0.0,0.0,-0.7664,-0.7777,-0.7771,-0.7777,-0.7664,-0.7605,-0.7658,-0.7015,-0.7031,-0.7522,-0.7032,-0.6978,-0.7244,-0.734,-0.6979,-0.6292,-0.6333,-0.6387,-0.631,-0.5727,-0.5292,-0.503,-0.4755,-0.4422,-0.4159,0.0,0.0,0.0,0.0,0.0,0.0,0.0,0.2997,0.0,0.3184,0.0,0.4407,0.5111,0.5395,0.5818,0.6583,0.0,0.5962,0.6771,0.7475,0.8356,0.9414,1.0119,1.1242,1.298,1.3634,0.0,0.0,0.0,0.0,0.0,0.0,0.0,0.0,0.0,0.0,0.0,0.7531,0.7634,0.0,0.7985,0.7832,0.7722,0.814,0.8263,0.8211,0.854,0.885,0.909,0.8838,0.8692,0.858,0.8636,0.8584,0.832,0.7442,0.7302,0.7212,0.6259,0.5842,0.5584,0.5203,0.4558,0.394,0.3598,0.303,0.2288,0.1398,0.0985,0.0492,0.0,0.0,0.0,0.0,0.0,0.0,0.0,0.0,0.0,0.0,0.0,0.0,0.0,0.0,0.0,0.0,0.0,0.0,0.0,0.0,0.0,-0.8212,-0.8031,0.0,-0.8732,0.0,-0.8196,-0.8732,-0.7723,-0.7816,-0.8802,-0.7621,-0.7768,-0.8995,-0.8017,-0.7494,-0.7317,-0.6791,-0.6496,-0.6358,-0.5998,-0.5727,-0.5397,-0.5173,-0.4992,-0.4761,0.0,0.0,0.0,0.0,0.0,0.4649,0.4702,0.4084,0.3856,0.4583,0.4996,0.0,0.6384,0.6683,0.6962,0.739,0.7147,0.0,0.0,0.0,0.0,1.0766,1.1469,1.2235,1.2997,1.3348,1.344,0.0,0.0,0.0,0.0,0.0,0.0,0.0,0.0,0.0,0.7964,0.7844,0.0,0.7876,0.7793,0.7714,0.7608,0.7755,0.7919,0.8183,0.8584,0.8798,0.8825,0.8553,0.8468,0.8344,0.7949,0.8345,0.8808,0.7995,0.7362,0.6837,0.6573,0.6016,0.5476,0.5171,0.4894,0.4415,0.3286,0.2921,0.2438,0.1075,0.0447,0.0,-0.0449,0.0,0.0,0.0,0.0,0.0,0.0,0.0,0.0,0.0,0.0,0.0,0.0,0.0,0.0,0.0,0.0,0.0,0.0,0.0,0.0,0.0,-0.882,0.0,0.0,0.0,-0.9197,-0.9406,-0.8474,-0.8335,-0.8939,-0.8595,-0.8687,-0.9176,-0.9114,-0.9003,-0.869,-0.8021,-0.7149,-0.6148,-0.5994,-0.5691,-0.5353,-0.5158,-0.5078,-0.5024,0.0,0.0,0.0,0.0,0.0,0.0,0.0,0.5733,0.0,0.5797,0.6179,0.6694,0.7436,0.7735,0.8092,0.8452,0.8295,0.8228,0.841,0.9142,0.9977,1.0989,1.1894,0.0,1.326,1.3797,1.4089,1.4079,0.0,0.0,0.0,0.0,0.0,0.0,0.0,0.8371,0.0,0.0,0.0,0.7822,0.7676,0.7504,0.7379,0.7438,0.7657,0.7908,0.8207,0.854,0.8804,0.8646,0.8679,0.8744,0.8662,0.8944,0.9103,0.8283,0.7656,0.7098,0.6399,0.5937,0.5502,0.5132,0.4634,0.4013,0.3207,0.2677,0.2069,0.0944,0.0313,-0.0179,-0.0762,-0.1233,0.0,0.0,0.0,0.0,0.0,0.0,0.0,0.0,0.0,0.0,0.0,0.0,0.0,0.0,0.0,0.0,0.0,0.0,0.0,0.0,0.0,0.0,0.0,0.0,0.0,-0.9614,-0.8784,-0.879,-0.9467,-0.9138,-0.9225,-0.9675,-0.9969,-0.9904,-0.9604,-0.8526,-0.7365,-0.6314,-0.6072,-0.5767,-0.5384,-0.5179,-0.5109,-0.5107,0.0,0.6207,0.0,0.0,0.6256,0.0,0.0,0.744,0.7411,0.7107,0.7402,0.7877,0.8522,0.8827,0.9107,0.9416,0.9308,0.9231,0.9298,1.0283,1.0961,1.1205,1.2089,1.2903,1.3571,1.441,1.4734,0.0,0.0,0.0,0.0,0.0,0.0,0.0,0.0,0.0,0.0,0.0,0.7752,0.7912,0.7629,0.7332,0.7136,0.719,0.7428,0.7689,0.7865,0.8309,0.8804,0.8798,0.9001,0.9263,0.9456,0.9501,0.928,0.8568,0.8086,0.7635,0.6587,0.5998,0.5643,0.5164,0.4359,0.3519,0.3125,0.2394,0.1585,0.0811,0.0179,-0.0447,-0.1074,-0.135,0.0,0.0,0.0,0.0,0.0,0.0,0.0,0.0,0.0,0.0,0.0,0.0,0.0,0.0,0.0,0.0,0.0,0.0,0.0,0.0,0.0,-0.9165,-0.9467,0.0,-0.9413,0.0,-0.889,-0.8965,-0.9637,-0.9269,-0.9388,-0.998,-1.0274,-1.0246,-0.9868,-0.8698,-0.761,-0.6722,-0.6357,-0.592,-0.5468,-0.5224,-0.516,-0.5188,0.0,0.0,0.0,0.0,0.0,0.0,0.0,0.9024,0.9179,0.8839,0.8675,0.8911,0.9637,0.9959,0.9947,0.9801,0.9825,0.9982,1.0274,1.0586,1.1247,1.2112,1.265,1.326,1.3941,1.4883,1.5138,0.0,0.0,0.0,0.0,0.0,0.0,0.0,0.0,0.0,0.0,0.7936,0.7899,0.7963,0.7588,0.735,0.7188,0.7079,0.7343,0.779,0.7859,0.8309,0.8804,0.8784,0.9159,0.9539,0.9382,0.9427,0.9451,0.8901,0.8606,0.8315,0.7688,0.6704,0.5695,0.534,0.4458,0.3544,0.3016,0.2158,0.126,0.0582,-0.0313,-0.103,-0.1074,-0.1205,-0.1322,0.0,0.0,0.0,0.0,0.0,0.0,0.0,0.0,0.0,0.0,0.0,0.0,0.0,0.0,0.0,0.0,0.0,0.0,-0.8461,0.0,-0.9395,-0.9684,-0.9621,-0.9614,-0.9762,-0.8837,-0.8599,-0.8911,-0.8705,-0.8991,-0.9558,-0.9701,-0.9543,-0.9199,-0.893,-0.8232,-0.726,-0.6717,-0.6197,-0.5702,-0.5471,-0.5378,-0.535,0.0,0.0,0.0,0.0,0.0,0.0,0.0,0.9665,0.9892,1.0438,1.034,1.0256,1.0432,1.0962,1.1077,1.0665,1.0893,1.1031,1.1002,1.1347,1.1941,1.2969,1.3224,1.3623,1.43,1.4942,1.5274,0.0,0.0,0.0,0.0,0.0,0.0,0.0,0.0,0.8126,0.8199,0.7912,0.7873,0.799,0.7491,0.713,0.6867,0.6758,0.7038,0.7504,0.7703,0.8209,0.8804,0.8896,0.9225,0.962,0.9672,0.9777,0.971,0.8995,0.8461,0.799,0.7365,0.6707,0.6035,0.5611,0.4692,0.3667,0.296,0.1867,0.0805,0.0268,-0.076,-0.1478,-0.1119,-0.1228,-0.1341,0.0,0.0,0.0,0.0,0.0,0.0,0.0,0.0,0.0,0.0,0.0,0.0,0.0,0.0,0.0,0.0,0.0,0.0,-0.8617,0.0,-0.9141,-0.8997,-0.9095,-0.9145,-0.919,-0.8679,-0.8527,-0.8798,-0.8941,-0.9349,-0.9918,-0.9744,-0.9669,-0.9541,-0.8971,-0.8334,-0.7655,-0.7105,-0.6473,-0.5823,-0.5814,-0.5627,-0.537,0.8482,0.0,0.9015,0.0,0.9332,0.9678,1.0325,1.0293,1.0497,1.1447,1.1546,1.1379,1.1022,1.1604,1.1696,1.1109,1.1396,1.1622,1.1568,1.1907,1.2544,1.3466,1.3666,0.0,1.4469,1.5001,1.5352,1.5604,1.5329,0.0,0.0,0.0,0.0,0.0,0.8397,0.83,0.8466,0.8065,0.7996,0.8167,0.7542,0.7136,0.6976,0.6815,0.7038,0.7504,0.7817,0.8268,0.8804,0.8969,0.918,0.9404,0.9732,0.9836,0.9717,0.9159,0.8567,0.7931,0.7306,0.6593,0.5941,0.5392,0.4539,0.363,0.2878,0.1614,0.0403,-0.0268,-0.1164,-0.1703,-0.1299,-0.1354,-0.1336,-0.0922,0.0,0.0,0.0,0.0,0.0,0.0,0.0,-0.2665,-0.2812,0.0,0.0,0.0,0.0,0.0,0.0,0.0,0.0,0.0,0.0,0.0,0.0,-0.8637,-0.8725,-0.8672,-0.8415,-0.8362,-0.8633,-0.8825,-0.9138,-0.9538,-0.9491,-0.946,-0.9479,-0.8789,-0.8327,-0.7881,-0.737,-0.6701,-0.6058,-0.6027,-0.5774,-0.542,0.9175,0.9593,0.9823,0.9647,0.994,1.0361,1.0898,1.0901,1.1089,1.1716,1.2173,1.2173,1.1553,1.169,1.1485,1.0804,1.1125,1.1532,1.1903,1.2296,1.2793,0.0,0.0,1.4378,1.4469,1.5118,1.541,1.541,0.0,0.0,1.3746,0.0,0.9722,0.915,0.8559,0.8469,0.8701,0.8394,0.8345,0.8451,0.7747,0.7544,0.7553,0.7451,0.7553,0.7846,0.8249,0.8586,0.8811,0.9049,0.8969,0.8883,0.9309,0.9399,0.9392,0.9382,0.8956,0.8355,0.7848,0.6519,0.5147,0.4568,0.3856,0.3227,0.2878,0.1566,0.0045,-0.1119,-0.1523,-0.1658,-0.1748,-0.1567,-0.1236,-0.0761,0.0,0.0,0.0,0.0,0.0,0.0,-0.2057,-0.2724,-0.3075,0.0,0.0,0.0,0.0,0.0,0.0,0.0,0.0,-0.8003,-0.8338,0.0,-0.8313,-0.8488,-0.8521,-0.8421,-0.809,-0.799,-0.8174,-0.7999,-0.7926,-0.7937,-0.8579,-0.871,-0.8577,-0.8465,-0.8218,-0.7908,-0.7255,-0.6837,-0.656,-0.6079,-0.5765,-0.5546,1.0053,1.0423,1.0655,1.0523,1.0882,1.1242,1.1539,1.1652,1.188,1.253,1.2644,1.2624,1.2553,1.2578,1.2365,0.0,1.2136,1.2465,0.0,1.2956,1.339,1.3941,1.424,1.4606,1.497,1.5147,1.5313,1.541,0.0,0.0,0.0,1.0562,0.9395,0.8521,0.8456,0.8439,0.8433,0.8457,0.8399,0.8303,0.7943,0.7684,0.7526,0.758,0.7847,0.8219,0.8347,0.8692,0.9061,0.9022,0.9015,0.8942,0.8974,0.919,0.9323,0.9068,0.8798,0.8362,0.7515,0.6696,0.5828,0.4906,0.4332,0.3581,0.2058,0.0644,-0.0537,-0.1208,-0.1655,-0.1925,-0.1837,-0.1925,-0.1871,-0.1407,-0.1229,0.0,0.0,0.0,0.0,0.0,0.0,-0.2326,0.0,-0.3347,0.0,0.0,0.0,0.0,0.0,0.0,0.0,0.0,-0.794,0.0,-0.7911,-0.7868,-0.7889,-0.7937,-0.7622,-0.7681,-0.8008,-0.7763,-0.7811,-0.8127,-0.8402,-0.8478,-0.8385,-0.7935,-0.7678,-0.7496,-0.6919,-0.646,-0.6032,-0.5968,-0.5702,-0.5463,1.0684,1.1109,1.1359,1.1122,1.1553,1.2027,1.2116,1.2353,1.2641,1.305,1.305,1.3094,1.3155,1.3186,0.0,1.2459,1.279,1.3032,1.2989,1.3415,1.3847,1.413,1.4497,1.4862,1.5215,0.0,0.0,1.5313,1.4468,1.3206,1.1566,1.0427,0.9515,0.876,0.872,0.8679,0.8618,0.8495,0.8429,0.8391,0.7894,0.7652,0.7681,0.7723,0.8043,0.8427,0.8533,0.8844,0.9263,0.9106,0.9159,0.9204,0.9079,0.9145,0.9278,0.8903,0.8685,0.8309,0.7402,0.6701,0.5896,0.4756,0.4134,0.3175,0.0892,-0.0182,-0.0851,-0.1389,-0.1834,-0.2101,-0.215,-0.2281,-0.2279,-0.1969,-0.1657,-0.1165,-0.0494,0.0,0.0,0.0,0.0,0.0,0.0,-0.3381,0.0,0.0,0.0,0.0,0.0,0.0,0.0,-0.7308,-0.7511,0.0,-0.7488,-0.7541,-0.7515,-0.7348,-0.7144,-0.7252,-0.7526,-0.7359,-0.7467,-0.7788,-0.7889,-0.7931,-0.7909,-0.7475,-0.7228,-0.7112,-0.6653,-0.6274,-0.5941,-0.584,-0.5664,-0.5492,1.1305,1.176,0.0,0.0,1.2123,0.0,1.2593,1.3002,1.3342,1.3371,1.345,1.3511,1.3511,1.3571,1.3381,1.2992,0.0,0.0,0.0,1.3735,1.4036,1.401,1.4712,1.5136,1.5215,1.5215,1.5215,1.5156,1.3834,1.2879,1.2214,1.0755,0.9953,0.9646,0.9223,0.9066,0.915,0.8557,0.8447,0.8521,0.7732,0.758,0.7901,0.7937,0.8143,0.848,0.8699,0.9061,0.9361,0.9211,0.9361,0.951,0.9413,0.9256,0.9106,0.8883,0.8573,0.8209,0.745,0.6519,0.5441,0.4217,0.3303,0.2117,-0.0364,-0.0807,-0.0944,-0.1614,-0.1969,-0.2235,-0.264,-0.2595,-0.2549,-0.2549,-0.2014,-0.1433,-0.085,0.0,0.0,0.0,0.0,0.0,0.0,-0.3644,-0.408,0.0,0.0,0.0,0.0,0.0,-0.6458,-0.675,-0.7162,-0.7264,-0.7079,-0.7456,-0.7348,-0.6701,-0.6701,-0.6761,-0.6879,-0.6874,-0.6928,-0.7031,-0.7085,-0.7144,-0.7209,-0.6933,-0.6854,-0.6878,-0.6404,-0.6208,-0.6125,-0.5654,-0.5533,-0.555,0.0,0.0,1.2778,1.2823,1.3267,1.3542,1.3202,1.3527,1.3805,1.3838,1.3881,1.3881,1.3881,1.401,1.401,1.3683,1.3502,1.3295,1.3055,1.4028,1.4483,1.4195,1.4834,1.5215,1.5362,1.5362,1.5128,1.4656,1.3593,1.2714,1.196,1.0603,0.9776,0.9359,0.9233,0.8971,0.8741,0.8724,0.8557,0.8309,0.8287,0.8156,0.7955,0.8427,0.8692,0.885,0.8903,0.9159,0.9361,0.9113,0.9008,0.8956,0.8956,0.891,0.8857,0.8679,0.8355,0.7877,0.7192,0.61,0.5019,0.4239,0.2627,0.0952,-0.0,-0.0628,-0.112,-0.1433,-0.1834,-0.2235,-0.264,-0.2815,-0.286,-0.2821,-0.2326,-0.1876,-0.1563,-0.1477,0.0,0.0,-0.2438,-0.3035,-0.3075,-0.3465,-0.3785,0.0,0.0,0.0,0.0,-0.519,-0.5799,-0.646,-0.6856,-0.705,-0.7079,-0.7192,-0.7079,-0.6701,-0.6544,-0.6544,-0.6761,-0.6485,-0.6431,-0.6598,-0.682,-0.682,-0.6598,-0.6431,-0.6258,-0.603,-0.556,-0.5472,-0.5495,-0.4994,-0.5031,-0.5408,1.3641,1.3493,1.3302,1.3639,1.3867,1.3933,1.3666,1.403,1.4335,1.4165,1.4198,1.4198,1.4198,1.4327,1.4327,1.4189,1.4061,1.3795,1.3502,1.4016,1.4332,1.4364,1.4961,1.5342,1.541,1.541,1.5118,1.4588,1.3652,1.2906,1.2266,1.0872,1.0158,1.0044,0.9437,0.92,0.9099,0.8797,0.8616,0.8586,0.8527,0.8527,0.8533,0.885,0.9166,0.9323,0.9008,0.9106,0.9361,0.8995,0.8844,0.8745,0.8903,0.8798,0.8586,0.8527,0.8256,0.783,0.6977,0.5956,0.4825,0.3607,0.193,0.046,-0.009,-0.0762,-0.1299,-0.1524,-0.1878,-0.2235,-0.264,-0.2818,-0.2907,-0.2821,-0.2551,-0.2279,-0.2055,-0.1923,0.0,-0.2099,-0.2728,-0.3245,-0.3453,-0.3775,-0.4109,-0.4386,0.0,0.0,-0.473,-0.5127,-0.5618,-0.6132,-0.6502,-0.6729,-0.6918,-0.6707,-0.6647,-0.6701,-0.6273,-0.6164,-0.6376,-0.6213,-0.6164,-0.6218,-0.6386,-0.6386,-0.6218,-0.6055,-0.5949,-0.5742,-0.5439,-0.5279,-0.5226,-0.4887,-0.4893,-0.5008,1.4247,1.3983,1.3819,1.4165,1.4219,1.4178,1.4152,1.4504,1.4646,1.4454,1.4423,1.4455,1.4515,1.4455,1.4506,1.4565,1.4547,1.441,1.407,1.4013,1.4164,1.4483,1.5088,1.54,1.541,1.541,1.5118,1.4597,1.387,1.3253,1.2769,1.1345,1.0797,1.0977,0.9885,0.9562,0.9814,0.8942,0.8745,0.8956,0.8633,0.8791,0.9159,0.9263,0.9524,0.974,0.9173,0.9166,0.9361,0.8876,0.8725,0.8732,0.9001,0.8791,0.8427,0.8368,0.8184,0.7841,0.6853,0.5818,0.4532,0.2735,0.1377,0.0358,-0.0224,-0.0851,-0.1435,-0.1703,-0.1925,-0.219,-0.2595,-0.2776,-0.2823,-0.2773,-0.2729,-0.264,-0.2504,0.0,-0.2502,-0.2818,-0.3139,-0.3516,-0.3883,-0.4157,-0.4415,-0.4766,-0.4557,-0.4582,-0.4829,-0.5178,-0.5513,-0.5803,-0.6212,-0.6518,-0.6701,-0.6273,-0.6273,-0.6598,-0.5946,-0.5732,-0.5896,-0.5891,-0.5837,-0.5891,-0.5891,-0.5946,-0.5896,-0.5791,-0.5791,-0.5763,-0.5634,-0.5405,-0.5153,-0.5064,-0.4872,-0.4607,1.5155,1.4863,1.4517,1.4702,1.4702,1.4755,1.4887,1.4711,1.4638,1.4912,1.4596,1.4387,1.4515,1.4396,1.4446,1.4734,1.4765,1.4588,1.4189,1.4638,1.4796,1.4492,1.505,1.542,1.541,1.541,1.5001,1.4309,1.3722,1.3206,1.268,1.1448,1.0988,1.1218,1.0493,1.0167,1.0115,0.951,0.9159,0.9008,0.9054,0.9054,0.9106,0.9666,0.9865,0.9769,0.9747,0.9747,0.9577,0.8593,0.8659,0.9054,0.8633,0.8639,0.8646,0.8143,0.7669,0.7241,0.6811,0.5353,0.363,0.2121,0.1214,0.0627,0.0404,-0.0449,-0.1258,-0.1658,-0.1748,-0.1927,-0.2415,-0.264,-0.2773,-0.2946,-0.2815,-0.2865,-0.3309,0.0,-0.3037,-0.3401,-0.3529,-0.3651,-0.3961,-0.3897,-0.394,-0.4227,-0.4171,-0.4196,-0.4248,-0.4669,-0.5065,-0.5375,-0.6197,-0.6742,-0.6879,-0.6495,-0.6332,-0.6282,-0.5946,-0.5618,-0.5407,-0.5293,-0.5234,-0.5234,-0.5567,-0.5567,-0.5407,-0.5567,-0.5616,-0.5634,-0.5634,-0.5472,-0.5279,-0.4893,-0.4665,-0.4607,1.5954,1.5486,1.4997,1.5215,1.4985,1.4753,1.4781,1.4676,1.4621,1.4753,1.4505,1.4327,1.4515,1.4396,1.4387,1.4625,1.4784,1.4834,1.4616,1.501,1.5177,1.4982,1.5352,1.5546,1.5546,1.5604,1.5313,1.4478,1.4017,1.3416,1.2772,1.1957,1.1595,1.1578,1.1089,1.083,1.0744,0.9976,0.9621,0.9688,0.9673,0.9725,0.994,1.0344,1.0395,1.0241,0.994,0.9681,0.9316,0.8725,0.8567,0.862,0.8521,0.848,0.8349,0.7611,0.7054,0.6482,0.5567,0.445,0.3303,0.2058,0.1164,0.0537,0.0359,-0.0359,-0.1076,-0.1254,-0.1569,-0.1927,-0.2326,-0.246,-0.2593,-0.2907,-0.2951,0.0,0.0,-0.3394,-0.3442,-0.3799,-0.3736,-0.3813,-0.4073,-0.4011,-0.4079,-0.4434,-0.4494,-0.4536,-0.4634,-0.5003,-0.5291,-0.5432,-0.6166,-0.6544,-0.6657,-0.649,-0.6273,-0.6114,-0.5896,-0.5622,-0.5297,-0.5183,-0.5124,-0.5132,-0.5394,-0.5442,-0.5393,-0.5657,-0.5668,-0.5585,-0.5527,-0.5293,-0.502,-0.4757,-0.4509,-0.4268,1.6432,1.5878,1.545,1.5652,1.5216,1.4842,1.4772,1.4786,1.4762,1.4634,1.4441,1.4387,1.4455,1.4336,1.4327,1.4497,1.4725,1.4961,1.5079,1.5313,1.543,1.5478,1.5672,1.569,1.5466,1.5581,1.5234,1.4494,1.4026,1.3542,1.2963,1.2529,1.2207,1.1991,1.165,1.1418,1.1226,1.0522,1.0221,1.0221,1.0319,1.0561,1.0828,1.1115,1.1047,1.0769,1.019,0.9718,0.9309,0.9061,0.8732,0.8448,0.862,0.8421,0.8013,0.7338,0.6634,0.58,0.4474,0.3771,0.3215,0.2189,0.1343,0.0627,0.0359,-0.0179,-0.0672,-0.0805,-0.1389,-0.1971,-0.2237,-0.2326,-0.2504,-0.2865,0.0,0.0,0.0,-0.3524,-0.3707,-0.3888,-0.3855,-0.3883,-0.4122,-0.4118,-0.4307,-0.4722,-0.4726,-0.4808,-0.4997,-0.5282,-0.5474,-0.5508,-0.6005,-0.6332,-0.6381,-0.6381,-0.6273,-0.6,-0.59,-0.5626,-0.5183,-0.5124,-0.5014,-0.5026,-0.5212,-0.535,-0.5397,-0.5608,-0.567,-0.5635,-0.5475,-0.5179,-0.4788,-0.4749,-0.4408,-0.4032,1.6355,1.6285,1.6111,1.5753,1.5466,1.5371,1.5606,1.528,1.4993,1.5072,1.4717,1.4419,1.4327,1.4336,1.4369,1.4501,1.4492,1.4796,1.5352,1.54,1.5478,1.5682,1.5798,1.5551,1.49,1.4768,1.4361,1.377,1.3231,1.3015,1.3058,1.2786,1.2518,1.2271,1.2435,1.1959,1.1133,1.1422,1.0935,1.0133,1.1104,1.1308,1.1158,1.1913,1.1825,1.1175,1.0616,1.0308,1.0043,0.9695,0.9309,0.9013,0.8823,0.8402,0.7871,0.7545,0.6644,0.552,0.4395,0.3889,0.3438,0.2348,0.17,0.1208,0.0761,0.0628,0.0314,-0.0537,-0.1299,-0.1884,-0.2154,-0.2464,-0.2729,-0.2946,0.0,0.0,-0.3578,-0.366,-0.366,-0.3622,-0.3806,-0.3899,-0.3902,-0.4164,-0.4344,-0.4498,-0.4578,-0.4655,-0.4709,-0.4946,-0.511,-0.5344,-0.5681,-0.6009,-0.6381,-0.6381,-0.6273,-0.6,-0.6005,-0.5618,-0.4956,-0.4901,-0.4846,-0.4743,-0.486,-0.5121,-0.5381,-0.5226,-0.5455,-0.5884,-0.5659,-0.533,-0.4919,-0.5042,-0.4546,-0.388,1.6834,1.64,1.6067,1.6028,1.559,1.5194,1.5102,1.505,1.4909,1.4777,1.4538,1.4378,1.4396,1.4336,1.4318,1.4478,1.4674,1.4743,1.465,1.5119,1.5418,1.541,1.5109,1.4828,1.4486,1.4227,1.3962,1.3711,1.3242,1.3035,1.2974,1.2809,1.2529,1.2203,1.2429,1.2094,1.1384,1.158,1.1429,1.1074,1.1566,1.1599,1.1385,1.1888,1.165,1.1023,1.0726,1.053,1.028,0.9688,0.9354,0.9183,0.8896,0.8362,0.7735,0.7012,0.594,0.4912,0.4435,0.3976,0.3426,0.2391,0.1878,0.1524,0.0942,0.0674,0.0314,-0.0358,-0.1208,-0.1839,-0.2064,-0.233,-0.264,-0.2907,0.0,-0.3534,-0.3581,-0.366,-0.3612,-0.3442,-0.3615,-0.3788,-0.388,-0.4144,-0.4364,-0.4499,-0.4696,-0.4742,-0.4718,-0.4915,-0.5197,-0.5449,-0.5622,-0.5791,-0.6009,-0.6381,-0.6436,-0.6119,-0.6327,-0.6064,-0.5454,-0.5393,-0.5171,-0.4844,-0.5111,-0.525,-0.5281,-0.566,-0.5775,-0.5678,-0.5534,-0.522,-0.4885,-0.4621,-0.4358,-0.4074,1.7304,1.6777,1.6356,1.6474,1.5885,1.5321,1.493,1.4996,1.4911,1.4616,1.4565,1.4506,1.4497,1.4446,1.4378,1.4419,1.4674,1.4715,1.4489,1.4649,1.4772,1.4821,1.4582,1.4305,1.3984,1.3689,1.3427,1.3313,1.2978,1.2795,1.2633,1.2693,1.2421,1.2004,1.2379,1.2144,1.1525,1.1913,1.1922,1.1737,1.2191,1.2104,1.1637,1.1861,1.1582,1.0989,1.0734,1.0589,1.0443,0.9962,0.9681,0.9451,0.9159,0.8521,0.7729,0.6838,0.5861,0.504,0.4737,0.4255,0.3569,0.2618,0.2105,0.1749,0.1258,0.0763,0.0269,-0.0358,-0.1164,-0.1794,-0.1928,-0.233,-0.2729,-0.2998,-0.3353,-0.3575,-0.3442,-0.3568,-0.3609,-0.3306,-0.3568,-0.3836,-0.3972,-0.4232,-0.4447,-0.4539,-0.4799,-0.4927,-0.4858,-0.5119,-0.5329,-0.5508,-0.5567,-0.5677,-0.5795,-0.6277,-0.6386,-0.6119,-0.6381,-0.6216,-0.5731,-0.5616,-0.5385,-0.5049,-0.5277,-0.538,-0.5405,-0.5759,-0.5815,-0.5589,-0.5454,-0.5082,-0.468,-0.4399,-0.4195,-0.4016,1.7638,1.7423,1.7163,1.7092,1.6402,1.5742,1.5343,1.5245,1.5088,1.4715,1.4843,1.4843,1.4529,1.4497,1.4419,1.4236,1.435,1.4632,1.4954,1.4007,1.3571,1.3932,1.4345,1.4157,1.332,1.3035,1.2776,1.248,1.2382,1.2224,1.2076,1.2314,1.2166,1.1728,1.2314,1.2195,1.1586,1.251,1.2432,1.1813,1.301,1.2865,1.1922,1.2043,1.1757,1.1209,1.0707,1.0486,1.0522,1.0672,1.0324,0.985,0.9658,0.8823,0.7771,0.709,0.6549,0.6064,0.5449,0.4726,0.3904,0.3122,0.2467,0.1928,0.1748,0.1077,0.0269,-0.0537,-0.1254,-0.1748,-0.1884,-0.2467,-0.3001,-0.3262,-0.3524,-0.352,-0.3078,-0.3388,-0.3565,-0.3258,-0.3615,-0.3972,-0.4108,-0.4408,-0.4618,-0.4618,-0.4849,-0.5083,-0.5198,-0.547,-0.5513,-0.5301,-0.5517,-0.5677,-0.5795,-0.6069,-0.6119,-0.6,-0.6,-0.5883,-0.5612,-0.5447,-0.5393,-0.5393,-0.5393,-0.5562,-0.5793,-0.5447,-0.5424,-0.5586,-0.545,-0.489,-0.4259,-0.4522,-0.4145,-0.3559,1.7187,1.6598,1.6128,1.6307,1.5554,1.486,1.474,1.4799,1.4834,1.4706,1.4775,1.4656,1.4309,1.4318,1.4336,1.4225,1.3942,1.3418,1.2613,1.3128,1.3178,1.2419,1.2779,1.2823,1.2525,1.2142,1.1995,1.2076,1.1877,1.1728,1.1678,1.1619,1.1737,1.1981,1.1981,1.223,1.2645,1.2704,1.2577,1.2234,1.2304,1.1926,1.125,1.0573,1.0111,0.9791,0.9592,0.9734,1.0063,1.0468,1.0584,1.0348,0.9415,0.8639,0.7865,0.6864,0.6019,0.5293,0.4753,0.4,0.3385,0.3206,0.2368,0.1431,0.0987,0.0583,0.009,-0.0671,-0.1389,-0.1884,-0.2064,-0.2556,-0.2912,-0.2998,-0.3391,-0.3612,-0.3306,-0.3524,-0.3656,-0.3568,-0.3744,-0.3968,-0.4232,-0.4408,-0.4583,-0.4709,-0.4938,-0.5087,-0.505,-0.5246,-0.5387,-0.5293,-0.5352,-0.5517,-0.5795,-0.5955,-0.6059,-0.6119,-0.6164,-0.5934,-0.5616,-0.5628,-0.5443,-0.5049,-0.5281,-0.5257,-0.5046,-0.5281,-0.5174,-0.4837,-0.4883,-0.4591,-0.4154,-0.3946,-0.3754,-0.3545,1.6925,1.6424,1.5996,1.5984,1.5232,1.4602,1.4497,1.4597,1.4588,1.4588,1.4656,1.4597,1.4359,1.4318,1.4276,1.4114,1.3473,1.2739,1.1921,1.2291,1.2335,1.183,1.1769,1.1783,1.1826,1.1489,1.1427,1.1578,1.1267,1.1116,1.1124,1.0922,1.1234,1.1872,1.1778,1.2274,1.3105,1.292,1.2706,1.2403,1.1891,1.1342,1.0704,0.9795,0.9291,0.9051,0.8955,0.9628,1.0638,1.1357,1.1749,1.1657,1.0334,0.9365,0.8493,0.7069,0.6027,0.5237,0.4706,0.3911,0.3102,0.2568,0.1828,0.1072,0.0494,0.0135,-0.0224,-0.0716,-0.1344,-0.1884,-0.2154,-0.26,-0.2957,-0.3043,-0.3435,-0.3653,-0.348,-0.3704,-0.3836,-0.37,-0.3921,-0.41,-0.4188,-0.4408,-0.4626,-0.4801,-0.4902,-0.491,-0.4804,-0.5089,-0.5218,-0.512,-0.5242,-0.5407,-0.5736,-0.5736,-0.5841,-0.6119,-0.5887,-0.5767,-0.5789,-0.5684,-0.5549,-0.5397,-0.5509,-0.5389,-0.5093,-0.5389,-0.5212,-0.4748,-0.4847,-0.4647,-0.424,-0.3894,-0.3637,-0.3442,1.6738,1.6558,1.6299,1.5884,1.5241,1.4726,1.4474,1.4478,1.4469,1.4478,1.4597,1.4588,1.4478,1.4309,1.4139,1.389,1.3033,1.2492,1.2395,1.1663,1.142,1.1847,1.119,1.0922,1.1116,1.1065,1.1023,1.1023,1.0651,1.0454,1.0419,1.0198,1.0557,1.1418,1.1683,1.2267,1.3122,1.2976,1.2657,1.2211,1.1571,1.0898,1.0187,0.9513,0.9067,0.8798,0.8619,0.9973,1.1907,1.2968,1.3507,1.3516,1.2033,1.0794,0.9506,0.7736,0.646,0.5499,0.4888,0.4033,0.2916,0.1351,0.0848,0.0627,0.018,-0.0269,-0.0629,-0.0716,-0.1254,-0.1794,-0.2154,-0.26,-0.3001,-0.3262,-0.3524,-0.3697,-0.3653,-0.3924,-0.4016,-0.3788,-0.4052,-0.4232,-0.4152,-0.4447,-0.4661,-0.4714,-0.4757,-0.4708,-0.4485,-0.4872,-0.5047,-0.4929,-0.5175,-0.5407,-0.5622,-0.5352,-0.5517,-0.595,-0.5344,-0.5429,-0.594,-0.5541,-0.5585,-0.5997,-0.5842,-0.5665,-0.5538,-0.5537,-0.5344,-0.502,-0.5021,-0.4763,-0.436,-0.4055,-0.3688,-0.3318,1.598,1.5458,1.5102,1.5127,1.4522,1.4047,1.3959,1.4121,1.4249,1.413,1.4359,1.441,1.401,1.395,1.3649,1.3111,1.2549,1.2104,1.1787,1.2073,1.1857,1.0922,1.0226,0.9925,0.9976,1.0344,1.0506,1.0403,0.9814,0.9555,0.9621,0.9406,0.9806,1.083,1.1266,1.1931,1.2638,1.2291,1.1818,1.122,1.0253,0.962,0.9149,0.8441,0.8476,0.886,0.8535,1.0094,1.2489,1.4226,1.4956,1.4868,1.3455,1.1827,1.009,0.84,0.664,0.4938,0.3535,0.251,0.1456,0.0226,-0.0313,-0.0582,-0.0851,-0.1075,-0.121,-0.1254,-0.1703,-0.2152,-0.2373,-0.2687,-0.2954,-0.3173,-0.348,-0.3788,-0.3972,-0.4144,-0.4276,-0.4324,-0.424,-0.4236,-0.4491,-0.4666,-0.4578,-0.4144,-0.4447,-0.4564,-0.4408,-0.475,-0.4988,-0.5031,-0.5225,-0.5407,-0.5622,-0.5179,-0.5124,-0.5462,-0.5238,-0.5093,-0.5023,-0.5132,-0.517,-0.5187,-0.537,-0.527,-0.4923,-0.5121,-0.4893,-0.4419,-0.4378,-0.4356,-0.4183,-0.3569,-0.3371,-0.3357,1.5298,1.5023,1.4893,1.4799,1.4264,1.383,1.389,1.3881,1.3821,1.3761,1.4061,1.4121,1.383,1.364,1.3216,1.2428,1.2127,1.1804,1.1326,1.135,1.0922,0.9785,0.9421,0.919,0.9072,0.9249,0.9465,0.9732,0.904,0.8778,0.8942,0.883,0.9436,1.0645,1.1208,1.2021,1.2871,1.2195,1.1584,1.0974,0.9968,0.9275,0.8805,0.8602,0.8936,0.952,0.9392,1.1176,1.3691,1.4684,1.5478,1.5755,1.4148,1.2563,1.0944,0.8702,0.6836,0.5021,0.2825,0.1426,0.0321,-0.081,-0.1299,-0.1478,-0.1478,-0.1569,-0.1748,-0.188,-0.2194,-0.2509,-0.2771,-0.2951,-0.3129,-0.3391,-0.3656,-0.3924,-0.424,-0.4276,-0.4364,-0.4499,-0.4324,-0.4276,-0.4535,-0.4539,-0.4451,-0.41,-0.41,-0.4092,-0.4026,-0.4257,-0.4474,-0.4606,-0.4931,-0.5179,-0.5348,-0.5124,-0.5014,-0.5124,-0.4963,-0.4963,-0.5132,-0.5133,-0.5174,-0.5242,-0.5254,-0.5004,-0.4643,-0.4737,-0.4611,-0.4326,-0.4157,-0.4258,-0.4405,-0.3549,-0.3133,-0.2887,1.4799,1.4884,1.5013,1.4662,1.4181,1.389,1.395,1.37,1.3511,1.339,1.37,1.3881,1.3709,1.3338,1.2757,1.1789,1.171,1.1385,1.0692,1.0261,0.9606,0.8728,0.8671,0.8554,0.8324,0.8203,0.8421,0.8995,0.8321,0.8055,0.8156,0.8362,0.9124,1.0426,1.1139,1.2067,1.303,1.2003,1.1269,1.067,0.9794,0.9119,0.8655,0.9166,0.9714,1.0255,1.042,1.24,1.4929,1.496,1.5715,1.6378,1.4536,1.3295,1.1986,0.9144,0.7282,0.545,0.2658,0.0939,-0.0402,-0.1569,-0.2062,-0.2196,-0.2107,-0.2061,-0.215,-0.246,-0.2682,-0.2907,-0.3214,-0.3258,-0.3391,-0.3656,-0.3836,-0.4016,-0.4368,-0.4368,-0.432,-0.4416,-0.4437,-0.4445,-0.4416,-0.4437,-0.4365,-0.4276,-0.3854,-0.3601,-0.3651,-0.3743,-0.3859,-0.4062,-0.4545,-0.4856,-0.4973,-0.4973,-0.4984,-0.4897,-0.4794,-0.4963,-0.5462,-0.5159,-0.5204,-0.5411,-0.5163,-0.4805,-0.4418,-0.4451,-0.4464,-0.4391,-0.4172,-0.431,-0.4587,-0.3656,-0.2953,-0.2463,1.4579,1.4721,1.4868,1.4455,1.4258,1.407,1.389,1.364,1.339,1.3103,1.3338,1.3519,1.3363,1.2797,1.2181,1.1533,1.1276,1.0753,0.9753,0.9737,0.9291,0.8329,0.8105,0.7913,0.7616,0.7723,0.7883,0.809,0.7408,0.7085,0.7122,0.761,0.8448,0.9622,1.0532,1.1241,1.1696,1.0693,0.9891,0.9256,0.8659,0.8181,0.7963,0.9052,0.989,1.0477,1.0757,1.2765,1.5402,1.5903,1.6489,1.6771,1.5219,1.4338,1.3296,1.0561,0.8325,0.6192,0.3484,0.1549,-0.0045,-0.1478,-0.2241,-0.2732,-0.3084,-0.2773,-0.246,-0.2632,-0.299,-0.335,-0.352,-0.3609,-0.3653,-0.3697,-0.3836,-0.3972,-0.4108,-0.4236,-0.4276,-0.4152,-0.4599,-0.4724,-0.4212,-0.4604,-0.4697,-0.4187,-0.3788,-0.3643,-0.3785,-0.3788,-0.3817,-0.3856,-0.4172,-0.4425,-0.4587,-0.4587,-0.4709,-0.4897,-0.4901,-0.4846,-0.4802,-0.4868,-0.4868,-0.4802,-0.4768,-0.4484,-0.4089,-0.4394,-0.4406,-0.4207,-0.42,-0.4262,-0.4347,-0.3625,-0.3131,-0.2706,1.4225,1.4318,1.4369,1.4258,1.3941,1.37,1.364,1.3398,1.3164,1.305,1.3224,1.3354,1.3302,1.2445,1.1594,1.0912,1.0442,0.9873,0.9162,0.8909,0.8446,0.7741,0.7285,0.702,0.6869,0.6701,0.6637,0.6642,0.6637,0.6531,0.6421,0.696,0.7753,0.8832,1.0043,1.0848,1.125,1.0623,0.9944,0.9247,0.865,0.8472,0.8692,1.0018,1.0738,1.1142,1.1881,1.3578,1.5429,1.5338,1.577,1.6205,1.5074,1.4147,1.3071,1.0997,0.9139,0.7162,0.4359,0.2388,0.0614,-0.1382,-0.2721,-0.3604,-0.3982,-0.4093,-0.4021,-0.3667,-0.3788,-0.4012,-0.4228,-0.4224,-0.4224,-0.4224,-0.4232,-0.4192,-0.4108,-0.4012,-0.3924,-0.3843,-0.4397,-0.4659,-0.4397,-0.4734,-0.4797,-0.4318,-0.3873,-0.3595,-0.3485,-0.3453,-0.3458,-0.3513,-0.3827,-0.4134,-0.4404,-0.4404,-0.4535,-0.4794,-0.4574,-0.4632,-0.4908,-0.4959,-0.4904,-0.4688,-0.4632,-0.4242,-0.3694,-0.3691,-0.3754,-0.382,-0.3685,-0.3677,-0.3801,-0.3577,-0.3179,-0.275]}]]